Wetterdaten: Samstag, 18.03.2017
Datum Zeit Temp. A. Feuchte A. Luftdruck Regen Wind Richtung Richtung Sonnenschein ET UV Solar Taupunkt Windchill Windben Empfang
18.03.2017 00:00 8,6 C 92 % 1011,3 hPa 0,0 l/m 11,1 km/h (2 Bft) W 269 0 min 0,000 mm 0,0 UV-I 0 W/m 7,4 C 5,4 C 16,1 km/h (3 Bft) 98,21 %
18.03.2017 00:02 8,6 C 92 % 1011,3 hPa 0,0 l/m 10,4 km/h (2 Bft) W-SW 253 0 min 0,000 mm 0,0 UV-I 0 W/m 7,4 C 5,8 C 16,1 km/h (3 Bft) 93,48 %
18.03.2017 00:04 8,6 C 92 % 1011,3 hPa 0,0 l/m 9,4 km/h (2 Bft) W-SW 237 0 min 0,000 mm 0,0 UV-I 0 W/m 7,4 C 6,4 C 14,5 km/h (3 Bft) 100,00 %
18.03.2017 00:06 8,6 C 92 % 1011,3 hPa 0,0 l/m 9,6 km/h (2 Bft) W-SW 239 0 min 0,000 mm 0,0 UV-I 0 W/m 7,4 C 6,3 C 16,1 km/h (3 Bft) 97,56 %
18.03.2017 00:08 8,6 C 92 % 1011,3 hPa 0,0 l/m 10,6 km/h (2 Bft) S-SW 200 0 min 0,000 mm 0,0 UV-I 0 W/m 7,4 C 5,7 C 16,1 km/h (3 Bft) 96,43 %
18.03.2017 00:10 8,6 C 92 % 1011,3 hPa 0,0 l/m 10,3 km/h (2 Bft) S 181 0 min 0,000 mm 0,0 UV-I 0 W/m 7,4 C 5,9 C 14,5 km/h (3 Bft) 100,00 %
18.03.2017 00:12 8,6 C 92 % 1011,3 hPa 0,0 l/m 10,7 km/h (2 Bft) W-SW 238 0 min 0,000 mm 0,0 UV-I 0 W/m 7,4 C 5,6 C 17,7 km/h (3 Bft) 97,73 %
18.03.2017 00:14 8,6 C 92 % 1011,2 hPa 0,0 l/m 11,2 km/h (2 Bft) SW 224 0 min 0,000 mm 0,0 UV-I 0 W/m 7,4 C 5,3 C 16,1 km/h (3 Bft) 100,00 %
18.03.2017 00:16 8,6 C 92 % 1011,3 hPa 0,0 l/m 11,6 km/h (2 Bft) W-SW 241 0 min 0,000 mm 0,0 UV-I 0 W/m 7,4 C 5,1 C 16,1 km/h (3 Bft) 95,65 %
18.03.2017 00:18 8,6 C 92 % 1011,2 hPa 0,0 l/m 12,3 km/h (3 Bft) W-SW 240 0 min 0,000 mm 0,0 UV-I 0 W/m 7,4 C 4,7 C 17,7 km/h (3 Bft) 100,00 %
18.03.2017 00:20 8,6 C 92 % 1011,4 hPa 0,0 l/m 11,5 km/h (2 Bft) SW 226 0 min 0,000 mm 0,0 UV-I 0 W/m 7,4 C 5,2 C 17,7 km/h (3 Bft) 97,87 %
18.03.2017 00:22 8,6 C 92 % 1011,4 hPa 0,0 l/m 11,6 km/h (2 Bft) W-SW 254 0 min 0,000 mm 0,0 UV-I 0 W/m 7,4 C 5,1 C 16,1 km/h (3 Bft) 95,74 %
18.03.2017 00:24 8,6 C 92 % 1011,4 hPa 0,0 l/m 13,9 km/h (3 Bft) SW 222 0 min 0,000 mm 0,0 UV-I 0 W/m 7,4 C 3,9 C 19,3 km/h (3 Bft) 100,00 %
18.03.2017 00:26 8,6 C 93 % 1011,5 hPa 0,0 l/m 13,0 km/h (3 Bft) W-SW 242 0 min 0,000 mm 0,0 UV-I 0 W/m 7,5 C 4,4 C 17,7 km/h (3 Bft) 100,00 %
18.03.2017 00:28 8,6 C 93 % 1011,4 hPa 0,0 l/m 12,0 km/h (2 Bft) W-SW 238 0 min 0,000 mm 0,0 UV-I 0 W/m 7,5 C 4,9 C 16,1 km/h (3 Bft) 100,00 %
18.03.2017 00:30 8,6 C 93 % 1011,4 hPa 0,0 l/m 12,6 km/h (3 Bft) SW 231 0 min 0,000 mm 0,0 UV-I 0 W/m 7,5 C 4,6 C 17,7 km/h (3 Bft) 100,00 %
18.03.2017 00:32 8,6 C 93 % 1011,5 hPa 0,0 l/m 10,5 km/h (2 Bft) SW 229 0 min 0,000 mm 0,0 UV-I 0 W/m 7,5 C 5,7 C 16,1 km/h (3 Bft) 100,00 %
18.03.2017 00:34 8,7 C 93 % 1011,4 hPa 0,0 l/m 11,8 km/h (2 Bft) SW 235 0 min 0,000 mm 0,0 UV-I 0 W/m 7,6 C 5,1 C 16,1 km/h (3 Bft) 97,22 %
18.03.2017 00:36 8,7 C 93 % 1011,3 hPa 0,0 l/m 9,5 km/h (2 Bft) W-SW 241 0 min 0,000 mm 0,0 UV-I 0 W/m 7,6 C 6,5 C 16,1 km/h (3 Bft) 94,29 %
18.03.2017 00:38 8,7 C 93 % 1011,3 hPa 0,0 l/m 12,4 km/h (3 Bft) SW 229 0 min 0,000 mm 0,0 UV-I 0 W/m 7,6 C 4,8 C 19,3 km/h (3 Bft) 98,59 %
18.03.2017 00:40 8,7 C 93 % 1011,2 hPa 0,0 l/m 12,4 km/h (3 Bft) SW 225 0 min 0,000 mm 0,0 UV-I 0 W/m 7,6 C 4,8 C 19,3 km/h (3 Bft) 100,00 %
18.03.2017 00:42 8,7 C 93 % 1011,2 hPa 0,0 l/m 11,4 km/h (2 Bft) W-SW 250 0 min 0,000 mm 0,0 UV-I 0 W/m 7,6 C 5,3 C 17,7 km/h (3 Bft) 97,73 %
18.03.2017 00:44 8,7 C 93 % 1011,2 hPa 0,0 l/m 10,7 km/h (2 Bft) S-SW 207 0 min 0,000 mm 0,0 UV-I 0 W/m 7,6 C 5,7 C 17,7 km/h (3 Bft) 100,00 %
18.03.2017 00:46 8,8 C 93 % 1011,1 hPa 0,0 l/m 13,2 km/h (3 Bft) SW 227 0 min 0,000 mm 0,0 UV-I 0 W/m 7,7 C 4,5 C 22,5 km/h (4 Bft) 98,11 %
18.03.2017 00:48 8,8 C 93 % 1011,1 hPa 0,0 l/m 11,6 km/h (2 Bft) SW 233 0 min 0,000 mm 0,0 UV-I 0 W/m 7,7 C 5,3 C 16,1 km/h (3 Bft) 97,37 %
18.03.2017 00:50 8,8 C 93 % 1011,0 hPa 0,0 l/m 11,7 km/h (2 Bft) SW 227 0 min 0,000 mm 0,0 UV-I 0 W/m 7,7 C 5,3 C 17,7 km/h (3 Bft) 100,00 %
18.03.2017 00:52 8,8 C 93 % 1010,9 hPa 0,0 l/m 10,6 km/h (2 Bft) SW 227 0 min 0,000 mm 0,0 UV-I 0 W/m 7,7 C 5,9 C 14,5 km/h (3 Bft) 97,37 %
18.03.2017 00:54 8,8 C 93 % 1010,9 hPa 0,0 l/m 8,0 km/h (2 Bft) W-SW 244 0 min 0,000 mm 0,0 UV-I 0 W/m 7,7 C 7,6 C 11,3 km/h (2 Bft) 100,00 %
18.03.2017 00:56 8,8 C 93 % 1011,0 hPa 0,0 l/m 8,0 km/h (2 Bft) SW 230 0 min 0,000 mm 0,0 UV-I 0 W/m 7,7 C 7,6 C 12,9 km/h (3 Bft) 97,37 %
18.03.2017 00:58 8,8 C 93 % 1011,0 hPa 0,0 l/m 8,3 km/h (2 Bft) W 260 0 min 0,000 mm 0,0 UV-I 0 W/m 7,7 C 7,4 C 12,9 km/h (3 Bft) 100,00 %
18.03.2017 01:00 8,8 C 93 % 1011,0 hPa 0,0 l/m 10,5 km/h (2 Bft) W-SW 244 0 min 0,000 mm 0,0 UV-I 0 W/m 7,7 C 6,0 C 16,1 km/h (3 Bft) 98,00 %
18.03.2017 01:02 8,7 C 93 % 1011,0 hPa 0,0 l/m 12,1 km/h (2 Bft) W-SW 238 0 min 0,000 mm 0,0 UV-I 0 W/m 7,6 C 5,0 C 17,7 km/h (3 Bft) 98,00 %
18.03.2017 01:04 8,8 C 92 % 1011,0 hPa 0,0 l/m 13,6 km/h (3 Bft) W 261 0 min 0,000 mm 0,0 UV-I 0 W/m 7,6 C 4,3 C 19,3 km/h (3 Bft) 100,00 %
18.03.2017 01:06 8,8 C 92 % 1011,0 hPa 0,0 l/m 11,5 km/h (2 Bft) SW 234 0 min 0,000 mm 0,0 UV-I 0 W/m 7,6 C 5,4 C 16,1 km/h (3 Bft) 98,11 %
18.03.2017 01:08 8,8 C 92 % 1011,0 hPa 0,0 l/m 10,7 km/h (2 Bft) W-SW 258 0 min 0,000 mm 0,0 UV-I 0 W/m 7,6 C 5,9 C 19,3 km/h (3 Bft) 100,00 %
18.03.2017 01:10 8,8 C 91 % 1010,9 hPa 0,0 l/m 10,8 km/h (2 Bft) W-SW 257 0 min 0,000 mm 0,0 UV-I 0 W/m 7,4 C 5,8 C 16,1 km/h (3 Bft) 96,30 %
18.03.2017 01:12 8,8 C 91 % 1011,0 hPa 0,0 l/m 11,5 km/h (2 Bft) W-SW 242 0 min 0,000 mm 0,0 UV-I 0 W/m 7,4 C 5,4 C 16,1 km/h (3 Bft) 100,00 %
18.03.2017 01:14 8,8 C 91 % 1010,9 hPa 0,0 l/m 13,5 km/h (3 Bft) W 264 0 min 0,000 mm 0,0 UV-I 0 W/m 7,4 C 4,4 C 17,7 km/h (3 Bft) 98,21 %
18.03.2017 01:16 8,9 C 90 % 1010,9 hPa 0,0 l/m 13,5 km/h (3 Bft) W-SW 254 0 min 0,000 mm 0,0 UV-I 0 W/m 7,4 C 4,5 C 20,9 km/h (4 Bft) 98,21 %
18.03.2017 01:18 8,9 C 90 % 1010,9 hPa 0,0 l/m 12,2 km/h (2 Bft) W-SW 251 0 min 0,000 mm 0,0 UV-I 0 W/m 7,4 C 5,1 C 17,7 km/h (3 Bft) 97,73 %
18.03.2017 01:20 8,9 C 90 % 1010,9 hPa 0,0 l/m 12,1 km/h (2 Bft) W 267 0 min 0,000 mm 0,0 UV-I 0 W/m 7,4 C 5,2 C 16,1 km/h (3 Bft) 100,00 %
18.03.2017 01:22 8,9 C 90 % 1010,9 hPa 0,0 l/m 13,8 km/h (3 Bft) W 259 0 min 0,000 mm 0,0 UV-I 0 W/m 7,4 C 4,3 C 17,7 km/h (3 Bft) 97,37 %
18.03.2017 01:24 8,9 C 90 % 1010,9 hPa 0,0 l/m 10,2 km/h (2 Bft) W-SW 253 0 min 0,000 mm 0,0 UV-I 0 W/m 7,4 C 6,3 C 16,1 km/h (3 Bft) 96,23 %
18.03.2017 01:26 8,9 C 89 % 1010,9 hPa 0,0 l/m 7,4 km/h (2 Bft) W-SW 252 0 min 0,000 mm 0,0 UV-I 0 W/m 7,2 C 8,1 C 12,9 km/h (3 Bft) 98,00 %
18.03.2017 01:28 9,0 C 89 % 1010,8 hPa 0,0 l/m 9,5 km/h (2 Bft) SW 230 0 min 0,000 mm 0,0 UV-I 0 W/m 7,3 C 6,8 C 14,5 km/h (3 Bft) 94,00 %
18.03.2017 01:30 8,9 C 89 % 1010,8 hPa 0,0 l/m 7,5 km/h (2 Bft) W-SW 252 0 min 0,000 mm 0,0 UV-I 0 W/m 7,2 C 8,1 C 11,3 km/h (2 Bft) 95,65 %
18.03.2017 01:32 8,9 C 90 % 1010,8 hPa 0,0 l/m 6,8 km/h (2 Bft) SW 231 0 min 0,000 mm 0,0 UV-I 0 W/m 7,4 C 8,6 C 11,3 km/h (2 Bft) 97,06 %
18.03.2017 01:34 8,9 C 90 % 1010,8 hPa 0,0 l/m 9,5 km/h (2 Bft) W-SW 257 0 min 0,000 mm 0,0 UV-I 0 W/m 7,4 C 6,7 C 16,1 km/h (3 Bft) 97,14 %
18.03.2017 01:36 8,9 C 90 % 1010,8 hPa 0,0 l/m 7,4 km/h (2 Bft) SW 229 0 min 0,000 mm 0,0 UV-I 0 W/m 7,4 C 8,1 C 12,9 km/h (3 Bft) 96,43 %
18.03.2017 01:38 8,9 C 90 % 1010,8 hPa 0,0 l/m 8,0 km/h (2 Bft) SW 223 0 min 0,000 mm 0,0 UV-I 0 W/m 7,4 C 7,7 C 14,5 km/h (3 Bft) 97,37 %
18.03.2017 01:40 8,9 C 91 % 1010,9 hPa 0,0 l/m 7,3 km/h (2 Bft) SW 220 0 min 0,000 mm 0,0 UV-I 0 W/m 7,5 C 8,2 C 12,9 km/h (3 Bft) 96,43 %
18.03.2017 01:42 8,9 C 91 % 1010,8 hPa 0,0 l/m 7,9 km/h (2 Bft) W-SW 251 0 min 0,000 mm 0,0 UV-I 0 W/m 7,5 C 7,8 C 11,3 km/h (2 Bft) 92,11 %
18.03.2017 01:44 8,9 C 91 % 1010,8 hPa 0,0 l/m 6,7 km/h (2 Bft) W-SW 243 0 min 0,000 mm 0,0 UV-I 0 W/m 7,5 C 8,7 C 9,7 km/h (2 Bft) 98,11 %
18.03.2017 01:46 8,9 C 91 % 1010,8 hPa 0,0 l/m 8,9 km/h (2 Bft) SW 226 0 min 0,000 mm 0,0 UV-I 0 W/m 7,5 C 7,1 C 12,9 km/h (3 Bft) 97,56 %
18.03.2017 01:48 8,9 C 91 % 1010,8 hPa 0,0 l/m 9,7 km/h (2 Bft) SW 227 0 min 0,000 mm 0,0 UV-I 0 W/m 7,5 C 6,6 C 14,5 km/h (3 Bft) 91,67 %
18.03.2017 01:50 8,9 C 91 % 1010,6 hPa 0,0 l/m 9,7 km/h (2 Bft) SW 232 0 min 0,000 mm 0,0 UV-I 0 W/m 7,5 C 6,6 C 14,5 km/h (3 Bft) 96,59 %
18.03.2017 01:52 8,9 C 91 % 1010,6 hPa 0,0 l/m 8,7 km/h (2 Bft) W-SW 240 0 min 0,000 mm 0,0 UV-I 0 W/m 7,5 C 7,2 C 12,9 km/h (3 Bft) 97,62 %
18.03.2017 01:54 8,9 C 91 % 1010,4 hPa 0,0 l/m 12,1 km/h (2 Bft) S-SW 207 0 min 0,000 mm 0,0 UV-I 0 W/m 7,5 C 5,2 C 17,7 km/h (3 Bft) 94,74 %
18.03.2017 01:56 8,9 C 92 % 1010,4 hPa 0,0 l/m 9,8 km/h (2 Bft) SW 235 0 min 0,000 mm 0,0 UV-I 0 W/m 7,7 C 6,5 C 16,1 km/h (3 Bft) 95,31 %
18.03.2017 01:58 8,9 C 92 % 1010,4 hPa 0,0 l/m 9,1 km/h (2 Bft) S-SW 211 0 min 0,000 mm 0,0 UV-I 0 W/m 7,7 C 6,9 C 12,9 km/h (3 Bft) 95,24 %
18.03.2017 02:00 8,9 C 92 % 1010,3 hPa 0,0 l/m 9,0 km/h (2 Bft) W-SW 251 0 min 0,000 mm 0,0 UV-I 0 W/m 7,7 C 7,0 C 17,7 km/h (3 Bft) 97,87 %
18.03.2017 02:02 8,9 C 92 % 1010,4 hPa 0,0 l/m 11,2 km/h (2 Bft) SW 233 0 min 0,000 mm 0,0 UV-I 0 W/m 7,7 C 5,7 C 16,1 km/h (3 Bft) 100,00 %
18.03.2017 02:04 8,9 C 92 % 1010,3 hPa 0,0 l/m 11,6 km/h (2 Bft) S-SW 202 0 min 0,000 mm 0,0 UV-I 0 W/m 7,7 C 5,5 C 16,1 km/h (3 Bft) 96,15 %
18.03.2017 02:06 8,9 C 92 % 1010,3 hPa 0,0 l/m 11,5 km/h (2 Bft) SW 229 0 min 0,000 mm 0,0 UV-I 0 W/m 7,7 C 5,5 C 17,7 km/h (3 Bft) 100,00 %
18.03.2017 02:08 8,9 C 92 % 1010,3 hPa 0,0 l/m 7,0 km/h (2 Bft) SW 220 0 min 0,000 mm 0,0 UV-I 0 W/m 7,7 C 8,4 C 11,3 km/h (2 Bft) 98,00 %
18.03.2017 02:10 8,9 C 92 % 1010,2 hPa 0,0 l/m 9,1 km/h (2 Bft) W-SW 245 0 min 0,000 mm 0,0 UV-I 0 W/m 7,7 C 6,9 C 14,5 km/h (3 Bft) 100,00 %
18.03.2017 02:12 8,9 C 92 % 1010,2 hPa 0,0 l/m 9,5 km/h (2 Bft) SW 236 0 min 0,000 mm 0,0 UV-I 0 W/m 7,7 C 6,7 C 14,5 km/h (3 Bft) 96,23 %
18.03.2017 02:14 8,9 C 93 % 1010,1 hPa 0,0 l/m 8,9 km/h (2 Bft) W-SW 254 0 min 0,000 mm 0,0 UV-I 0 W/m 7,8 C 7,1 C 12,9 km/h (3 Bft) 98,00 %
18.03.2017 02:16 8,9 C 93 % 1010,1 hPa 0,0 l/m 8,0 km/h (2 Bft) W 265 0 min 0,000 mm 0,0 UV-I 0 W/m 7,8 C 7,7 C 12,9 km/h (3 Bft) 100,00 %
18.03.2017 02:18 8,9 C 93 % 1010,0 hPa 0,0 l/m 10,9 km/h (2 Bft) W-SW 253 0 min 0,000 mm 0,0 UV-I 0 W/m 7,8 C 5,9 C 16,1 km/h (3 Bft) 97,56 %
18.03.2017 02:20 8,9 C 93 % 1010,0 hPa 0,0 l/m 8,4 km/h (2 Bft) W-SW 239 0 min 0,000 mm 0,0 UV-I 0 W/m 7,8 C 7,4 C 11,3 km/h (2 Bft) 98,00 %
18.03.2017 02:22 8,9 C 93 % 1009,9 hPa 0,0 l/m 7,3 km/h (2 Bft) W-SW 257 0 min 0,000 mm 0,0 UV-I 0 W/m 7,8 C 8,2 C 14,5 km/h (3 Bft) 97,73 %
18.03.2017 02:24 8,9 C 93 % 1009,9 hPa 0,0 l/m 7,8 km/h (2 Bft) SW 223 0 min 0,000 mm 0,0 UV-I 0 W/m 7,8 C 7,8 C 11,3 km/h (2 Bft) 100,00 %
18.03.2017 02:26 8,9 C 93 % 1009,9 hPa 0,0 l/m 10,5 km/h (2 Bft) W 268 0 min 0,000 mm 0,0 UV-I 0 W/m 7,8 C 6,1 C 14,5 km/h (3 Bft) 98,11 %
18.03.2017 02:28 8,9 C 93 % 1009,7 hPa 0,0 l/m 7,7 km/h (2 Bft) W-SW 240 0 min 0,000 mm 0,0 UV-I 0 W/m 7,8 C 7,9 C 14,5 km/h (3 Bft) 100,00 %
18.03.2017 02:30 8,9 C 93 % 1009,6 hPa 0,0 l/m 8,5 km/h (2 Bft) W 263 0 min 0,000 mm 0,0 UV-I 0 W/m 7,8 C 7,3 C 14,5 km/h (3 Bft) 100,00 %
18.03.2017 02:32 8,9 C 93 % 1009,5 hPa 0,0 l/m 6,5 km/h (2 Bft) SW 219 0 min 0,000 mm 0,0 UV-I 0 W/m 7,8 C 8,9 C 9,7 km/h (2 Bft) 100,00 %
18.03.2017 02:34 8,9 C 93 % 1009,4 hPa 0,0 l/m 7,7 km/h (2 Bft) SW 223 0 min 0,000 mm 0,0 UV-I 0 W/m 7,8 C 7,9 C 11,3 km/h (2 Bft) 100,00 %
18.03.2017 02:36 8,9 C 93 % 1009,4 hPa 0,0 l/m 7,2 km/h (2 Bft) SW 235 0 min 0,000 mm 0,0 UV-I 0 W/m 7,8 C 8,3 C 11,3 km/h (2 Bft) 98,31 %
18.03.2017 02:38 8,9 C 93 % 1009,3 hPa 0,0 l/m 8,1 km/h (2 Bft) SW 221 0 min 0,000 mm 0,0 UV-I 0 W/m 7,8 C 7,6 C 12,9 km/h (3 Bft) 100,00 %
18.03.2017 02:40 8,9 C 93 % 1009,2 hPa 0,0 l/m 8,6 km/h (2 Bft) SW 225 0 min 0,000 mm 0,0 UV-I 0 W/m 7,8 C 7,3 C 11,3 km/h (2 Bft) 98,00 %
18.03.2017 02:42 8,9 C 93 % 1009,2 hPa 0,0 l/m 7,5 km/h (2 Bft) SW 224 0 min 0,000 mm 0,0 UV-I 0 W/m 7,8 C 8,1 C 9,7 km/h (2 Bft) 98,00 %
18.03.2017 02:44 8,9 C 93 % 1009,1 hPa 0,0 l/m 7,5 km/h (2 Bft) W-SW 246 0 min 0,000 mm 0,0 UV-I 0 W/m 7,8 C 8,1 C 12,9 km/h (3 Bft) 94,74 %
18.03.2017 02:46 8,9 C 93 % 1009,1 hPa 0,0 l/m 9,2 km/h (2 Bft) W 264 0 min 0,000 mm 0,0 UV-I 0 W/m 7,8 C 6,9 C 14,5 km/h (3 Bft) 98,11 %
18.03.2017 02:48 8,9 C 93 % 1009,0 hPa 0,0 l/m 6,9 km/h (2 Bft) SW 234 0 min 0,000 mm 0,0 UV-I 0 W/m 7,8 C 8,5 C 11,3 km/h (2 Bft) 95,45 %
18.03.2017 02:50 8,9 C 93 % 1009,0 hPa 0,0 l/m 8,4 km/h (2 Bft) W-SW 241 0 min 0,000 mm 0,0 UV-I 0 W/m 7,8 C 7,4 C 14,5 km/h (3 Bft) 96,23 %
18.03.2017 02:52 8,9 C 93 % 1008,9 hPa 0,0 l/m 7,9 km/h (2 Bft) W-SW 254 0 min 0,000 mm 0,0 UV-I 0 W/m 7,8 C 7,8 C 12,9 km/h (3 Bft) 95,12 %
18.03.2017 02:54 8,9 C 93 % 1008,9 hPa 0,0 l/m 8,7 km/h (2 Bft) W-SW 247 0 min 0,000 mm 0,0 UV-I 0 W/m 7,8 C 7,2 C 14,5 km/h (3 Bft) 96,23 %
18.03.2017 02:56 8,9 C 93 % 1008,9 hPa 0,0 l/m 9,3 km/h (2 Bft) W-SW 240 0 min 0,000 mm 0,0 UV-I 0 W/m 7,8 C 6,8 C 14,5 km/h (3 Bft) 94,29 %
18.03.2017 02:58 8,9 C 93 % 1008,9 hPa 0,0 l/m 8,7 km/h (2 Bft) S 190 0 min 0,000 mm 0,0 UV-I 0 W/m 7,8 C 7,2 C 12,9 km/h (3 Bft) 96,23 %
18.03.2017 03:00 8,9 C 93 % 1008,7 hPa 0,0 l/m 8,3 km/h (2 Bft) S 187 0 min 0,000 mm 0,0 UV-I 0 W/m 7,8 C 7,5 C 12,9 km/h (3 Bft) 95,45 %
18.03.2017 03:02 8,9 C 93 % 1008,7 hPa 0,0 l/m 6,0 km/h (2 Bft) W-SW 238 0 min 0,000 mm 0,0 UV-I 0 W/m 7,8 C 8,9 C 8,0 km/h (2 Bft) 93,62 %
18.03.2017 03:04 8,9 C 93 % 1008,6 hPa 0,0 l/m 6,3 km/h (2 Bft) SW 223 0 min 0,000 mm 0,0 UV-I 0 W/m 7,8 C 8,9 C 14,5 km/h (3 Bft) 96,23 %
18.03.2017 03:06 8,9 C 93 % 1008,6 hPa 0,0 l/m 6,3 km/h (2 Bft) S-SW 213 0 min 0,000 mm 0,0 UV-I 0 W/m 7,8 C 8,9 C 9,7 km/h (2 Bft) 95,45 %
18.03.2017 03:08 8,9 C 93 % 1008,6 hPa 0,0 l/m 7,2 km/h (2 Bft) S-SW 213 0 min 0,000 mm 0,0 UV-I 0 W/m 7,8 C 8,3 C 9,7 km/h (2 Bft) 92,31 %
18.03.2017 03:10 9,0 C 93 % 1008,6 hPa 0,0 l/m 5,9 km/h (2 Bft) W-SW 240 0 min 0,000 mm 0,0 UV-I 0 W/m 7,9 C 9,0 C 9,7 km/h (2 Bft) 98,18 %
18.03.2017 03:12 9,0 C 93 % 1008,6 hPa 0,0 l/m 7,9 km/h (2 Bft) SW 232 0 min 0,000 mm 0,0 UV-I 0 W/m 7,9 C 7,9 C 11,3 km/h (2 Bft) 94,44 %
18.03.2017 03:14 9,0 C 93 % 1008,6 hPa 0,0 l/m 7,7 km/h (2 Bft) SW 233 0 min 0,000 mm 0,0 UV-I 0 W/m 7,9 C 8,0 C 11,3 km/h (2 Bft) 98,11 %
18.03.2017 03:16 9,0 C 93 % 1008,5 hPa 0,0 l/m 7,9 km/h (2 Bft) W-SW 239 0 min 0,000 mm 0,0 UV-I 0 W/m 7,9 C 7,9 C 12,9 km/h (3 Bft) 96,00 %
18.03.2017 03:18 9,0 C 93 % 1008,5 hPa 0,0 l/m 10,5 km/h (2 Bft) SW 219 0 min 0,000 mm 0,0 UV-I 0 W/m 7,9 C 6,2 C 16,1 km/h (3 Bft) 98,00 %
18.03.2017 03:20 9,1 C 93 % 1008,4 hPa 0,0 l/m 9,2 km/h (2 Bft) W-SW 243 0 min 0,000 mm 0,0 UV-I 0 W/m 8,0 C 7,1 C 14,5 km/h (3 Bft) 97,73 %
18.03.2017 03:22 9,1 C 92 % 1008,4 hPa 0,0 l/m 9,1 km/h (2 Bft) SW 229 0 min 0,000 mm 0,0 UV-I 0 W/m 7,9 C 7,2 C 14,5 km/h (3 Bft) 97,73 %
18.03.2017 03:24 9,1 C 92 % 1008,2 hPa 0,0 l/m 13,5 km/h (3 Bft) W-SW 246 0 min 0,000 mm 0,0 UV-I 0 W/m 7,9 C 4,7 C 19,3 km/h (3 Bft) 97,73 %
18.03.2017 03:26 9,1 C 92 % 1008,2 hPa 0,0 l/m 11,6 km/h (2 Bft) SW 234 0 min 0,000 mm 0,0 UV-I 0 W/m 7,9 C 5,7 C 16,1 km/h (3 Bft) 96,00 %
18.03.2017 03:28 9,2 C 91 % 1008,2 hPa 0,0 l/m 11,6 km/h (2 Bft) W-SW 241 0 min 0,000 mm 0,0 UV-I 0 W/m 7,8 C 5,8 C 19,3 km/h (3 Bft) 95,74 %
18.03.2017 03:30 9,2 C 91 % 1008,1 hPa 0,0 l/m 13,3 km/h (3 Bft) W-SW 242 0 min 0,000 mm 0,0 UV-I 0 W/m 7,8 C 4,9 C 17,7 km/h (3 Bft) 94,34 %
18.03.2017 03:32 9,2 C 91 % 1008,1 hPa 0,0 l/m 13,2 km/h (3 Bft) SW 226 0 min 0,000 mm 0,0 UV-I 0 W/m 7,8 C 5,0 C 17,7 km/h (3 Bft) 94,29 %
18.03.2017 03:34 9,2 C 90 % 1008,0 hPa 0,0 l/m 11,6 km/h (2 Bft) W-SW 250 0 min 0,000 mm 0,0 UV-I 0 W/m 7,6 C 5,8 C 17,7 km/h (3 Bft) 94,34 %
18.03.2017 03:36 9,2 C 90 % 1008,0 hPa 0,0 l/m 12,3 km/h (3 Bft) SW 217 0 min 0,000 mm 0,0 UV-I 0 W/m 7,6 C 5,4 C 19,3 km/h (3 Bft) 92,68 %
18.03.2017 03:38 9,2 C 89 % 1007,9 hPa 0,0 l/m 13,4 km/h (3 Bft) W-SW 244 0 min 0,000 mm 0,0 UV-I 0 W/m 7,5 C 4,9 C 24,1 km/h (4 Bft) 94,64 %
18.03.2017 03:40 9,2 C 89 % 1007,9 hPa 0,0 l/m 10,7 km/h (2 Bft) SW 231 0 min 0,000 mm 0,0 UV-I 0 W/m 7,5 C 6,3 C 17,7 km/h (3 Bft) 92,00 %
18.03.2017 03:42 9,2 C 89 % 1007,9 hPa 0,0 l/m 10,9 km/h (2 Bft) SW 217 0 min 0,000 mm 0,0 UV-I 0 W/m 7,5 C 6,2 C 16,1 km/h (3 Bft) 97,14 %
18.03.2017 03:44 9,2 C 89 % 1007,9 hPa 0,0 l/m 11,7 km/h (2 Bft) W-SW 248 0 min 0,000 mm 0,0 UV-I 0 W/m 7,5 C 5,8 C 17,7 km/h (3 Bft) 92,86 %
18.03.2017 03:46 9,2 C 88 % 1007,8 hPa 0,0 l/m 9,9 km/h (2 Bft) W-SW 244 0 min 0,000 mm 0,0 UV-I 0 W/m 7,3 C 6,8 C 14,5 km/h (3 Bft) 95,24 %
18.03.2017 03:48 9,2 C 88 % 1007,7 hPa 0,0 l/m 12,1 km/h (2 Bft) W 273 0 min 0,000 mm 0,0 UV-I 0 W/m 7,3 C 5,5 C 19,3 km/h (3 Bft) 93,18 %
18.03.2017 03:50 9,2 C 88 % 1007,8 hPa 0,0 l/m 9,9 km/h (2 Bft) W-SW 254 0 min 0,000 mm 0,0 UV-I 0 W/m 7,3 C 6,8 C 14,5 km/h (3 Bft) 92,86 %
18.03.2017 03:52 9,1 C 88 % 1007,8 hPa 0,0 l/m 10,4 km/h (2 Bft) W-SW 241 0 min 0,000 mm 0,0 UV-I 0 W/m 7,2 C 6,4 C 16,1 km/h (3 Bft) 93,18 %
18.03.2017 03:54 9,1 C 88 % 1007,8 hPa 0,0 l/m 10,5 km/h (2 Bft) W-SW 255 0 min 0,000 mm 0,0 UV-I 0 W/m 7,2 C 6,3 C 16,1 km/h (3 Bft) 93,62 %
18.03.2017 03:56 9,1 C 88 % 1007,7 hPa 0,0 l/m 11,6 km/h (2 Bft) W-SW 252 0 min 0,000 mm 0,0 UV-I 0 W/m 7,2 C 5,7 C 16,1 km/h (3 Bft) 98,11 %
18.03.2017 03:58 9,0 C 87 % 1007,7 hPa 0,0 l/m 11,0 km/h (2 Bft) W-SW 252 0 min 0,000 mm 0,0 UV-I 0 W/m 7,0 C 5,9 C 14,5 km/h (3 Bft) 95,12 %
18.03.2017 04:00 8,9 C 87 % 1007,6 hPa 0,0 l/m 9,9 km/h (2 Bft) SW 231 0 min 0,000 mm 0,0 UV-I 0 W/m 6,9 C 6,4 C 16,1 km/h (3 Bft) 97,56 %
18.03.2017 04:02 8,9 C 87 % 1007,6 hPa 0,0 l/m 8,8 km/h (2 Bft) W-SW 253 0 min 0,000 mm 0,0 UV-I 0 W/m 6,9 C 7,1 C 12,9 km/h (3 Bft) 87,50 %
18.03.2017 04:04 8,9 C 87 % 1007,5 hPa 0,0 l/m 10,5 km/h (2 Bft) S-SW 205 0 min 0,000 mm 0,0 UV-I 0 W/m 6,9 C 6,1 C 16,1 km/h (3 Bft) 98,21 %
18.03.2017 04:06 8,9 C 87 % 1007,5 hPa 0,0 l/m 16,5 km/h (3 Bft) W-SW 246 0 min 0,000 mm 0,0 UV-I 0 W/m 6,9 C 3,2 C 24,1 km/h (4 Bft) 97,73 %
18.03.2017 04:08 9,0 C 86 % 1007,5 hPa 0,0 l/m 12,9 km/h (3 Bft) W 271 0 min 0,000 mm 0,0 UV-I 0 W/m 6,8 C 4,9 C 17,7 km/h (3 Bft) 100,00 %
18.03.2017 04:10 9,1 C 86 % 1007,5 hPa 0,0 l/m 12,2 km/h (2 Bft) W-SW 254 0 min 0,000 mm 0,0 UV-I 0 W/m 6,9 C 5,4 C 19,3 km/h (3 Bft) 100,00 %
18.03.2017 04:12 9,1 C 86 % 1007,3 hPa 0,0 l/m 12,3 km/h (3 Bft) W-SW 249 0 min 0,000 mm 0,0 UV-I 0 W/m 6,9 C 5,3 C 17,7 km/h (3 Bft) 98,21 %
18.03.2017 04:14 9,1 C 86 % 1007,3 hPa 0,0 l/m 13,5 km/h (3 Bft) W-SW 246 0 min 0,000 mm 0,0 UV-I 0 W/m 6,9 C 4,7 C 20,9 km/h (4 Bft) 100,00 %
18.03.2017 04:16 9,1 C 85 % 1007,2 hPa 0,0 l/m 13,6 km/h (3 Bft) W 265 0 min 0,000 mm 0,0 UV-I 0 W/m 6,7 C 4,7 C 19,3 km/h (3 Bft) 98,00 %
18.03.2017 04:18 9,1 C 85 % 1007,2 hPa 0,0 l/m 11,5 km/h (2 Bft) W-SW 237 0 min 0,000 mm 0,0 UV-I 0 W/m 6,7 C 5,7 C 17,7 km/h (3 Bft) 100,00 %
18.03.2017 04:20 9,1 C 85 % 1007,2 hPa 0,0 l/m 11,5 km/h (2 Bft) W-SW 240 0 min 0,000 mm 0,0 UV-I 0 W/m 6,7 C 5,7 C 16,1 km/h (3 Bft) 98,00 %
18.03.2017 04:22 9,1 C 85 % 1007,2 hPa 0,0 l/m 10,8 km/h (2 Bft) SW 223 0 min 0,000 mm 0,0 UV-I 0 W/m 6,7 C 6,1 C 19,3 km/h (3 Bft) 100,00 %
18.03.2017 04:24 9,1 C 85 % 1007,2 hPa 0,0 l/m 12,8 km/h (3 Bft) SW 234 0 min 0,000 mm 0,0 UV-I 0 W/m 6,7 C 5,1 C 17,7 km/h (3 Bft) 97,56 %
18.03.2017 04:26 9,1 C 85 % 1007,2 hPa 0,0 l/m 11,5 km/h (2 Bft) SW 226 0 min 0,000 mm 0,0 UV-I 0 W/m 6,7 C 5,7 C 19,3 km/h (3 Bft) 98,11 %
18.03.2017 04:28 9,1 C 85 % 1007,2 hPa 0,0 l/m 10,1 km/h (2 Bft) W 259 0 min 0,000 mm 0,0 UV-I 0 W/m 6,7 C 6,5 C 12,9 km/h (3 Bft) 100,00 %
18.03.2017 04:30 9,0 C 85 % 1007,3 hPa 0,0 l/m 13,3 km/h (3 Bft) W 262 0 min 0,000 mm 0,0 UV-I 0 W/m 6,6 C 4,7 C 17,7 km/h (3 Bft) 97,62 %
18.03.2017 04:32 9,0 C 85 % 1007,4 hPa 0,0 l/m 13,8 km/h (3 Bft) W-SW 253 0 min 0,000 mm 0,0 UV-I 0 W/m 6,6 C 4,5 C 19,3 km/h (3 Bft) 96,00 %
18.03.2017 04:34 9,0 C 85 % 1007,4 hPa 0,0 l/m 11,9 km/h (2 Bft) SW 222 0 min 0,000 mm 0,0 UV-I 0 W/m 6,6 C 5,4 C 16,1 km/h (3 Bft) 98,11 %
18.03.2017 04:36 8,9 C 85 % 1007,5 hPa 0,0 l/m 10,9 km/h (2 Bft) W-SW 238 0 min 0,000 mm 0,0 UV-I 0 W/m 6,5 C 5,9 C 16,1 km/h (3 Bft) 100,00 %
18.03.2017 04:38 8,9 C 85 % 1007,4 hPa 0,0 l/m 13,4 km/h (3 Bft) W 274 0 min 0,000 mm 0,0 UV-I 0 W/m 6,5 C 4,5 C 19,3 km/h (3 Bft) 98,00 %
18.03.2017 04:40 8,9 C 85 % 1007,4 hPa 0,0 l/m 14,1 km/h (3 Bft) W-SW 246 0 min 0,000 mm 0,0 UV-I 0 W/m 6,5 C 4,2 C 20,9 km/h (4 Bft) 97,56 %
18.03.2017 04:42 8,9 C 85 % 1007,3 hPa 0,0 l/m 11,3 km/h (2 Bft) W-SW 258 0 min 0,000 mm 0,0 UV-I 0 W/m 6,5 C 5,6 C 16,1 km/h (3 Bft) 100,00 %
18.03.2017 04:44 8,9 C 85 % 1007,3 hPa 0,0 l/m 10,9 km/h (2 Bft) W 269 0 min 0,000 mm 0,0 UV-I 0 W/m 6,5 C 5,9 C 14,5 km/h (3 Bft) 97,14 %
18.03.2017 04:46 8,9 C 85 % 1007,3 hPa 0,0 l/m 11,6 km/h (2 Bft) W 273 0 min 0,000 mm 0,0 UV-I 0 W/m 6,5 C 5,5 C 14,5 km/h (3 Bft) 100,00 %
18.03.2017 04:48 8,9 C 85 % 1007,3 hPa 0,0 l/m 10,7 km/h (2 Bft) W 272 0 min 0,000 mm 0,0 UV-I 0 W/m 6,5 C 6,0 C 14,5 km/h (3 Bft) 96,92 %
18.03.2017 04:50 8,9 C 85 % 1007,4 hPa 0,0 l/m 9,9 km/h (2 Bft) W-SW 249 0 min 0,000 mm 0,0 UV-I 0 W/m 6,5 C 6,4 C 14,5 km/h (3 Bft) 97,56 %
18.03.2017 04:52 8,9 C 85 % 1007,3 hPa 0,0 l/m 7,5 km/h (2 Bft) SW 235 0 min 0,000 mm 0,0 UV-I 0 W/m 6,5 C 8,1 C 11,3 km/h (2 Bft) 98,00 %
18.03.2017 04:54 8,9 C 85 % 1007,3 hPa 0,0 l/m 10,3 km/h (2 Bft) W-SW 248 0 min 0,000 mm 0,0 UV-I 0 W/m 6,5 C 6,2 C 12,9 km/h (3 Bft) 97,73 %
18.03.2017 04:56 8,9 C 85 % 1007,3 hPa 0,0 l/m 7,8 km/h (2 Bft) W-SW 255 0 min 0,000 mm 0,0 UV-I 0 W/m 6,5 C 7,8 C 11,3 km/h (2 Bft) 97,73 %
18.03.2017 04:58 8,8 C 86 % 1007,3 hPa 0,0 l/m 8,3 km/h (2 Bft) W 264 0 min 0,000 mm 0,0 UV-I 0 W/m 6,6 C 7,4 C 12,9 km/h (3 Bft) 100,00 %
18.03.2017 05:00 8,8 C 86 % 1007,2 hPa 0,0 l/m 7,6 km/h (2 Bft) W-SW 241 0 min 0,025 mm 0,0 UV-I 0 W/m 6,6 C 7,9 C 11,3 km/h (2 Bft) 100,00 %
18.03.2017 05:02 8,8 C 86 % 1007,2 hPa 0,0 l/m 6,3 km/h (2 Bft) SW 225 0 min 0,000 mm 0,0 UV-I 0 W/m 6,6 C 8,8 C 11,3 km/h (2 Bft) 100,00 %
18.03.2017 05:04 8,8 C 86 % 1007,2 hPa 0,0 l/m 7,8 km/h (2 Bft) SW 230 0 min 0,000 mm 0,0 UV-I 0 W/m 6,6 C 7,7 C 11,3 km/h (2 Bft) 100,00 %
18.03.2017 05:06 8,8 C 86 % 1007,2 hPa 0,0 l/m 6,6 km/h (2 Bft) W-SW 248 0 min 0,000 mm 0,0 UV-I 0 W/m 6,6 C 8,7 C 9,7 km/h (2 Bft) 100,00 %
18.03.2017 05:08 8,8 C 86 % 1007,2 hPa 0,0 l/m 8,9 km/h (2 Bft) W-SW 238 0 min 0,000 mm 0,0 UV-I 0 W/m 6,6 C 7,0 C 14,5 km/h (3 Bft) 100,00 %
18.03.2017 05:10 8,8 C 86 % 1007,2 hPa 0,0 l/m 10,0 km/h (2 Bft) W-SW 238 0 min 0,000 mm 0,0 UV-I 0 W/m 6,6 C 6,3 C 16,1 km/h (3 Bft) 97,87 %
18.03.2017 05:12 8,8 C 86 % 1007,2 hPa 0,0 l/m 9,2 km/h (2 Bft) SW 227 0 min 0,000 mm 0,0 UV-I 0 W/m 6,6 C 6,8 C 12,9 km/h (3 Bft) 100,00 %
18.03.2017 05:14 8,7 C 86 % 1007,2 hPa 0,0 l/m 7,0 km/h (2 Bft) W-SW 237 0 min 0,000 mm 0,0 UV-I 0 W/m 6,5 C 8,2 C 8,0 km/h (2 Bft) 97,37 %
18.03.2017 05:16 8,7 C 87 % 1007,3 hPa 0,0 l/m 7,3 km/h (2 Bft) W-SW 252 0 min 0,000 mm 0,0 UV-I 0 W/m 6,7 C 8,0 C 11,3 km/h (2 Bft) 98,31 %
18.03.2017 05:18 8,7 C 87 % 1007,3 hPa 0,0 l/m 8,0 km/h (2 Bft) W-SW 258 0 min 0,000 mm 0,0 UV-I 0 W/m 6,7 C 7,5 C 12,9 km/h (3 Bft) 97,56 %
18.03.2017 05:20 8,7 C 87 % 1007,3 hPa 0,0 l/m 9,5 km/h (2 Bft) W 263 0 min 0,000 mm 0,0 UV-I 0 W/m 6,7 C 6,5 C 12,9 km/h (3 Bft) 97,87 %
18.03.2017 05:22 8,7 C 87 % 1007,3 hPa 0,0 l/m 7,4 km/h (2 Bft) W-SW 243 0 min 0,000 mm 0,0 UV-I 0 W/m 6,7 C 7,9 C 11,3 km/h (2 Bft) 98,00 %
18.03.2017 05:24 8,6 C 87 % 1007,2 hPa 0,0 l/m 7,8 km/h (2 Bft) W-SW 250 0 min 0,000 mm 0,0 UV-I 0 W/m 6,6 C 7,5 C 12,9 km/h (3 Bft) 98,11 %
18.03.2017 05:26 8,6 C 88 % 1007,2 hPa 0,0 l/m 8,2 km/h (2 Bft) W-SW 252 0 min 0,000 mm 0,0 UV-I 0 W/m 6,7 C 7,2 C 11,3 km/h (2 Bft) 97,56 %
18.03.2017 05:28 8,6 C 88 % 1007,2 hPa 0,0 l/m 6,6 km/h (2 Bft) SW 234 0 min 0,000 mm 0,0 UV-I 0 W/m 6,7 C 8,5 C 11,3 km/h (2 Bft) 100,00 %
18.03.2017 05:30 8,6 C 88 % 1007,3 hPa 0,0 l/m 6,9 km/h (2 Bft) W-SW 246 0 min 0,000 mm 0,0 UV-I 0 W/m 6,7 C 8,2 C 9,7 km/h (2 Bft) 98,00 %
18.03.2017 05:32 8,6 C 88 % 1007,2 hPa 0,0 l/m 9,8 km/h (2 Bft) W-SW 257 0 min 0,000 mm 0,0 UV-I 0 W/m 6,7 C 6,2 C 14,5 km/h (3 Bft) 100,00 %
18.03.2017 05:34 8,6 C 88 % 1007,1 hPa 0,0 l/m 8,9 km/h (2 Bft) W-SW 242 0 min 0,000 mm 0,0 UV-I 0 W/m 6,7 C 6,8 C 12,9 km/h (3 Bft) 97,56 %
18.03.2017 05:36 8,6 C 88 % 1007,2 hPa 0,0 l/m 9,5 km/h (2 Bft) SW 229 0 min 0,000 mm 0,0 UV-I 0 W/m 6,7 C 6,4 C 14,5 km/h (3 Bft) 98,46 %
18.03.2017 05:38 8,6 C 87 % 1007,1 hPa 0,0 l/m 11,6 km/h (2 Bft) W 264 0 min 0,000 mm 0,0 UV-I 0 W/m 6,6 C 5,1 C 22,5 km/h (4 Bft) 94,74 %
18.03.2017 05:40 8,6 C 87 % 1007,1 hPa 0,0 l/m 9,8 km/h (2 Bft) W-SW 239 0 min 0,000 mm 0,0 UV-I 0 W/m 6,6 C 6,2 C 14,5 km/h (3 Bft) 96,23 %
18.03.2017 05:42 8,6 C 87 % 1007,3 hPa 0,0 l/m 11,7 km/h (2 Bft) W-SW 240 0 min 0,000 mm 0,0 UV-I 0 W/m 6,6 C 5,1 C 16,1 km/h (3 Bft) 94,74 %
18.03.2017 05:44 8,6 C 87 % 1007,3 hPa 0,0 l/m 11,3 km/h (2 Bft) W 262 0 min 0,000 mm 0,0 UV-I 0 W/m 6,6 C 5,3 C 17,7 km/h (3 Bft) 94,64 %
18.03.2017 05:46 8,6 C 87 % 1007,3 hPa 0,0 l/m 11,4 km/h (2 Bft) W-SW 242 0 min 0,000 mm 0,0 UV-I 0 W/m 6,6 C 5,2 C 16,1 km/h (3 Bft) 97,87 %
18.03.2017 05:48 8,7 C 86 % 1007,4 hPa 0,0 l/m 9,3 km/h (2 Bft) W-SW 255 0 min 0,000 mm 0,0 UV-I 0 W/m 6,5 C 6,6 C 14,5 km/h (3 Bft) 95,24 %
18.03.2017 05:50 8,7 C 86 % 1007,4 hPa 0,0 l/m 10,1 km/h (2 Bft) W 273 0 min 0,000 mm 0,0 UV-I 0 W/m 6,5 C 6,1 C 14,5 km/h (3 Bft) 94,23 %
18.03.2017 05:52 8,7 C 86 % 1007,4 hPa 0,0 l/m 11,3 km/h (2 Bft) W-SW 253 0 min 0,000 mm 0,0 UV-I 0 W/m 6,5 C 5,4 C 16,1 km/h (3 Bft) 97,44 %
18.03.2017 05:54 8,7 C 85 % 1007,4 hPa 0,0 l/m 21,2 km/h (4 Bft) W 267 0 min 0,000 mm 0,0 UV-I 0 W/m 6,3 C 1,2 C 30,6 km/h (5 Bft) 98,11 %
18.03.2017 05:56 8,7 C 84 % 1007,4 hPa 0,0 l/m 15,4 km/h (3 Bft) W-SW 256 0 min 0,000 mm 0,0 UV-I 0 W/m 6,2 C 3,4 C 20,9 km/h (4 Bft) 95,65 %
18.03.2017 05:58 8,7 C 83 % 1007,3 hPa 0,0 l/m 17,8 km/h (3 Bft) W-SW 257 0 min 0,000 mm 0,0 UV-I 0 W/m 6,0 C 2,4 C 32,2 km/h (5 Bft) 97,06 %
18.03.2017 06:00 8,8 C 83 % 1007,4 hPa 0,0 l/m 18,7 km/h (3 Bft) W 273 0 min 0,000 mm 0,0 UV-I 0 W/m 6,1 C 2,2 C 29,0 km/h (5 Bft) 97,56 %
18.03.2017 06:02 8,8 C 82 % 1007,4 hPa 0,0 l/m 15,0 km/h (3 Bft) W-SW 248 0 min 0,026 mm 0,0 UV-I 0 W/m 5,9 C 3,7 C 24,1 km/h (4 Bft) 94,34 %
18.03.2017 06:04 8,8 C 82 % 1007,5 hPa 0,0 l/m 13,6 km/h (3 Bft) W-SW 252 0 min 0,000 mm 0,0 UV-I 0 W/m 5,9 C 4,3 C 24,1 km/h (4 Bft) 97,56 %
18.03.2017 06:06 8,8 C 82 % 1007,6 hPa 0,0 l/m 17,3 km/h (3 Bft) SW 232 0 min 0,000 mm 0,0 UV-I 0 W/m 5,9 C 2,7 C 27,4 km/h (4 Bft) 97,73 %
18.03.2017 06:08 8,8 C 82 % 1007,6 hPa 0,0 l/m 17,7 km/h (3 Bft) W 269 0 min 0,000 mm 0,0 UV-I 0 W/m 5,9 C 2,6 C 30,6 km/h (5 Bft) 94,00 %
18.03.2017 06:10 8,8 C 81 % 1007,6 hPa 0,0 l/m 15,0 km/h (3 Bft) W 260 0 min 0,000 mm 0,0 UV-I 0 W/m 5,7 C 3,7 C 22,5 km/h (4 Bft) 95,45 %
18.03.2017 06:12 8,8 C 81 % 1007,6 hPa 0,0 l/m 13,5 km/h (3 Bft) W-SW 249 0 min 0,000 mm 0,0 UV-I 0 W/m 5,7 C 4,4 C 25,7 km/h (4 Bft) 98,31 %
18.03.2017 06:14 8,8 C 81 % 1007,4 hPa 0,0 l/m 17,7 km/h (3 Bft) W-SW 251 0 min 0,000 mm 0,0 UV-I 4 W/m 5,7 C 2,6 C 27,4 km/h (4 Bft) 97,87 %
18.03.2017 06:16 8,8 C 81 % 1007,4 hPa 0,0 l/m 14,6 km/h (3 Bft) W-SW 244 0 min 0,000 mm 0,0 UV-I 5 W/m 5,7 C 3,9 C 22,5 km/h (4 Bft) 100,00 %
18.03.2017 06:18 8,8 C 81 % 1007,4 hPa 0,0 l/m 17,7 km/h (3 Bft) W 273 0 min 0,000 mm 0,0 UV-I 5 W/m 5,7 C 2,6 C 25,7 km/h (4 Bft) 97,37 %
18.03.2017 06:20 8,8 C 81 % 1007,6 hPa 0,0 l/m 16,5 km/h (3 Bft) W 260 0 min 0,000 mm 0,0 UV-I 5 W/m 5,7 C 3,0 C 25,7 km/h (4 Bft) 98,31 %
18.03.2017 06:22 8,8 C 80 % 1007,7 hPa 0,0 l/m 16,3 km/h (3 Bft) W-SW 257 0 min 0,000 mm 0,0 UV-I 5 W/m 5,5 C 3,1 C 29,0 km/h (5 Bft) 96,00 %
18.03.2017 06:24 8,8 C 81 % 1007,7 hPa 0,0 l/m 14,6 km/h (3 Bft) W 280 0 min 0,000 mm 0,0 UV-I 5 W/m 5,7 C 3,9 C 25,7 km/h (4 Bft) 97,73 %
18.03.2017 06:26 8,8 C 81 % 1007,7 hPa 0,0 l/m 15,7 km/h (3 Bft) W 263 0 min 0,000 mm 0,0 UV-I 5 W/m 5,7 C 3,4 C 29,0 km/h (5 Bft) 97,62 %
18.03.2017 06:28 8,7 C 81 % 1007,6 hPa 0,0 l/m 20,3 km/h (4 Bft) W 259 0 min 0,000 mm 0,0 UV-I 7 W/m 5,6 C 1,5 C 30,6 km/h (5 Bft) 98,08 %
18.03.2017 06:30 8,7 C 81 % 1007,5 hPa 0,0 l/m 16,1 km/h (3 Bft) W-SW 252 0 min 0,000 mm 0,0 UV-I 10 W/m 5,6 C 3,1 C 32,2 km/h (5 Bft) 94,87 %
18.03.2017 06:32 8,7 C 81 % 1007,6 hPa 0,0 l/m 17,6 km/h (3 Bft) W 265 0 min 0,000 mm 0,0 UV-I 10 W/m 5,6 C 2,5 C 32,2 km/h (5 Bft) 96,43 %
18.03.2017 06:34 8,7 C 81 % 1007,7 hPa 0,0 l/m 15,4 km/h (3 Bft) W-SW 250 0 min 0,000 mm 0,0 UV-I 12 W/m 5,6 C 3,4 C 27,4 km/h (4 Bft) 100,00 %
18.03.2017 06:36 8,7 C 81 % 1007,5 hPa 0,0 l/m 13,4 km/h (3 Bft) W-NW 284 0 min 0,000 mm 0,0 UV-I 14 W/m 5,6 C 4,3 C 20,9 km/h (4 Bft) 89,47 %
18.03.2017 06:38 8,7 C 81 % 1007,4 hPa 0,0 l/m 15,3 km/h (3 Bft) W-SW 257 0 min 0,000 mm 0,0 UV-I 16 W/m 5,6 C 3,4 C 25,7 km/h (4 Bft) 100,00 %
18.03.2017 06:40 8,7 C 81 % 1007,3 hPa 0,0 l/m 11,9 km/h (2 Bft) W-SW 258 0 min 0,000 mm 0,0 UV-I 16 W/m 5,6 C 5,1 C 22,5 km/h (4 Bft) 96,00 %
18.03.2017 06:42 8,6 C 82 % 1007,3 hPa 0,0 l/m 9,5 km/h (2 Bft) W-SW 250 0 min 0,000 mm 0,0 UV-I 16 W/m 5,7 C 6,4 C 16,1 km/h (3 Bft) 98,00 %
18.03.2017 06:44 8,6 C 82 % 1007,5 hPa 0,0 l/m 15,4 km/h (3 Bft) W 269 0 min 0,000 mm 0,0 UV-I 16 W/m 5,7 C 3,3 C 25,7 km/h (4 Bft) 94,74 %
18.03.2017 06:46 8,6 C 82 % 1007,4 hPa 0,0 l/m 19,5 km/h (3 Bft) W-SW 253 0 min 0,000 mm 0,0 UV-I 17 W/m 5,7 C 1,7 C 32,2 km/h (5 Bft) 97,73 %
18.03.2017 06:48 8,5 C 82 % 1007,3 hPa 0,0 l/m 19,0 km/h (3 Bft) W 268 0 min 0,000 mm 0,0 UV-I 21 W/m 5,6 C 1,7 C 29,0 km/h (5 Bft) 96,61 %
18.03.2017 06:50 8,5 C 82 % 1007,4 hPa 0,0 l/m 15,3 km/h (3 Bft) W-SW 240 0 min 0,000 mm 0,0 UV-I 25 W/m 5,6 C 3,2 C 27,4 km/h (4 Bft) 97,87 %
18.03.2017 06:52 8,4 C 83 % 1007,3 hPa 0,0 l/m 17,7 km/h (3 Bft) W-SW 247 0 min 0,000 mm 0,0 UV-I 26 W/m 5,7 C 2,1 C 24,1 km/h (4 Bft) 97,14 %
18.03.2017 06:54 8,4 C 83 % 1007,3 hPa 0,0 l/m 13,8 km/h (3 Bft) SW 223 0 min 0,000 mm 0,0 UV-I 30 W/m 5,7 C 3,8 C 24,1 km/h (4 Bft) 98,00 %
18.03.2017 06:56 8,4 C 83 % 1007,3 hPa 0,2 l/m 15,9 km/h (3 Bft) W-SW 251 0 min 0,000 mm 0,0 UV-I 30 W/m 5,7 C 2,8 C 22,5 km/h (4 Bft) 95,74 %
18.03.2017 06:58 8,3 C 84 % 1007,3 hPa 0,0 l/m 14,4 km/h (3 Bft) SW 224 0 min 0,000 mm 0,0 UV-I 29 W/m 5,8 C 3,4 C 20,9 km/h (4 Bft) 98,11 %
18.03.2017 07:00 8,3 C 85 % 1007,3 hPa 0,0 l/m 15,2 km/h (3 Bft) W-SW 248 0 min 0,025 mm 0,0 UV-I 26 W/m 5,9 C 3,0 C 20,9 km/h (4 Bft) 100,00 %
18.03.2017 07:02 8,3 C 85 % 1007,2 hPa 0,0 l/m 15,0 km/h (3 Bft) W 259 0 min 0,000 mm 0,0 UV-I 27 W/m 5,9 C 3,1 C 22,5 km/h (4 Bft) 100,00 %
18.03.2017 07:04 8,2 C 85 % 1007,1 hPa 0,0 l/m 17,4 km/h (3 Bft) W 271 0 min 0,000 mm 0,0 UV-I 33 W/m 5,8 C 1,9 C 25,7 km/h (4 Bft) 94,87 %
18.03.2017 07:06 8,2 C 85 % 1007,1 hPa 0,0 l/m 18,8 km/h (3 Bft) W-SW 257 0 min 0,000 mm 0,0 UV-I 33 W/m 5,8 C 1,4 C 25,7 km/h (4 Bft) 90,00 %
18.03.2017 07:08 8,2 C 85 % 1007,1 hPa 0,0 l/m 17,2 km/h (3 Bft) W 263 0 min 0,000 mm 0,0 UV-I 36 W/m 5,8 C 2,0 C 25,7 km/h (4 Bft) 91,49 %
18.03.2017 07:10 8,2 C 86 % 1007,0 hPa 0,0 l/m 13,9 km/h (3 Bft) W-SW 252 0 min 0,000 mm 0,0 UV-I 45 W/m 6,0 C 3,5 C 24,1 km/h (4 Bft) 95,45 %
18.03.2017 07:12 8,2 C 86 % 1006,9 hPa 0,0 l/m 18,0 km/h (3 Bft) W-SW 243 0 min 0,000 mm 0,0 UV-I 52 W/m 6,0 C 1,7 C 27,4 km/h (4 Bft) 96,43 %
18.03.2017 07:14 8,2 C 86 % 1006,9 hPa 0,0 l/m 19,2 km/h (3 Bft) W-SW 243 0 min 0,000 mm 0,0 UV-I 55 W/m 6,0 C 1,2 C 27,4 km/h (4 Bft) 95,74 %
18.03.2017 07:16 8,2 C 86 % 1006,8 hPa 0,0 l/m 15,5 km/h (3 Bft) SW 233 0 min 0,000 mm 0,0 UV-I 50 W/m 6,0 C 2,7 C 24,1 km/h (4 Bft) 93,18 %
18.03.2017 07:18 8,2 C 86 % 1006,8 hPa 0,0 l/m 17,5 km/h (3 Bft) SW 234 0 min 0,000 mm 0,0 UV-I 42 W/m 6,0 C 1,9 C 22,5 km/h (4 Bft) 97,56 %
18.03.2017 07:20 8,2 C 86 % 1006,6 hPa 0,0 l/m 21,0 km/h (4 Bft) W 273 0 min 0,000 mm 0,0 UV-I 34 W/m 6,0 C 0,6 C 29,0 km/h (5 Bft) 96,00 %
18.03.2017 07:22 8,2 C 85 % 1006,7 hPa 0,0 l/m 17,5 km/h (3 Bft) W-SW 258 0 min 0,000 mm 0,0 UV-I 33 W/m 5,8 C 1,9 C 25,7 km/h (4 Bft) 95,74 %
18.03.2017 07:24 8,3 C 85 % 1006,6 hPa 0,0 l/m 18,3 km/h (3 Bft) SW 235 0 min 0,000 mm 0,0 UV-I 31 W/m 5,9 C 1,7 C 25,7 km/h (4 Bft) 97,73 %
18.03.2017 07:26 8,3 C 85 % 1006,6 hPa 0,0 l/m 14,8 km/h (3 Bft) W-SW 252 0 min 0,000 mm 0,0 UV-I 28 W/m 5,9 C 3,2 C 22,5 km/h (4 Bft) 96,23 %
18.03.2017 07:28 8,3 C 85 % 1006,7 hPa 0,0 l/m 16,7 km/h (3 Bft) W-SW 256 0 min 0,000 mm 0,0 UV-I 29 W/m 5,9 C 2,3 C 22,5 km/h (4 Bft) 97,56 %
18.03.2017 07:30 8,3 C 85 % 1006,6 hPa 0,0 l/m 15,3 km/h (3 Bft) W-SW 255 0 min 0,000 mm 0,0 UV-I 29 W/m 5,9 C 2,9 C 22,5 km/h (4 Bft) 98,11 %
18.03.2017 07:32 8,3 C 85 % 1006,8 hPa 0,0 l/m 15,7 km/h (3 Bft) W-SW 246 0 min 0,000 mm 0,0 UV-I 28 W/m 5,9 C 2,8 C 22,5 km/h (4 Bft) 94,87 %
18.03.2017 07:34 8,4 C 85 % 1006,7 hPa 0,0 l/m 14,1 km/h (3 Bft) W 259 0 min 0,000 mm 0,0 UV-I 30 W/m 6,0 C 3,6 C 25,7 km/h (4 Bft) 98,00 %
18.03.2017 07:36 8,4 C 84 % 1006,8 hPa 0,0 l/m 18,7 km/h (3 Bft) W-SW 252 0 min 0,000 mm 0,0 UV-I 31 W/m 5,9 C 1,7 C 25,7 km/h (4 Bft) 98,00 %
18.03.2017 07:38 8,4 C 84 % 1006,7 hPa 0,0 l/m 13,6 km/h (3 Bft) W 268 0 min 0,000 mm 0,0 UV-I 32 W/m 5,9 C 3,9 C 17,7 km/h (3 Bft) 97,56 %
18.03.2017 07:40 8,4 C 84 % 1006,7 hPa 0,2 l/m 14,3 km/h (3 Bft) W 263 0 min 0,000 mm 0,0 UV-I 31 W/m 5,9 C 3,5 C 24,1 km/h (4 Bft) 97,87 %
18.03.2017 07:42 8,4 C 84 % 1006,8 hPa 0,0 l/m 18,8 km/h (3 Bft) W-SW 249 0 min 0,000 mm 0,0 UV-I 34 W/m 5,9 C 1,6 C 27,4 km/h (4 Bft) 92,86 %
18.03.2017 07:44 8,4 C 84 % 1006,7 hPa 0,0 l/m 13,7 km/h (3 Bft) W-SW 248 0 min 0,000 mm 0,0 UV-I 32 W/m 5,9 C 3,8 C 20,9 km/h (4 Bft) 94,87 %
18.03.2017 07:46 8,4 C 84 % 1006,7 hPa 0,0 l/m 14,7 km/h (3 Bft) W 261 0 min 0,000 mm 0,0 UV-I 29 W/m 5,9 C 3,3 C 20,9 km/h (4 Bft) 97,37 %
18.03.2017 07:48 8,4 C 85 % 1006,6 hPa 0,2 l/m 16,2 km/h (3 Bft) W 266 0 min 0,000 mm 0,0 UV-I 28 W/m 6,0 C 2,7 C 35,4 km/h (5 Bft) 86,79 %
18.03.2017 07:50 8,4 C 84 % 1006,7 hPa 0,0 l/m 21,2 km/h (4 Bft) W 267 0 min 0,000 mm 0,0 UV-I 30 W/m 5,9 C 0,8 C 32,2 km/h (5 Bft) 94,34 %
18.03.2017 07:52 8,4 C 84 % 1006,7 hPa 0,0 l/m 20,5 km/h (4 Bft) W 268 0 min 0,000 mm 0,0 UV-I 28 W/m 5,9 C 1,0 C 30,6 km/h (5 Bft) 92,31 %
18.03.2017 07:54 8,4 C 84 % 1006,7 hPa 0,0 l/m 22,8 km/h (4 Bft) W-SW 258 0 min 0,000 mm 0,0 UV-I 27 W/m 5,9 C 0,3 C 33,8 km/h (5 Bft) 94,12 %
18.03.2017 07:56 8,5 C 84 % 1006,8 hPa 0,0 l/m 19,3 km/h (3 Bft) W 272 0 min 0,000 mm 0,0 UV-I 28 W/m 6,0 C 1,6 C 27,4 km/h (4 Bft) 90,00 %
18.03.2017 07:58 8,5 C 84 % 1006,7 hPa 0,0 l/m 18,8 km/h (3 Bft) W 261 0 min 0,000 mm 0,0 UV-I 31 W/m 6,0 C 1,8 C 33,8 km/h (5 Bft) 94,74 %
18.03.2017 08:00 8,5 C 85 % 1006,7 hPa 0,2 l/m 19,5 km/h (3 Bft) W-SW 246 0 min 0,000 mm 0,0 UV-I 33 W/m 6,1 C 1,5 C 27,4 km/h (4 Bft) 93,88 %
18.03.2017 08:02 8,5 C 84 % 1006,7 hPa 0,0 l/m 19,3 km/h (3 Bft) S-SW 197 0 min 0,051 mm 0,0 UV-I 41 W/m 6,0 C 1,6 C 25,7 km/h (4 Bft) 90,57 %
18.03.2017 08:04 8,5 C 84 % 1006,8 hPa 0,2 l/m 22,8 km/h (4 Bft) W-SW 246 0 min 0,000 mm 0,0 UV-I 45 W/m 6,0 C 0,4 C 38,6 km/h (5 Bft) 95,74 %
18.03.2017 08:06 8,5 C 85 % 1007,0 hPa 0,0 l/m 17,5 km/h (3 Bft) W-SW 250 0 min 0,000 mm 0,0 UV-I 41 W/m 6,1 C 2,3 C 35,4 km/h (5 Bft) 95,45 %
18.03.2017 08:08 8,5 C 84 % 1006,7 hPa 0,0 l/m 21,0 km/h (4 Bft) W 266 0 min 0,000 mm 0,0 UV-I 38 W/m 6,0 C 1,0 C 35,4 km/h (5 Bft) 95,12 %
18.03.2017 08:10 8,5 C 85 % 1006,7 hPa 0,0 l/m 15,2 km/h (3 Bft) SW 224 0 min 0,000 mm 0,0 UV-I 35 W/m 6,1 C 3,2 C 24,1 km/h (4 Bft) 91,49 %
18.03.2017 08:12 8,4 C 84 % 1006,6 hPa 0,0 l/m 23,6 km/h (4 Bft) W-SW 248 0 min 0,000 mm 0,0 UV-I 38 W/m 5,9 C 0,1 C 37,0 km/h (5 Bft) 92,86 %
18.03.2017 08:14 8,5 C 84 % 1006,7 hPa 0,2 l/m 25,2 km/h (4 Bft) SW 232 0 min 0,000 mm 0,0 UV-I 44 W/m 6,0 C -0,3 C 45,1 km/h (6 Bft) 95,45 %
18.03.2017 08:16 8,5 C 84 % 1006,6 hPa 0,0 l/m 27,4 km/h (4 Bft) W-SW 238 0 min 0,000 mm 0,0 UV-I 48 W/m 6,0 C -0,8 C 43,5 km/h (6 Bft) 90,91 %
18.03.2017 08:18 8,6 C 84 % 1006,5 hPa 0,2 l/m 21,3 km/h (4 Bft) W-SW 252 0 min 0,000 mm 0,0 UV-I 56 W/m 6,1 C 1,0 C 32,2 km/h (5 Bft) 93,18 %
18.03.2017 08:20 8,6 C 83 % 1006,5 hPa 0,0 l/m 28,3 km/h (4 Bft) W 263 0 min 0,000 mm 0,0 UV-I 59 W/m 5,9 C -0,9 C 43,5 km/h (6 Bft) 90,00 %
18.03.2017 08:22 8,6 C 84 % 1006,4 hPa 0,0 l/m 27,2 km/h (4 Bft) W-SW 250 0 min 0,000 mm 0,0 UV-I 58 W/m 6,1 C -0,6 C 49,9 km/h (6 Bft) 100,00 %
18.03.2017 08:24 8,6 C 84 % 1006,5 hPa 0,0 l/m 20,5 km/h (4 Bft) W 269 0 min 0,000 mm 0,0 UV-I 53 W/m 6,1 C 1,3 C 29,0 km/h (5 Bft) 100,00 %
18.03.2017 08:26 8,5 C 84 % 1006,5 hPa 0,0 l/m 30,9 km/h (5 Bft) SW 236 0 min 0,000 mm 0,0 UV-I 46 W/m 6,0 C -1,7 C 41,8 km/h (6 Bft) 97,73 %
18.03.2017 08:28 8,6 C 83 % 1006,5 hPa 0,0 l/m 28,8 km/h (4 Bft) W 261 0 min 0,000 mm 0,0 UV-I 41 W/m 5,9 C -1,0 C 45,1 km/h (6 Bft) 97,62 %
18.03.2017 08:30 8,6 C 83 % 1006,6 hPa 0,0 l/m 27,6 km/h (4 Bft) W-SW 252 0 min 0,000 mm 0,0 UV-I 39 W/m 5,9 C -0,7 C 40,2 km/h (6 Bft) 98,11 %
18.03.2017 08:32 8,6 C 83 % 1006,6 hPa 0,0 l/m 23,2 km/h (4 Bft) SW 220 0 min 0,000 mm 0,0 UV-I 43 W/m 5,9 C 0,5 C 33,8 km/h (5 Bft) 100,00 %
18.03.2017 08:34 8,6 C 83 % 1006,5 hPa 0,2 l/m 21,3 km/h (4 Bft) W-SW 256 0 min 0,000 mm 0,0 UV-I 47 W/m 5,9 C 1,0 C 29,0 km/h (5 Bft) 97,37 %
18.03.2017 08:36 8,6 C 84 % 1006,5 hPa 0,0 l/m 21,6 km/h (4 Bft) W-SW 251 0 min 0,000 mm 0,0 UV-I 48 W/m 6,1 C 0,9 C 32,2 km/h (5 Bft) 95,74 %
18.03.2017 08:38 8,5 C 84 % 1006,4 hPa 0,0 l/m 22,8 km/h (4 Bft) W 279 0 min 0,000 mm 0,0 UV-I 47 W/m 6,0 C 0,4 C 41,8 km/h (6 Bft) 98,11 %
18.03.2017 08:40 8,5 C 84 % 1006,6 hPa 0,0 l/m 26,1 km/h (4 Bft) W-SW 252 0 min 0,000 mm 0,0 UV-I 44 W/m 6,0 C -0,5 C 33,8 km/h (5 Bft) 100,00 %
18.03.2017 08:42 8,4 C 84 % 1006,6 hPa 0,2 l/m 25,9 km/h (4 Bft) W 275 0 min 0,000 mm 0,0 UV-I 45 W/m 5,9 C -0,6 C 38,6 km/h (5 Bft) 98,11 %
18.03.2017 08:44 8,4 C 84 % 1006,5 hPa 0,0 l/m 22,1 km/h (4 Bft) W-SW 237 0 min 0,000 mm 0,0 UV-I 48 W/m 5,9 C 0,5 C 33,8 km/h (5 Bft) 100,00 %
18.03.2017 08:46 8,4 C 85 % 1006,4 hPa 0,0 l/m 21,1 km/h (4 Bft) W-SW 256 0 min 0,000 mm 0,0 UV-I 52 W/m 6,0 C 0,8 C 32,2 km/h (5 Bft) 97,87 %
18.03.2017 08:48 8,4 C 85 % 1006,6 hPa 0,0 l/m 22,6 km/h (4 Bft) SW 234 0 min 0,000 mm 0,0 UV-I 54 W/m 6,0 C 0,4 C 40,2 km/h (6 Bft) 97,87 %
18.03.2017 08:50 8,4 C 85 % 1006,5 hPa 0,0 l/m 22,5 km/h (4 Bft) W-SW 256 0 min 0,000 mm 0,0 UV-I 53 W/m 6,0 C 0,4 C 33,8 km/h (5 Bft) 100,00 %
18.03.2017 08:52 8,3 C 86 % 1006,5 hPa 0,2 l/m 18,9 km/h (3 Bft) SW 234 0 min 0,000 mm 0,0 UV-I 47 W/m 6,1 C 1,5 C 29,0 km/h (5 Bft) 92,68 %
18.03.2017 08:54 8,3 C 86 % 1006,5 hPa 0,2 l/m 18,4 km/h (3 Bft) W 262 0 min 0,000 mm 0,0 UV-I 39 W/m 6,1 C 1,7 C 32,2 km/h (5 Bft) 100,00 %
18.03.2017 08:56 8,2 C 86 % 1006,6 hPa 0,0 l/m 21,5 km/h (4 Bft) W-SW 253 0 min 0,000 mm 0,0 UV-I 33 W/m 6,0 C 0,5 C 38,6 km/h (5 Bft) 92,68 %
18.03.2017 08:58 8,2 C 87 % 1006,5 hPa 0,0 l/m 19,6 km/h (3 Bft) W-SW 250 0 min 0,000 mm 0,0 UV-I 27 W/m 6,2 C 1,1 C 29,0 km/h (5 Bft) 98,11 %
18.03.2017 09:00 8,2 C 87 % 1006,6 hPa 0,2 l/m 21,2 km/h (4 Bft) SW 221 0 min 0,051 mm 0,0 UV-I 26 W/m 6,2 C 0,6 C 29,0 km/h (5 Bft) 97,56 %
18.03.2017 09:02 8,2 C 87 % 1006,5 hPa 0,0 l/m 23,0 km/h (4 Bft) W 260 0 min 0,000 mm 0,0 UV-I 29 W/m 6,2 C -0,0 C 37,0 km/h (5 Bft) 100,00 %
18.03.2017 09:04 8,1 C 87 % 1006,5 hPa 0,2 l/m 22,0 km/h (4 Bft) W-SW 248 0 min 0,000 mm 0,0 UV-I 36 W/m 6,1 C 0,2 C 37,0 km/h (5 Bft) 96,15 %
18.03.2017 09:06 8,1 C 88 % 1006,5 hPa 0,0 l/m 18,5 km/h (3 Bft) W 260 0 min 0,000 mm 0,0 UV-I 43 W/m 6,2 C 1,4 C 27,4 km/h (4 Bft) 93,33 %
18.03.2017 09:08 8,1 C 88 % 1006,5 hPa 0,0 l/m 24,0 km/h (4 Bft) W 278 0 min 0,000 mm 0,0 UV-I 38 W/m 6,2 C -0,5 C 30,6 km/h (5 Bft) 100,00 %
18.03.2017 09:10 8,1 C 88 % 1006,5 hPa 0,2 l/m 22,2 km/h (4 Bft) W-SW 257 0 min 0,000 mm 0,0 UV-I 29 W/m 6,2 C 0,1 C 32,2 km/h (5 Bft) 96,00 %
18.03.2017 09:12 8,0 C 88 % 1006,4 hPa 0,0 l/m 21,6 km/h (4 Bft) W-SW 242 0 min 0,000 mm 0,0 UV-I 27 W/m 6,1 C 0,2 C 33,8 km/h (5 Bft) 100,00 %
18.03.2017 09:14 8,0 C 89 % 1006,4 hPa 0,2 l/m 19,6 km/h (3 Bft) W-SW 246 0 min 0,000 mm 0,0 UV-I 28 W/m 6,3 C 0,8 C 33,8 km/h (5 Bft) 98,11 %
18.03.2017 09:16 7,9 C 89 % 1006,3 hPa 0,0 l/m 22,4 km/h (4 Bft) SW 215 0 min 0,000 mm 0,0 UV-I 32 W/m 6,2 C -0,2 C 32,2 km/h (5 Bft) 100,00 %
18.03.2017 09:18 7,9 C 89 % 1006,4 hPa 0,0 l/m 18,8 km/h (3 Bft) W-SW 243 0 min 0,000 mm 0,0 UV-I 28 W/m 6,2 C 1,0 C 25,7 km/h (4 Bft) 100,00 %
18.03.2017 09:20 7,9 C 89 % 1006,4 hPa 0,2 l/m 21,1 km/h (4 Bft) W-NW 285 0 min 0,000 mm 0,0 UV-I 33 W/m 6,2 C 0,2 C 32,2 km/h (5 Bft) 98,11 %
18.03.2017 09:22 7,9 C 89 % 1006,4 hPa 0,2 l/m 20,7 km/h (4 Bft) W-SW 244 0 min 0,000 mm 0,0 UV-I 48 W/m 6,2 C 0,3 C 30,6 km/h (5 Bft) 97,73 %
18.03.2017 09:24 7,9 C 90 % 1006,3 hPa 0,0 l/m 22,8 km/h (4 Bft) W-SW 255 0 min 0,000 mm 0,0 UV-I 50 W/m 6,4 C -0,4 C 33,8 km/h (5 Bft) 97,56 %
18.03.2017 09:26 7,9 C 90 % 1006,3 hPa 0,2 l/m 21,7 km/h (4 Bft) W-SW 256 0 min 0,000 mm 0,0 UV-I 43 W/m 6,4 C -0,0 C 29,0 km/h (5 Bft) 94,34 %
18.03.2017 09:28 7,9 C 90 % 1006,2 hPa 0,2 l/m 19,5 km/h (3 Bft) W-SW 250 0 min 0,000 mm 0,0 UV-I 37 W/m 6,4 C 0,8 C 30,6 km/h (5 Bft) 92,68 %
18.03.2017 09:30 7,8 C 90 % 1006,2 hPa 0,0 l/m 16,8 km/h (3 Bft) W-NW 292 0 min 0,000 mm 0,0 UV-I 29 W/m 6,3 C 1,7 C 25,7 km/h (4 Bft) 93,18 %
18.03.2017 09:32 7,8 C 90 % 1006,2 hPa 0,2 l/m 17,8 km/h (3 Bft) W 271 0 min 0,000 mm 0,0 UV-I 26 W/m 6,3 C 1,3 C 25,7 km/h (4 Bft) 98,11 %
18.03.2017 09:34 7,8 C 90 % 1006,3 hPa 0,2 l/m 17,8 km/h (3 Bft) W-SW 255 0 min 0,000 mm 0,0 UV-I 30 W/m 6,3 C 1,3 C 22,5 km/h (4 Bft) 95,45 %
18.03.2017 09:36 7,8 C 90 % 1006,2 hPa 0,0 l/m 19,8 km/h (3 Bft) W 267 0 min 0,000 mm 0,0 UV-I 36 W/m 6,3 C 0,5 C 27,4 km/h (4 Bft) 100,00 %
18.03.2017 09:38 7,8 C 91 % 1006,2 hPa 0,2 l/m 21,5 km/h (4 Bft) W 266 0 min 0,000 mm 0,0 UV-I 40 W/m 6,4 C -0,1 C 43,5 km/h (6 Bft) 98,11 %
18.03.2017 09:40 7,8 C 91 % 1006,3 hPa 0,0 l/m 18,8 km/h (3 Bft) SW 232 0 min 0,000 mm 0,0 UV-I 42 W/m 6,4 C 0,9 C 25,7 km/h (4 Bft) 92,86 %
18.03.2017 09:42 7,8 C 91 % 1006,3 hPa 0,2 l/m 25,2 km/h (4 Bft) W-SW 248 0 min 0,000 mm 0,0 UV-I 41 W/m 6,4 C -1,2 C 43,5 km/h (6 Bft) 100,00 %
18.03.2017 09:44 7,8 C 91 % 1006,4 hPa 0,0 l/m 22,9 km/h (4 Bft) W-SW 253 0 min 0,000 mm 0,0 UV-I 36 W/m 6,4 C -0,5 C 37,0 km/h (5 Bft) 98,21 %
18.03.2017 09:46 7,9 C 91 % 1006,3 hPa 0,0 l/m 21,9 km/h (4 Bft) W 261 0 min 0,000 mm 0,0 UV-I 39 W/m 6,5 C -0,1 C 30,6 km/h (5 Bft) 93,18 %
18.03.2017 09:48 7,9 C 91 % 1006,3 hPa 0,2 l/m 23,8 km/h (4 Bft) S-SW 205 0 min 0,000 mm 0,0 UV-I 37 W/m 6,5 C -0,7 C 35,4 km/h (5 Bft) 98,21 %
18.03.2017 09:50 7,9 C 91 % 1006,4 hPa 0,0 l/m 21,8 km/h (4 Bft) W-SW 248 0 min 0,000 mm 0,0 UV-I 37 W/m 6,5 C -0,0 C 30,6 km/h (5 Bft) 98,00 %
18.03.2017 09:52 7,9 C 91 % 1006,4 hPa 0,2 l/m 18,0 km/h (3 Bft) SW 236 0 min 0,000 mm 0,0 UV-I 35 W/m 6,5 C 1,3 C 24,1 km/h (4 Bft) 100,00 %
18.03.2017 09:54 7,9 C 91 % 1006,4 hPa 0,2 l/m 19,3 km/h (3 Bft) W-SW 248 0 min 0,000 mm 0,0 UV-I 36 W/m 6,5 C 0,8 C 25,7 km/h (4 Bft) 100,00 %
18.03.2017 09:56 7,9 C 91 % 1006,4 hPa 0,2 l/m 22,3 km/h (4 Bft) W 265 0 min 0,000 mm 0,0 UV-I 40 W/m 6,5 C -0,2 C 33,8 km/h (5 Bft) 93,18 %
18.03.2017 09:58 7,9 C 91 % 1006,4 hPa 0,0 l/m 14,3 km/h (3 Bft) W-SW 255 0 min 0,000 mm 0,0 UV-I 39 W/m 6,5 C 2,9 C 20,9 km/h (4 Bft) 96,00 %
18.03.2017 10:00 7,9 C 91 % 1006,5 hPa 0,2 l/m 15,0 km/h (3 Bft) W-NW 284 0 min 0,025 mm 0,0 UV-I 33 W/m 6,5 C 2,6 C 20,9 km/h (4 Bft) 97,56 %
18.03.2017 10:02 7,9 C 92 % 1006,5 hPa 0,2 l/m 18,9 km/h (3 Bft) W 260 0 min 0,000 mm 0,0 UV-I 39 W/m 6,7 C 1,0 C 29,0 km/h (5 Bft) 96,00 %
18.03.2017 10:04 7,9 C 92 % 1006,5 hPa 0,2 l/m 17,7 km/h (3 Bft) W-SW 244 0 min 0,000 mm 0,0 UV-I 46 W/m 6,7 C 1,4 C 25,7 km/h (4 Bft) 93,18 %
18.03.2017 10:06 7,9 C 92 % 1006,5 hPa 0,2 l/m 19,4 km/h (3 Bft) SW 234 0 min 0,000 mm 0,0 UV-I 52 W/m 6,7 C 0,8 C 35,4 km/h (5 Bft) 94,00 %
18.03.2017 10:08 7,9 C 92 % 1006,5 hPa 0,2 l/m 19,4 km/h (3 Bft) W 269 0 min 0,000 mm 0,0 UV-I 61 W/m 6,7 C 0,8 C 27,4 km/h (4 Bft) 93,62 %
18.03.2017 10:10 7,9 C 92 % 1006,5 hPa 0,2 l/m 18,3 km/h (3 Bft) W-SW 248 0 min 0,000 mm 0,0 UV-I 75 W/m 6,7 C 1,2 C 25,7 km/h (4 Bft) 92,45 %
18.03.2017 10:12 7,9 C 92 % 1006,5 hPa 0,2 l/m 18,8 km/h (3 Bft) W 272 0 min 0,000 mm 0,0 UV-I 84 W/m 6,7 C 1,0 C 27,4 km/h (4 Bft) 97,73 %
18.03.2017 10:14 8,0 C 92 % 1006,6 hPa 0,0 l/m 19,1 km/h (3 Bft) W 262 0 min 0,000 mm 0,0 UV-I 64 W/m 6,8 C 1,0 C 29,0 km/h (5 Bft) 97,87 %
18.03.2017 10:16 8,0 C 92 % 1006,6 hPa 0,2 l/m 18,3 km/h (3 Bft) W 261 0 min 0,000 mm 0,0 UV-I 58 W/m 6,8 C 1,3 C 32,2 km/h (5 Bft) 96,00 %
18.03.2017 10:18 8,0 C 92 % 1006,7 hPa 0,0 l/m 21,0 km/h (4 Bft) W 269 0 min 0,000 mm 0,0 UV-I 54 W/m 6,8 C 0,4 C 33,8 km/h (5 Bft) 96,00 %
18.03.2017 10:20 8,0 C 92 % 1006,7 hPa 0,2 l/m 15,7 km/h (3 Bft) W-SW 250 0 min 0,000 mm 0,0 UV-I 61 W/m 6,8 C 2,4 C 22,5 km/h (4 Bft) 100,00 %
18.03.2017 10:22 8,0 C 92 % 1006,8 hPa 0,2 l/m 23,2 km/h (4 Bft) W-SW 241 0 min 0,000 mm 0,0 UV-I 66 W/m 6,8 C -0,3 C 38,6 km/h (5 Bft) 92,73 %
18.03.2017 10:24 8,0 C 92 % 1006,7 hPa 0,0 l/m 21,2 km/h (4 Bft) W 269 0 min 0,000 mm 0,0 UV-I 67 W/m 6,8 C 0,3 C 30,6 km/h (5 Bft) 95,24 %
18.03.2017 10:26 8,0 C 92 % 1006,7 hPa 0,2 l/m 14,9 km/h (3 Bft) W 261 0 min 0,000 mm 0,0 UV-I 63 W/m 6,8 C 2,8 C 22,5 km/h (4 Bft) 93,62 %
18.03.2017 10:28 8,0 C 92 % 1006,7 hPa 0,0 l/m 19,3 km/h (3 Bft) SW 236 0 min 0,000 mm 0,0 UV-I 66 W/m 6,8 C 1,0 C 27,4 km/h (4 Bft) 96,43 %
18.03.2017 10:30 8,1 C 92 % 1006,7 hPa 0,2 l/m 18,6 km/h (3 Bft) W 263 0 min 0,000 mm 0,0 UV-I 62 W/m 6,9 C 1,3 C 27,4 km/h (4 Bft) 92,31 %
18.03.2017 10:32 8,1 C 92 % 1006,8 hPa 0,2 l/m 17,3 km/h (3 Bft) W-SW 258 0 min 0,000 mm 0,0 UV-I 69 W/m 6,9 C 1,8 C 24,1 km/h (4 Bft) 97,73 %
18.03.2017 10:34 8,1 C 93 % 1006,8 hPa 0,0 l/m 14,7 km/h (3 Bft) W 281 0 min 0,000 mm 0,0 UV-I 75 W/m 7,0 C 3,0 C 20,9 km/h (4 Bft) 94,00 %
18.03.2017 10:36 8,1 C 93 % 1006,7 hPa 0,2 l/m 20,9 km/h (4 Bft) W 281 0 min 0,000 mm 0,0 UV-I 87 W/m 7,0 C 0,5 C 27,4 km/h (4 Bft) 94,34 %
18.03.2017 10:38 8,1 C 93 % 1006,7 hPa 0,2 l/m 16,9 km/h (3 Bft) W 264 0 min 0,000 mm 0,2 UV-I 97 W/m 7,0 C 2,0 C 27,4 km/h (4 Bft) 100,00 %
18.03.2017 10:40 8,1 C 93 % 1006,7 hPa 0,2 l/m 18,9 km/h (3 Bft) W-SW 242 0 min 0,000 mm 0,3 UV-I 95 W/m 7,0 C 1,2 C 37,0 km/h (5 Bft) 95,74 %
18.03.2017 10:42 8,1 C 93 % 1006,7 hPa 0,0 l/m 22,7 km/h (4 Bft) W-SW 248 0 min 0,000 mm 0,0 UV-I 93 W/m 7,0 C -0,1 C 37,0 km/h (5 Bft) 93,18 %
18.03.2017 10:44 8,1 C 92 % 1006,8 hPa 0,0 l/m 17,6 km/h (3 Bft) W 261 0 min 0,000 mm 0,0 UV-I 92 W/m 6,9 C 1,7 C 24,1 km/h (4 Bft) 100,00 %
18.03.2017 10:46 8,1 C 93 % 1006,7 hPa 0,2 l/m 16,1 km/h (3 Bft) W-SW 243 0 min 0,000 mm 0,0 UV-I 84 W/m 7,0 C 2,3 C 22,5 km/h (4 Bft) 97,87 %
18.03.2017 10:48 8,1 C 93 % 1006,7 hPa 0,0 l/m 19,8 km/h (3 Bft) SW 235 0 min 0,000 mm 0,0 UV-I 73 W/m 7,0 C 0,9 C 32,2 km/h (5 Bft) 97,37 %
18.03.2017 10:50 8,1 C 92 % 1006,7 hPa 0,0 l/m 23,7 km/h (4 Bft) W 270 0 min 0,000 mm 0,0 UV-I 72 W/m 6,9 C -0,4 C 43,5 km/h (6 Bft) 94,64 %
18.03.2017 10:52 8,1 C 92 % 1006,7 hPa 0,2 l/m 27,4 km/h (4 Bft) W-SW 256 0 min 0,000 mm 0,0 UV-I 73 W/m 6,9 C -1,4 C 38,6 km/h (5 Bft) 97,56 %
18.03.2017 10:54 8,1 C 92 % 1006,7 hPa 0,0 l/m 21,6 km/h (4 Bft) W-SW 256 0 min 0,000 mm 0,0 UV-I 63 W/m 6,9 C 0,3 C 30,6 km/h (5 Bft) 96,23 %
18.03.2017 10:56 8,1 C 92 % 1006,7 hPa 0,0 l/m 19,9 km/h (4 Bft) W 268 0 min 0,000 mm 0,0 UV-I 50 W/m 6,9 C 0,9 C 29,0 km/h (5 Bft) 97,56 %
18.03.2017 10:58 8,1 C 92 % 1006,7 hPa 0,2 l/m 22,3 km/h (4 Bft) W 261 0 min 0,000 mm 0,0 UV-I 48 W/m 6,9 C 0,1 C 33,8 km/h (5 Bft) 98,00 %
18.03.2017 11:00 8,1 C 92 % 1006,8 hPa 0,0 l/m 17,5 km/h (3 Bft) W-SW 247 0 min 0,051 mm 0,0 UV-I 49 W/m 6,9 C 1,8 C 24,1 km/h (4 Bft) 96,00 %
18.03.2017 11:02 8,1 C 92 % 1006,8 hPa 0,2 l/m 22,2 km/h (4 Bft) W-SW 250 0 min 0,000 mm 0,0 UV-I 49 W/m 6,9 C 0,1 C 35,4 km/h (5 Bft) 97,73 %
18.03.2017 11:04 8,1 C 92 % 1006,8 hPa 0,0 l/m 20,2 km/h (4 Bft) W-SW 250 0 min 0,000 mm 0,0 UV-I 53 W/m 6,9 C 0,8 C 38,6 km/h (5 Bft) 97,62 %
18.03.2017 11:06 8,1 C 92 % 1006,9 hPa 0,2 l/m 27,4 km/h (4 Bft) W-SW 251 0 min 0,000 mm 0,0 UV-I 59 W/m 6,9 C -1,4 C 43,5 km/h (6 Bft) 98,18 %
18.03.2017 11:08 8,1 C 92 % 1006,9 hPa 0,0 l/m 23,9 km/h (4 Bft) W-SW 257 0 min 0,000 mm 0,0 UV-I 61 W/m 6,9 C -0,4 C 41,8 km/h (6 Bft) 95,83 %
18.03.2017 11:10 8,1 C 92 % 1006,8 hPa 0,2 l/m 26,0 km/h (4 Bft) W 267 0 min 0,000 mm 0,0 UV-I 64 W/m 6,9 C -1,0 C 43,5 km/h (6 Bft) 95,12 %
18.03.2017 11:13 8,1 C 91 % 1006,9 hPa 0,0 l/m 24,2 km/h (4 Bft) W-SW 254 0 min 0,000 mm 0,0 UV-I 70 W/m 6,7 C -0,5 C 41,8 km/h (6 Bft) 97,47 %
18.03.2017 11:14 8,1 C 91 % 1006,9 hPa 0,0 l/m 21,8 km/h (4 Bft) W-SW 243 0 min 0,000 mm 0,0 UV-I 70 W/m 6,7 C 0,2 C 27,4 km/h (4 Bft) 100,00 %
18.03.2017 11:16 8,1 C 92 % 1006,9 hPa 0,2 l/m 24,7 km/h (4 Bft) W-SW 252 0 min 0,000 mm 0,0 UV-I 76 W/m 6,9 C -0,7 C 37,0 km/h (5 Bft) 97,73 %
18.03.2017 11:18 8,1 C 91 % 1007,0 hPa 0,2 l/m 19,5 km/h (3 Bft) SW 231 0 min 0,000 mm 0,0 UV-I 75 W/m 6,7 C 1,0 C 30,6 km/h (5 Bft) 95,74 %
18.03.2017 11:20 8,1 C 91 % 1007,0 hPa 0,0 l/m 22,3 km/h (4 Bft) W 260 0 min 0,000 mm 0,0 UV-I 74 W/m 6,7 C 0,1 C 37,0 km/h (5 Bft) 91,07 %
18.03.2017 11:22 8,1 C 91 % 1007,0 hPa 0,0 l/m 25,3 km/h (4 Bft) W 269 0 min 0,000 mm 0,0 UV-I 73 W/m 6,7 C -0,8 C 40,2 km/h (6 Bft) 100,00 %
18.03.2017 11:24 8,1 C 91 % 1007,1 hPa 0,2 l/m 23,2 km/h (4 Bft) W-SW 258 0 min 0,000 mm 0,0 UV-I 73 W/m 6,7 C -0,2 C 37,0 km/h (5 Bft) 95,52 %
18.03.2017 11:26 8,1 C 91 % 1007,1 hPa 0,0 l/m 22,9 km/h (4 Bft) W-SW 245 0 min 0,000 mm 0,0 UV-I 80 W/m 6,7 C -0,1 C 33,8 km/h (5 Bft) 98,11 %
18.03.2017 11:28 8,1 C 91 % 1007,2 hPa 0,0 l/m 20,4 km/h (4 Bft) W 272 0 min 0,000 mm 0,0 UV-I 72 W/m 6,7 C 0,7 C 37,0 km/h (5 Bft) 93,62 %
18.03.2017 11:30 8,1 C 91 % 1007,2 hPa 0,2 l/m 24,5 km/h (4 Bft) W-SW 248 0 min 0,000 mm 0,0 UV-I 70 W/m 6,7 C -0,6 C 37,0 km/h (5 Bft) 96,00 %
18.03.2017 11:32 8,1 C 91 % 1007,2 hPa 0,0 l/m 21,9 km/h (4 Bft) W-SW 250 0 min 0,000 mm 0,0 UV-I 72 W/m 6,7 C 0,2 C 30,6 km/h (5 Bft) 97,87 %
18.03.2017 11:34 8,0 C 91 % 1007,2 hPa 0,0 l/m 21,1 km/h (4 Bft) W 264 0 min 0,000 mm 0,0 UV-I 62 W/m 6,6 C 0,3 C 35,4 km/h (5 Bft) 94,00 %
18.03.2017 11:36 8,0 C 91 % 1007,3 hPa 0,0 l/m 22,6 km/h (4 Bft) SW 235 0 min 0,000 mm 0,0 UV-I 58 W/m 6,6 C -0,2 C 32,2 km/h (5 Bft) 89,36 %
18.03.2017 11:38 8,0 C 91 % 1007,3 hPa 0,2 l/m 23,3 km/h (4 Bft) W-SW 254 0 min 0,000 mm 0,0 UV-I 57 W/m 6,6 C -0,4 C 32,2 km/h (5 Bft) 93,18 %
18.03.2017 11:40 7,9 C 91 % 1007,2 hPa 0,0 l/m 21,7 km/h (4 Bft) W 263 0 min 0,000 mm 0,0 UV-I 62 W/m 6,5 C -0,0 C 32,2 km/h (5 Bft) 90,48 %
18.03.2017 11:42 7,9 C 91 % 1007,2 hPa 0,2 l/m 24,7 km/h (4 Bft) SW 236 0 min 0,000 mm 0,0 UV-I 67 W/m 6,5 C -0,9 C 45,1 km/h (6 Bft) 96,00 %
18.03.2017 11:44 7,9 C 91 % 1007,3 hPa 0,0 l/m 22,9 km/h (4 Bft) SW 233 0 min 0,000 mm 0,0 UV-I 63 W/m 6,5 C -0,4 C 45,1 km/h (6 Bft) 97,14 %
18.03.2017 11:46 7,9 C 91 % 1007,3 hPa 0,0 l/m 24,2 km/h (4 Bft) W-SW 241 0 min 0,000 mm 0,0 UV-I 57 W/m 6,5 C -0,8 C 38,6 km/h (5 Bft) 96,43 %
18.03.2017 11:48 7,9 C 91 % 1007,3 hPa 0,2 l/m 19,4 km/h (3 Bft) W-SW 248 0 min 0,000 mm 0,0 UV-I 61 W/m 6,5 C 0,8 C 24,1 km/h (4 Bft) 94,00 %
18.03.2017 11:50 7,9 C 91 % 1007,3 hPa 0,0 l/m 21,0 km/h (4 Bft) W-SW 252 0 min 0,000 mm 0,0 UV-I 65 W/m 6,5 C 0,2 C 32,2 km/h (5 Bft) 95,45 %
18.03.2017 11:52 7,9 C 91 % 1007,3 hPa 0,2 l/m 20,3 km/h (4 Bft) W-SW 237 0 min 0,000 mm 0,0 UV-I 61 W/m 6,5 C 0,5 C 33,8 km/h (5 Bft) 92,68 %
18.03.2017 11:54 7,9 C 91 % 1007,3 hPa 0,0 l/m 19,9 km/h (4 Bft) W 263 0 min 0,000 mm 0,0 UV-I 65 W/m 6,5 C 0,6 C 29,0 km/h (5 Bft) 98,31 %
18.03.2017 11:56 7,8 C 91 % 1007,3 hPa 0,0 l/m 24,9 km/h (4 Bft) W-SW 250 0 min 0,000 mm 0,0 UV-I 77 W/m 6,4 C -1,1 C 41,8 km/h (6 Bft) 95,12 %
18.03.2017 11:58 7,9 C 91 % 1007,3 hPa 0,2 l/m 18,3 km/h (3 Bft) W-SW 254 0 min 0,000 mm 0,1 UV-I 88 W/m 6,5 C 1,2 C 30,6 km/h (5 Bft) 90,00 %
18.03.2017 12:00 7,9 C 91 % 1007,3 hPa 0,0 l/m 24,9 km/h (4 Bft) SW 236 0 min 0,051 mm 0,3 UV-I 90 W/m 6,5 C -1,0 C 35,4 km/h (5 Bft) 93,62 %
18.03.2017 12:02 7,9 C 91 % 1007,3 hPa 0,2 l/m 23,8 km/h (4 Bft) W-SW 250 0 min 0,000 mm 0,2 UV-I 92 W/m 6,5 C -0,7 C 41,8 km/h (6 Bft) 88,00 %
18.03.2017 12:04 7,9 C 91 % 1007,4 hPa 0,0 l/m 22,0 km/h (4 Bft) W-SW 237 0 min 0,000 mm 0,0 UV-I 75 W/m 6,5 C -0,1 C 32,2 km/h (5 Bft) 89,36 %
18.03.2017 12:06 7,9 C 91 % 1007,5 hPa 0,0 l/m 21,9 km/h (4 Bft) W-SW 257 0 min 0,000 mm 0,0 UV-I 69 W/m 6,5 C -0,1 C 37,0 km/h (5 Bft) 94,74 %
18.03.2017 12:08 7,9 C 91 % 1007,3 hPa 0,0 l/m 23,3 km/h (4 Bft) W-NW 299 0 min 0,000 mm 0,0 UV-I 70 W/m 6,5 C -0,5 C 35,4 km/h (5 Bft) 96,00 %
18.03.2017 12:10 7,8 C 91 % 1007,4 hPa 0,2 l/m 21,6 km/h (4 Bft) SW 232 0 min 0,000 mm 0,0 UV-I 73 W/m 6,4 C -0,1 C 33,8 km/h (5 Bft) 94,00 %
18.03.2017 12:12 7,8 C 91 % 1007,3 hPa 0,0 l/m 28,1 km/h (4 Bft) NW 315 0 min 0,000 mm 0,0 UV-I 82 W/m 6,4 C -2,0 C 41,8 km/h (6 Bft) 92,11 %
18.03.2017 12:14 7,8 C 91 % 1007,2 hPa 0,0 l/m 25,7 km/h (4 Bft) SW 234 0 min 0,000 mm 0,1 UV-I 87 W/m 6,4 C -1,3 C 45,1 km/h (6 Bft) 94,34 %
18.03.2017 12:16 7,8 C 90 % 1007,4 hPa 0,2 l/m 25,3 km/h (4 Bft) W-SW 255 0 min 0,000 mm 0,2 UV-I 92 W/m 6,3 C -1,2 C 43,5 km/h (6 Bft) 92,68 %
18.03.2017 12:18 7,8 C 90 % 1007,3 hPa 0,0 l/m 22,7 km/h (4 Bft) W-SW 250 0 min 0,000 mm 0,0 UV-I 84 W/m 6,3 C -0,5 C 33,8 km/h (5 Bft) 94,34 %
18.03.2017 12:20 7,8 C 90 % 1007,4 hPa 0,0 l/m 22,6 km/h (4 Bft) W-SW 243 0 min 0,000 mm 0,0 UV-I 76 W/m 6,3 C -0,4 C 37,0 km/h (5 Bft) 92,86 %
18.03.2017 12:22 7,8 C 91 % 1007,3 hPa 0,0 l/m 20,2 km/h (4 Bft) S-SW 195 0 min 0,000 mm 0,0 UV-I 75 W/m 6,4 C 0,4 C 25,7 km/h (4 Bft) 95,45 %
18.03.2017 12:24 7,8 C 91 % 1007,4 hPa 0,2 l/m 23,3 km/h (4 Bft) W 266 0 min 0,000 mm 0,0 UV-I 71 W/m 6,4 C -0,6 C 33,8 km/h (5 Bft) 89,29 %
18.03.2017 12:26 7,8 C 91 % 1007,4 hPa 0,0 l/m 23,5 km/h (4 Bft) W-SW 244 0 min 0,000 mm 0,0 UV-I 70 W/m 6,4 C -0,7 C 30,6 km/h (5 Bft) 96,00 %
18.03.2017 12:28 7,8 C 91 % 1007,4 hPa 0,0 l/m 21,1 km/h (4 Bft) W-SW 249 0 min 0,000 mm 0,0 UV-I 77 W/m 6,4 C 0,1 C 30,6 km/h (5 Bft) 93,62 %
18.03.2017 12:30 7,8 C 91 % 1007,4 hPa 0,0 l/m 21,4 km/h (4 Bft) W-SW 253 0 min 0,000 mm 0,0 UV-I 84 W/m 6,4 C -0,0 C 29,0 km/h (5 Bft) 97,56 %
18.03.2017 12:32 7,8 C 91 % 1007,4 hPa 0,2 l/m 22,1 km/h (4 Bft) W-SW 255 0 min 0,000 mm 0,0 UV-I 84 W/m 6,4 C -0,3 C 37,0 km/h (5 Bft) 96,00 %
18.03.2017 12:34 7,8 C 91 % 1007,4 hPa 0,0 l/m 17,5 km/h (3 Bft) W-SW 257 0 min 0,000 mm 0,3 UV-I 93 W/m 6,4 C 1,4 C 27,4 km/h (4 Bft) 97,87 %
18.03.2017 12:36 7,8 C 91 % 1007,4 hPa 0,0 l/m 21,3 km/h (4 Bft) W-SW 247 0 min 0,000 mm 0,3 UV-I 88 W/m 6,4 C -0,0 C 29,0 km/h (5 Bft) 95,45 %
18.03.2017 12:38 7,8 C 91 % 1007,4 hPa 0,0 l/m 23,9 km/h (4 Bft) W 263 0 min 0,000 mm 0,0 UV-I 83 W/m 6,4 C -0,8 C 35,4 km/h (5 Bft) 97,56 %
18.03.2017 12:40 7,8 C 91 % 1007,4 hPa 0,0 l/m 22,4 km/h (4 Bft) SW 234 0 min 0,000 mm 0,0 UV-I 88 W/m 6,4 C -0,4 C 30,6 km/h (5 Bft) 98,00 %
18.03.2017 12:42 7,8 C 91 % 1007,3 hPa 0,0 l/m 19,1 km/h (3 Bft) W-SW 254 0 min 0,000 mm 0,5 UV-I 97 W/m 6,4 C 0,8 C 29,0 km/h (5 Bft) 97,73 %
18.03.2017 12:44 7,8 C 91 % 1007,3 hPa 0,2 l/m 23,1 km/h (4 Bft) SW 231 0 min 0,000 mm 0,2 UV-I 87 W/m 6,4 C -0,6 C 32,2 km/h (5 Bft) 98,08 %
18.03.2017 12:46 7,8 C 91 % 1007,3 hPa 0,0 l/m 23,1 km/h (4 Bft) W-SW 255 0 min 0,000 mm 0,0 UV-I 88 W/m 6,4 C -0,6 C 33,8 km/h (5 Bft) 100,00 %
18.03.2017 12:48 7,8 C 91 % 1007,3 hPa 0,0 l/m 24,4 km/h (4 Bft) W 261 0 min 0,000 mm 0,0 UV-I 81 W/m 6,4 C -1,0 C 45,1 km/h (6 Bft) 95,45 %
18.03.2017 12:50 7,8 C 91 % 1007,3 hPa 0,0 l/m 24,6 km/h (4 Bft) S-SW 210 0 min 0,000 mm 0,0 UV-I 81 W/m 6,4 C -1,0 C 38,6 km/h (5 Bft) 97,87 %
18.03.2017 12:52 7,8 C 91 % 1007,3 hPa 0,2 l/m 21,0 km/h (4 Bft) SW 215 0 min 0,000 mm 0,0 UV-I 72 W/m 6,4 C 0,1 C 32,2 km/h (5 Bft) 97,73 %
18.03.2017 12:54 7,8 C 91 % 1007,3 hPa 0,0 l/m 18,7 km/h (3 Bft) W 269 0 min 0,000 mm 0,0 UV-I 72 W/m 6,4 C 0,9 C 32,2 km/h (5 Bft) 97,62 %
18.03.2017 12:56 7,8 C 91 % 1007,2 hPa 0,0 l/m 19,6 km/h (3 Bft) W-SW 240 0 min 0,000 mm 0,0 UV-I 85 W/m 6,4 C 0,6 C 27,4 km/h (4 Bft) 94,55 %
18.03.2017 12:58 7,8 C 91 % 1007,3 hPa 0,0 l/m 16,7 km/h (3 Bft) W-SW 244 0 min 0,000 mm 0,0 UV-I 80 W/m 6,4 C 1,7 C 22,5 km/h (4 Bft) 94,00 %
18.03.2017 13:00 7,8 C 91 % 1007,3 hPa 0,2 l/m 20,1 km/h (4 Bft) SW 228 0 min 0,000 mm 0,0 UV-I 83 W/m 6,4 C 0,4 C 27,4 km/h (4 Bft) 92,31 %
18.03.2017 13:02 7,8 C 91 % 1007,3 hPa 0,0 l/m 18,7 km/h (3 Bft) W 263 0 min 0,051 mm 0,0 UV-I 81 W/m 6,4 C 0,9 C 29,0 km/h (5 Bft) 91,38 %
18.03.2017 13:04 7,8 C 92 % 1007,3 hPa 0,0 l/m 17,3 km/h (3 Bft) W-SW 248 0 min 0,000 mm 0,0 UV-I 75 W/m 6,6 C 1,5 C 32,2 km/h (5 Bft) 95,24 %
18.03.2017 13:06 7,8 C 92 % 1007,3 hPa 0,0 l/m 18,1 km/h (3 Bft) W-SW 251 0 min 0,000 mm 0,0 UV-I 74 W/m 6,6 C 1,2 C 22,5 km/h (4 Bft) 96,23 %
18.03.2017 13:08 7,8 C 92 % 1007,3 hPa 0,2 l/m 18,0 km/h (3 Bft) W-SW 239 0 min 0,000 mm 0,0 UV-I 70 W/m 6,6 C 1,2 C 29,0 km/h (5 Bft) 97,37 %
18.03.2017 13:10 7,8 C 92 % 1007,3 hPa 0,0 l/m 19,1 km/h (3 Bft) W-SW 256 0 min 0,000 mm 0,0 UV-I 71 W/m 6,6 C 0,8 C 32,2 km/h (5 Bft) 97,87 %
18.03.2017 13:12 7,8 C 92 % 1007,3 hPa 0,0 l/m 19,6 km/h (3 Bft) W-SW 248 0 min 0,000 mm 0,0 UV-I 68 W/m 6,6 C 0,6 C 29,0 km/h (5 Bft) 89,36 %
18.03.2017 13:14 7,8 C 92 % 1007,2 hPa 0,0 l/m 20,3 km/h (4 Bft) W 272 0 min 0,000 mm 0,0 UV-I 74 W/m 6,6 C 0,3 C 25,7 km/h (4 Bft) 97,87 %
18.03.2017 13:16 7,8 C 92 % 1007,2 hPa 0,2 l/m 19,2 km/h (3 Bft) W 276 0 min 0,000 mm 0,0 UV-I 79 W/m 6,6 C 0,7 C 25,7 km/h (4 Bft) 96,23 %
18.03.2017 13:18 7,9 C 92 % 1007,1 hPa 0,0 l/m 20,2 km/h (4 Bft) W 262 0 min 0,000 mm 0,0 UV-I 84 W/m 6,7 C 0,5 C 29,0 km/h (5 Bft) 95,12 %
18.03.2017 13:20 7,9 C 91 % 1007,2 hPa 0,0 l/m 22,1 km/h (4 Bft) SW 227 0 min 0,000 mm 0,0 UV-I 87 W/m 6,5 C -0,1 C 32,2 km/h (5 Bft) 95,12 %
18.03.2017 13:22 7,9 C 91 % 1007,2 hPa 0,0 l/m 21,0 km/h (4 Bft) W 261 0 min 0,000 mm 0,0 UV-I 82 W/m 6,5 C 0,2 C 30,6 km/h (5 Bft) 96,00 %
18.03.2017 13:24 7,9 C 92 % 1007,2 hPa 0,2 l/m 16,5 km/h (3 Bft) W-SW 251 0 min 0,000 mm 0,0 UV-I 90 W/m 6,7 C 1,9 C 24,1 km/h (4 Bft) 97,73 %
18.03.2017 13:26 7,9 C 92 % 1007,2 hPa 0,0 l/m 17,6 km/h (3 Bft) W-SW 246 0 min 0,000 mm 0,0 UV-I 84 W/m 6,7 C 1,5 C 25,7 km/h (4 Bft) 100,00 %
18.03.2017 13:28 7,9 C 92 % 1007,2 hPa 0,0 l/m 18,8 km/h (3 Bft) S 187 0 min 0,000 mm 0,0 UV-I 86 W/m 6,7 C 1,0 C 29,0 km/h (5 Bft) 97,87 %
18.03.2017 13:30 7,9 C 92 % 1007,2 hPa 0,0 l/m 21,8 km/h (4 Bft) W-SW 249 0 min 0,000 mm 0,0 UV-I 82 W/m 6,7 C -0,0 C 32,2 km/h (5 Bft) 96,00 %
18.03.2017 13:32 7,9 C 92 % 1007,2 hPa 0,2 l/m 20,8 km/h (4 Bft) SW 223 0 min 0,000 mm 0,0 UV-I 82 W/m 6,7 C 0,3 C 29,0 km/h (5 Bft) 97,56 %
18.03.2017 13:34 7,9 C 92 % 1007,1 hPa 0,0 l/m 19,9 km/h (4 Bft) SW 232 0 min 0,000 mm 0,0 UV-I 79 W/m 6,7 C 0,6 C 27,4 km/h (4 Bft) 94,34 %
18.03.2017 13:36 7,9 C 92 % 1007,1 hPa 0,2 l/m 19,5 km/h (3 Bft) S-SW 210 0 min 0,000 mm 0,0 UV-I 75 W/m 6,7 C 0,8 C 27,4 km/h (4 Bft) 97,56 %
18.03.2017 13:38 7,9 C 92 % 1007,1 hPa 0,0 l/m 19,3 km/h (3 Bft) W-SW 255 0 min 0,000 mm 0,0 UV-I 81 W/m 6,7 C 0,8 C 25,7 km/h (4 Bft) 98,00 %
18.03.2017 13:40 7,9 C 92 % 1007,1 hPa 0,0 l/m 15,0 km/h (3 Bft) SW 236 0 min 0,000 mm 0,0 UV-I 81 W/m 6,7 C 2,6 C 22,5 km/h (4 Bft) 97,62 %
18.03.2017 13:42 7,9 C 92 % 1007,2 hPa 0,0 l/m 18,9 km/h (3 Bft) W-SW 252 0 min 0,000 mm 0,0 UV-I 75 W/m 6,7 C 1,0 C 25,7 km/h (4 Bft) 93,62 %
18.03.2017 13:44 7,9 C 92 % 1007,1 hPa 0,0 l/m 15,9 km/h (3 Bft) SW 220 0 min 0,000 mm 0,0 UV-I 71 W/m 6,7 C 2,2 C 22,5 km/h (4 Bft) 96,36 %
18.03.2017 13:46 7,9 C 91 % 1007,1 hPa 0,0 l/m 21,3 km/h (4 Bft) W-SW 240 0 min 0,000 mm 0,0 UV-I 75 W/m 6,5 C 0,1 C 30,6 km/h (5 Bft) 94,87 %
18.03.2017 13:48 7,9 C 91 % 1007,1 hPa 0,2 l/m 18,2 km/h (3 Bft) W-SW 250 0 min 0,000 mm 0,0 UV-I 74 W/m 6,5 C 1,2 C 27,4 km/h (4 Bft) 98,00 %
18.03.2017 13:50 7,9 C 91 % 1007,1 hPa 0,0 l/m 19,0 km/h (3 Bft) SW 215 0 min 0,000 mm 0,0 UV-I 67 W/m 6,5 C 0,9 C 29,0 km/h (5 Bft) 95,12 %
18.03.2017 13:52 7,9 C 91 % 1007,1 hPa 0,0 l/m 19,7 km/h (3 Bft) W 268 0 min 0,000 mm 0,0 UV-I 65 W/m 6,5 C 0,7 C 30,6 km/h (5 Bft) 97,73 %
18.03.2017 13:54 7,9 C 91 % 1007,2 hPa 0,0 l/m 21,2 km/h (4 Bft) SW 224 0 min 0,000 mm 0,0 UV-I 69 W/m 6,5 C 0,2 C 33,8 km/h (5 Bft) 96,23 %
18.03.2017 13:56 7,9 C 91 % 1007,1 hPa 0,0 l/m 16,6 km/h (3 Bft) SW 236 0 min 0,000 mm 0,0 UV-I 78 W/m 6,5 C 1,9 C 24,1 km/h (4 Bft) 94,00 %
18.03.2017 13:58 7,9 C 91 % 1007,1 hPa 0,0 l/m 20,7 km/h (4 Bft) SW 232 0 min 0,000 mm 0,0 UV-I 74 W/m 6,5 C 0,3 C 33,8 km/h (5 Bft) 96,00 %
18.03.2017 14:00 8,0 C 91 % 1007,1 hPa 0,2 l/m 20,6 km/h (4 Bft) SW 232 0 min 0,050 mm 0,0 UV-I 76 W/m 6,6 C 0,5 C 30,6 km/h (5 Bft) 91,43 %
18.03.2017 14:02 8,0 C 91 % 1007,2 hPa 0,0 l/m 24,2 km/h (4 Bft) W-SW 246 0 min 0,000 mm 0,0 UV-I 64 W/m 6,6 C -0,6 C 35,4 km/h (5 Bft) 98,11 %
18.03.2017 14:04 8,0 C 91 % 1007,2 hPa 0,0 l/m 20,3 km/h (4 Bft) W-SW 248 0 min 0,000 mm 0,0 UV-I 64 W/m 6,6 C 0,6 C 37,0 km/h (5 Bft) 96,23 %
18.03.2017 14:06 8,1 C 91 % 1007,2 hPa 0,0 l/m 17,6 km/h (3 Bft) SW 224 0 min 0,000 mm 0,0 UV-I 64 W/m 6,7 C 1,7 C 27,4 km/h (4 Bft) 90,24 %
18.03.2017 14:08 8,1 C 91 % 1007,3 hPa 0,0 l/m 20,8 km/h (4 Bft) W-SW 253 0 min 0,000 mm 0,0 UV-I 59 W/m 6,7 C 0,6 C 32,2 km/h (5 Bft) 95,12 %
18.03.2017 14:10 8,1 C 91 % 1007,2 hPa 0,0 l/m 20,3 km/h (4 Bft) SW 214 0 min 0,000 mm 0,0 UV-I 67 W/m 6,7 C 0,7 C 32,2 km/h (5 Bft) 92,00 %
18.03.2017 14:12 8,1 C 91 % 1007,3 hPa 0,0 l/m 22,2 km/h (4 Bft) SW 236 0 min 0,000 mm 0,0 UV-I 60 W/m 6,7 C 0,1 C 35,4 km/h (5 Bft) 98,00 %
18.03.2017 14:14 8,1 C 91 % 1007,3 hPa 0,0 l/m 20,5 km/h (4 Bft) W-SW 256 0 min 0,000 mm 0,0 UV-I 63 W/m 6,7 C 0,7 C 30,6 km/h (5 Bft) 97,73 %
18.03.2017 14:16 8,1 C 91 % 1007,2 hPa 0,0 l/m 18,9 km/h (3 Bft) W 264 0 min 0,000 mm 0,0 UV-I 61 W/m 6,7 C 1,2 C 33,8 km/h (5 Bft) 91,49 %
18.03.2017 14:18 8,1 C 91 % 1007,3 hPa 0,0 l/m 16,4 km/h (3 Bft) W-SW 246 0 min 0,000 mm 0,0 UV-I 60 W/m 6,7 C 2,2 C 22,5 km/h (4 Bft) 91,11 %
18.03.2017 14:20 8,1 C 91 % 1007,3 hPa 0,2 l/m 22,3 km/h (4 Bft) W-SW 239 0 min 0,000 mm 0,0 UV-I 56 W/m 6,7 C 0,1 C 37,0 km/h (5 Bft) 95,12 %
18.03.2017 14:22 8,1 C 91 % 1007,3 hPa 0,0 l/m 20,6 km/h (4 Bft) SW 236 0 min 0,000 mm 0,0 UV-I 47 W/m 6,7 C 0,6 C 40,2 km/h (6 Bft) 92,86 %
18.03.2017 14:24 8,1 C 91 % 1007,3 hPa 0,0 l/m 19,1 km/h (3 Bft) SW 217 0 min 0,000 mm 0,0 UV-I 53 W/m 6,7 C 1,2 C 27,4 km/h (4 Bft) 92,45 %
18.03.2017 14:26 8,1 C 91 % 1007,2 hPa 0,0 l/m 15,4 km/h (3 Bft) SW 227 0 min 0,000 mm 0,0 UV-I 51 W/m 6,7 C 2,7 C 20,9 km/h (4 Bft) 86,96 %
18.03.2017 14:28 8,1 C 91 % 1007,2 hPa 0,0 l/m 24,8 km/h (4 Bft) W-SW 242 0 min 0,000 mm 0,0 UV-I 61 W/m 6,7 C -0,7 C 38,6 km/h (5 Bft) 96,77 %
18.03.2017 14:30 8,1 C 91 % 1007,2 hPa 0,0 l/m 19,8 km/h (3 Bft) SW 231 0 min 0,000 mm 0,0 UV-I 49 W/m 6,7 C 0,9 C 24,1 km/h (4 Bft) 94,00 %
18.03.2017 14:32 8,1 C 91 % 1007,1 hPa 0,0 l/m 20,2 km/h (4 Bft) SW 232 0 min 0,000 mm 0,0 UV-I 54 W/m 6,7 C 0,8 C 27,4 km/h (4 Bft) 94,34 %
18.03.2017 14:34 8,1 C 91 % 1007,2 hPa 0,0 l/m 22,0 km/h (4 Bft) W-SW 254 0 min 0,000 mm 0,0 UV-I 56 W/m 6,7 C 0,2 C 33,8 km/h (5 Bft) 100,00 %
18.03.2017 14:36 8,2 C 90 % 1007,2 hPa 0,0 l/m 19,7 km/h (3 Bft) W-SW 244 0 min 0,000 mm 0,0 UV-I 52 W/m 6,7 C 1,1 C 27,4 km/h (4 Bft) 92,86 %
18.03.2017 14:38 8,2 C 90 % 1007,2 hPa 0,0 l/m 17,2 km/h (3 Bft) W-SW 244 0 min 0,000 mm 0,0 UV-I 55 W/m 6,7 C 2,0 C 24,1 km/h (4 Bft) 93,18 %
18.03.2017 14:40 8,2 C 91 % 1007,3 hPa 0,0 l/m 16,5 km/h (3 Bft) W-SW 244 0 min 0,000 mm 0,0 UV-I 46 W/m 6,8 C 2,3 C 22,5 km/h (4 Bft) 95,12 %
18.03.2017 14:42 8,1 C 91 % 1007,3 hPa 0,0 l/m 18,2 km/h (3 Bft) SW 233 0 min 0,000 mm 0,0 UV-I 41 W/m 6,7 C 1,5 C 27,4 km/h (4 Bft) 95,74 %
18.03.2017 14:44 8,1 C 90 % 1007,2 hPa 0,0 l/m 19,1 km/h (3 Bft) W-SW 239 0 min 0,000 mm 0,0 UV-I 44 W/m 6,6 C 1,2 C 27,4 km/h (4 Bft) 95,45 %
18.03.2017 14:46 8,2 C 90 % 1007,2 hPa 0,0 l/m 22,9 km/h (4 Bft) W-SW 255 0 min 0,000 mm 0,0 UV-I 54 W/m 6,7 C 0,0 C 32,2 km/h (5 Bft) 93,62 %
18.03.2017 14:48 8,2 C 90 % 1007,3 hPa 0,0 l/m 18,8 km/h (3 Bft) SW 230 0 min 0,000 mm 0,0 UV-I 50 W/m 6,7 C 1,4 C 27,4 km/h (4 Bft) 98,00 %
18.03.2017 14:50 8,2 C 90 % 1007,3 hPa 0,2 l/m 23,4 km/h (4 Bft) SW 214 0 min 0,000 mm 0,0 UV-I 48 W/m 6,7 C -0,1 C 32,2 km/h (5 Bft) 96,00 %
18.03.2017 14:52 8,2 C 90 % 1007,3 hPa 0,0 l/m 16,3 km/h (3 Bft) W-SW 252 0 min 0,000 mm 0,0 UV-I 49 W/m 6,7 C 2,4 C 22,5 km/h (4 Bft) 100,00 %
18.03.2017 14:54 8,2 C 90 % 1007,3 hPa 0,0 l/m 18,6 km/h (3 Bft) SW 217 0 min 0,000 mm 0,0 UV-I 47 W/m 6,7 C 1,5 C 29,0 km/h (5 Bft) 96,00 %
18.03.2017 14:56 8,2 C 90 % 1007,3 hPa 0,0 l/m 22,6 km/h (4 Bft) W-SW 249 0 min 0,000 mm 0,0 UV-I 46 W/m 6,7 C 0,1 C 30,6 km/h (5 Bft) 92,00 %
18.03.2017 14:58 8,3 C 90 % 1007,4 hPa 0,0 l/m 22,1 km/h (4 Bft) SW 235 0 min 0,000 mm 0,0 UV-I 42 W/m 6,8 C 0,4 C 32,2 km/h (5 Bft) 94,00 %
18.03.2017 15:00 8,3 C 89 % 1007,3 hPa 0,0 l/m 22,9 km/h (4 Bft) W-SW 240 0 min 0,051 mm 0,0 UV-I 49 W/m 6,6 C 0,1 C 32,2 km/h (5 Bft) 96,30 %
18.03.2017 15:02 8,3 C 90 % 1007,6 hPa 0,0 l/m 18,0 km/h (3 Bft) S-SW 211 0 min 0,000 mm 0,0 UV-I 45 W/m 6,8 C 1,8 C 27,4 km/h (4 Bft) 95,38 %
18.03.2017 15:04 8,3 C 90 % 1007,4 hPa 0,0 l/m 19,0 km/h (3 Bft) W-SW 251 0 min 0,000 mm 0,0 UV-I 43 W/m 6,8 C 1,4 C 27,4 km/h (4 Bft) 97,56 %
18.03.2017 15:06 8,3 C 90 % 1007,2 hPa 0,0 l/m 19,8 km/h (3 Bft) SW 227 0 min 0,000 mm 0,0 UV-I 46 W/m 6,8 C 1,2 C 33,8 km/h (5 Bft) 96,43 %
18.03.2017 15:08 8,3 C 90 % 1007,3 hPa 0,0 l/m 20,7 km/h (4 Bft) W-SW 257 0 min 0,000 mm 0,0 UV-I 47 W/m 6,8 C 0,9 C 33,8 km/h (5 Bft) 92,68 %
18.03.2017 15:10 8,3 C 90 % 1007,3 hPa 0,0 l/m 22,4 km/h (4 Bft) W-SW 253 0 min 0,000 mm 0,0 UV-I 40 W/m 6,8 C 0,3 C 32,2 km/h (5 Bft) 100,00 %
18.03.2017 15:12 8,3 C 89 % 1007,4 hPa 0,0 l/m 22,9 km/h (4 Bft) W-SW 250 0 min 0,000 mm 0,0 UV-I 38 W/m 6,6 C 0,1 C 35,4 km/h (5 Bft) 100,00 %
18.03.2017 15:14 8,3 C 89 % 1007,2 hPa 0,0 l/m 25,6 km/h (4 Bft) W 260 0 min 0,000 mm 0,0 UV-I 39 W/m 6,6 C -0,6 C 35,4 km/h (5 Bft) 90,91 %
18.03.2017 15:16 8,3 C 89 % 1007,2 hPa 0,0 l/m 21,0 km/h (4 Bft) SW 226 0 min 0,000 mm 0,0 UV-I 40 W/m 6,6 C 0,7 C 29,0 km/h (5 Bft) 96,23 %
18.03.2017 15:18 8,3 C 89 % 1007,2 hPa 0,0 l/m 21,8 km/h (4 Bft) W-SW 252 0 min 0,000 mm 0,0 UV-I 37 W/m 6,6 C 0,5 C 33,8 km/h (5 Bft) 97,37 %
18.03.2017 15:20 8,3 C 89 % 1007,3 hPa 0,0 l/m 23,3 km/h (4 Bft) SW 225 0 min 0,000 mm 0,0 UV-I 35 W/m 6,6 C 0,0 C 40,2 km/h (6 Bft) 96,00 %
18.03.2017 15:22 8,3 C 89 % 1007,3 hPa 0,0 l/m 21,5 km/h (4 Bft) W-SW 238 0 min 0,000 mm 0,0 UV-I 32 W/m 6,6 C 0,6 C 29,0 km/h (5 Bft) 90,24 %
18.03.2017 15:24 8,3 C 89 % 1007,3 hPa 0,0 l/m 24,8 km/h (4 Bft) SW 225 0 min 0,000 mm 0,0 UV-I 30 W/m 6,6 C -0,4 C 32,2 km/h (5 Bft) 96,00 %
18.03.2017 15:26 8,3 C 89 % 1007,2 hPa 0,0 l/m 21,6 km/h (4 Bft) SW 215 0 min 0,000 mm 0,0 UV-I 31 W/m 6,6 C 0,6 C 37,0 km/h (5 Bft) 95,74 %
18.03.2017 15:28 8,3 C 89 % 1007,1 hPa 0,0 l/m 20,1 km/h (4 Bft) SW 229 0 min 0,000 mm 0,0 UV-I 32 W/m 6,6 C 1,1 C 32,2 km/h (5 Bft) 92,86 %
18.03.2017 15:30 8,3 C 89 % 1007,1 hPa 0,0 l/m 25,1 km/h (4 Bft) W-SW 239 0 min 0,000 mm 0,0 UV-I 28 W/m 6,6 C -0,5 C 40,2 km/h (6 Bft) 88,89 %
18.03.2017 15:32 8,3 C 89 % 1007,1 hPa 0,0 l/m 24,8 km/h (4 Bft) W-SW 240 0 min 0,000 mm 0,0 UV-I 31 W/m 6,6 C -0,4 C 32,2 km/h (5 Bft) 93,44 %
18.03.2017 15:34 8,4 C 89 % 1007,0 hPa 0,0 l/m 24,0 km/h (4 Bft) SW 223 0 min 0,000 mm 0,0 UV-I 32 W/m 6,7 C -0,1 C 33,8 km/h (5 Bft) 96,00 %
18.03.2017 15:36 8,4 C 89 % 1007,1 hPa 0,0 l/m 24,0 km/h (4 Bft) SW 225 0 min 0,000 mm 0,0 UV-I 32 W/m 6,7 C -0,1 C 41,8 km/h (6 Bft) 95,12 %
18.03.2017 15:38 8,4 C 89 % 1007,0 hPa 0,0 l/m 25,4 km/h (4 Bft) S-SW 203 0 min 0,000 mm 0,0 UV-I 32 W/m 6,7 C -0,4 C 43,5 km/h (6 Bft) 91,67 %
18.03.2017 15:40 8,4 C 89 % 1007,0 hPa 0,0 l/m 26,0 km/h (4 Bft) S-SW 208 0 min 0,000 mm 0,0 UV-I 35 W/m 6,7 C -0,6 C 38,6 km/h (5 Bft) 94,74 %
18.03.2017 15:42 8,4 C 89 % 1007,0 hPa 0,0 l/m 25,2 km/h (4 Bft) W-SW 242 0 min 0,000 mm 0,0 UV-I 29 W/m 6,7 C -0,4 C 40,2 km/h (6 Bft) 92,86 %
18.03.2017 15:44 8,4 C 88 % 1007,0 hPa 0,0 l/m 29,9 km/h (5 Bft) W-SW 242 0 min 0,000 mm 0,0 UV-I 26 W/m 6,5 C -1,6 C 43,5 km/h (6 Bft) 90,91 %
18.03.2017 15:46 8,4 C 88 % 1007,1 hPa 0,0 l/m 26,0 km/h (4 Bft) W 263 0 min 0,000 mm 0,0 UV-I 27 W/m 6,5 C -0,6 C 37,0 km/h (5 Bft) 94,00 %
18.03.2017 15:50 8,4 C 88 % 1007,1 hPa 0,0 l/m 25,7 km/h (4 Bft) SW 225 0 min 0,000 mm 0,0 UV-I 31 W/m 6,5 C -0,5 C 43,5 km/h (6 Bft) 96,49 %
18.03.2017 15:54 8,4 C 88 % 1007,0 hPa 0,0 l/m 15,3 km/h (3 Bft) W-SW 247 0 min 0,000 mm 0,0 UV-I 35 W/m 6,5 C 3,1 C 22,5 km/h (4 Bft) 75,00 %
18.03.2017 15:56 8,4 C 88 % 1006,9 hPa 0,0 l/m 20,4 km/h (4 Bft) SW 225 0 min 0,000 mm 0,0 UV-I 37 W/m 6,5 C 1,1 C 27,4 km/h (4 Bft) 97,26 %
18.03.2017 15:58 8,4 C 88 % 1006,9 hPa 0,0 l/m 30,4 km/h (5 Bft) W-SW 246 0 min 0,000 mm 0,0 UV-I 35 W/m 6,5 C -1,7 C 40,2 km/h (6 Bft) 97,56 %
18.03.2017 16:00 8,4 C 88 % 1007,0 hPa 0,0 l/m 30,1 km/h (5 Bft) W-SW 244 0 min 0,051 mm 0,0 UV-I 33 W/m 6,5 C -1,6 C 41,8 km/h (6 Bft) 94,34 %
18.03.2017 16:02 8,4 C 88 % 1007,0 hPa 0,0 l/m 27,1 km/h (4 Bft) SW 227 0 min 0,000 mm 0,0 UV-I 34 W/m 6,5 C -0,9 C 40,2 km/h (6 Bft) 93,75 %
18.03.2017 16:04 8,4 C 88 % 1007,0 hPa 0,0 l/m 24,8 km/h (4 Bft) SW 219 0 min 0,000 mm 0,0 UV-I 32 W/m 6,5 C -0,3 C 32,2 km/h (5 Bft) 96,43 %
18.03.2017 16:06 8,4 C 88 % 1006,9 hPa 0,0 l/m 29,9 km/h (5 Bft) S-SO 147 0 min 0,000 mm 0,0 UV-I 32 W/m 6,5 C -1,6 C 43,5 km/h (6 Bft) 100,00 %
18.03.2017 16:08 8,5 C 88 % 1007,0 hPa 0,0 l/m 23,6 km/h (4 Bft) W-SW 250 0 min 0,000 mm 0,0 UV-I 33 W/m 6,6 C 0,2 C 37,0 km/h (5 Bft) 91,55 %
18.03.2017 16:10 8,4 C 88 % 1006,9 hPa 0,0 l/m 26,1 km/h (4 Bft) W-SW 248 0 min 0,000 mm 0,0 UV-I 33 W/m 6,5 C -0,6 C 43,5 km/h (6 Bft) 93,18 %
18.03.2017 16:12 8,5 C 88 % 1007,0 hPa 0,0 l/m 23,2 km/h (4 Bft) W-SW 240 0 min 0,000 mm 0,0 UV-I 34 W/m 6,6 C 0,3 C 37,0 km/h (5 Bft) 95,74 %
18.03.2017 16:13 8,4 C 88 % 1007,0 hPa 0,0 l/m 22,7 km/h (4 Bft) SW 221 0 min 0,000 mm 0,0 UV-I 31 W/m 6,5 C 0,3 C 29,0 km/h (5 Bft) 95,83 %
18.03.2017 16:14 8,4 C 88 % 1007,1 hPa 0,0 l/m 23,6 km/h (4 Bft) SW 229 0 min 0,000 mm 0,0 UV-I 28 W/m 6,5 C 0,1 C 32,2 km/h (5 Bft) 85,71 %
18.03.2017 16:15 8,4 C 88 % 1006,9 hPa 0,0 l/m 21,4 km/h (4 Bft) SW 236 0 min 0,000 mm 0,0 UV-I 28 W/m 6,5 C 0,7 C 35,4 km/h (5 Bft) 93,33 %
18.03.2017 16:16 8,5 C 88 % 1007,1 hPa 0,0 l/m 22,5 km/h (4 Bft) S 185 0 min 0,000 mm 0,0 UV-I 26 W/m 6,6 C 0,5 C 30,6 km/h (5 Bft) 92,31 %
18.03.2017 16:17 8,4 C 88 % 1007,0 hPa 0,0 l/m 27,9 km/h (4 Bft) W-SW 250 0 min 0,000 mm 0,0 UV-I 26 W/m 6,5 C -1,1 C 41,8 km/h (6 Bft) 91,67 %
18.03.2017 16:18 8,4 C 87 % 1007,0 hPa 0,0 l/m 22,1 km/h (4 Bft) W-SW 253 0 min 0,000 mm 0,0 UV-I 28 W/m 6,4 C 0,5 C 25,7 km/h (4 Bft) 96,09 %
18.03.2017 16:19 8,5 C 87 % 1007,0 hPa 0,0 l/m 28,6 km/h (4 Bft) W-SW 240 0 min 0,000 mm 0,0 UV-I 26 W/m 6,5 C -1,1 C 43,5 km/h (6 Bft) 95,74 %
18.03.2017 16:20 8,4 C 87 % 1007,0 hPa 0,0 l/m 22,5 km/h (4 Bft) SW 223 0 min 0,000 mm 0,0 UV-I 26 W/m 6,4 C 0,4 C 37,0 km/h (5 Bft) 100,00 %
18.03.2017 16:21 8,5 C 87 % 1007,0 hPa 0,0 l/m 27,8 km/h (4 Bft) SW 235 0 min 0,000 mm 0,0 UV-I 25 W/m 6,5 C -0,9 C 37,0 km/h (5 Bft) 88,46 %
18.03.2017 16:22 8,5 C 87 % 1007,0 hPa 0,0 l/m 23,0 km/h (4 Bft) SW 236 0 min 0,000 mm 0,0 UV-I 23 W/m 6,5 C 0,4 C 33,8 km/h (5 Bft) 88,46 %
18.03.2017 16:23 8,5 C 87 % 1007,1 hPa 0,0 l/m 33,9 km/h (5 Bft) SW 227 0 min 0,000 mm 0,0 UV-I 25 W/m 6,5 C -2,3 C 48,3 km/h (6 Bft) 95,83 %
18.03.2017 16:24 8,5 C 87 % 1007,1 hPa 0,0 l/m 30,9 km/h (5 Bft) W-SW 237 0 min 0,000 mm 0,0 UV-I 28 W/m 6,5 C -1,7 C 38,6 km/h (5 Bft) 89,66 %
18.03.2017 16:25 8,5 C 87 % 1007,1 hPa 0,0 l/m 26,2 km/h (4 Bft) SW 224 0 min 0,000 mm 0,0 UV-I 28 W/m 6,5 C -0,5 C 35,4 km/h (5 Bft) 91,67 %
18.03.2017 16:26 8,5 C 87 % 1007,1 hPa 0,0 l/m 29,6 km/h (5 Bft) SW 236 0 min 0,000 mm 0,0 UV-I 29 W/m 6,5 C -1,4 C 40,2 km/h (6 Bft) 87,50 %
18.03.2017 16:27 8,5 C 87 % 1007,1 hPa 0,0 l/m 23,0 km/h (4 Bft) W-SW 240 0 min 0,000 mm 0,0 UV-I 27 W/m 6,5 C 0,4 C 33,8 km/h (5 Bft) 100,00 %
18.03.2017 16:28 8,5 C 87 % 1007,1 hPa 0,0 l/m 23,0 km/h (4 Bft) W-SW 247 0 min 0,000 mm 0,0 UV-I 26 W/m 6,5 C 0,4 C 30,6 km/h (5 Bft) 91,67 %
18.03.2017 16:29 8,5 C 87 % 1007,2 hPa 0,0 l/m 24,9 km/h (4 Bft) SW 229 0 min 0,000 mm 0,0 UV-I 25 W/m 6,5 C -0,2 C 30,6 km/h (5 Bft) 96,15 %
18.03.2017 16:30 8,5 C 87 % 1007,2 hPa 0,0 l/m 18,8 km/h (3 Bft) SW 227 0 min 0,000 mm 0,0 UV-I 26 W/m 6,5 C 1,8 C 27,4 km/h (4 Bft) 91,67 %
18.03.2017 16:31 8,4 C 87 % 1007,3 hPa 0,0 l/m 25,4 km/h (4 Bft) W-SW 253 0 min 0,000 mm 0,0 UV-I 25 W/m 6,4 C -0,4 C 35,4 km/h (5 Bft) 96,55 %
18.03.2017 16:32 8,4 C 87 % 1007,2 hPa 0,0 l/m 22,1 km/h (4 Bft) SW 230 0 min 0,000 mm 0,0 UV-I 20 W/m 6,4 C 0,5 C 35,4 km/h (5 Bft) 91,67 %
18.03.2017 16:33 8,4 C 87 % 1007,4 hPa 0,0 l/m 23,3 km/h (4 Bft) SW 223 0 min 0,000 mm 0,0 UV-I 19 W/m 6,4 C 0,2 C 30,6 km/h (5 Bft) 88,46 %
18.03.2017 16:34 8,4 C 88 % 1007,3 hPa 0,0 l/m 17,0 km/h (3 Bft) SW 219 0 min 0,000 mm 0,0 UV-I 18 W/m 6,5 C 2,3 C 22,5 km/h (4 Bft) 100,00 %
18.03.2017 16:35 8,4 C 88 % 1007,4 hPa 0,0 l/m 25,0 km/h (4 Bft) W-SW 244 0 min 0,000 mm 0,0 UV-I 18 W/m 6,5 C -0,3 C 38,6 km/h (5 Bft) 90,91 %
18.03.2017 16:36 8,4 C 88 % 1007,3 hPa 0,0 l/m 25,2 km/h (4 Bft) W-SW 238 0 min 0,000 mm 0,0 UV-I 18 W/m 6,5 C -0,4 C 35,4 km/h (5 Bft) 96,67 %
18.03.2017 16:37 8,4 C 88 % 1007,3 hPa 0,0 l/m 29,0 km/h (5 Bft) S-SW 212 0 min 0,000 mm 0,0 UV-I 18 W/m 6,5 C -1,4 C 37,0 km/h (5 Bft) 100,00 %
18.03.2017 16:38 8,4 C 88 % 1007,4 hPa 0,0 l/m 19,0 km/h (3 Bft) W-SW 252 0 min 0,000 mm 0,0 UV-I 17 W/m 6,5 C 1,6 C 25,7 km/h (4 Bft) 88,24 %
18.03.2017 16:39 8,3 C 88 % 1007,5 hPa 0,0 l/m 17,4 km/h (3 Bft) W-SW 248 0 min 0,000 mm 0,0 UV-I 16 W/m 6,4 C 2,1 C 24,1 km/h (4 Bft) 92,31 %
18.03.2017 16:40 8,3 C 88 % 1007,5 hPa 0,0 l/m 22,2 km/h (4 Bft) SW 234 0 min 0,000 mm 0,0 UV-I 16 W/m 6,4 C 0,4 C 30,6 km/h (5 Bft) 92,59 %
18.03.2017 16:41 8,3 C 88 % 1007,9 hPa 0,0 l/m 27,1 km/h (4 Bft) W-SW 240 0 min 0,000 mm 0,0 UV-I 14 W/m 6,4 C -1,0 C 35,4 km/h (5 Bft) 100,00 %
18.03.2017 16:42 8,3 C 88 % 1007,6 hPa 0,0 l/m 24,3 km/h (4 Bft) SW 236 0 min 0,000 mm 0,0 UV-I 12 W/m 6,4 C -0,3 C 37,0 km/h (5 Bft) 100,00 %
18.03.2017 16:43 8,3 C 88 % 1007,6 hPa 0,0 l/m 21,2 km/h (4 Bft) SW 232 0 min 0,000 mm 0,0 UV-I 13 W/m 6,4 C 0,7 C 25,7 km/h (4 Bft) 96,15 %
18.03.2017 16:44 8,3 C 88 % 1007,6 hPa 0,0 l/m 26,6 km/h (4 Bft) SW 231 0 min 0,000 mm 0,0 UV-I 13 W/m 6,4 C -0,9 C 37,0 km/h (5 Bft) 91,67 %
18.03.2017 16:45 8,3 C 88 % 1007,6 hPa 0,0 l/m 21,6 km/h (4 Bft) W-SW 244 0 min 0,000 mm 0,0 UV-I 11 W/m 6,4 C 0,6 C 30,6 km/h (5 Bft) 95,83 %
18.03.2017 16:46 8,3 C 88 % 1007,6 hPa 0,0 l/m 19,2 km/h (3 Bft) W 268 0 min 0,000 mm 0,0 UV-I 11 W/m 6,4 C 1,4 C 24,1 km/h (4 Bft) 90,91 %
18.03.2017 16:47 8,3 C 88 % 1007,6 hPa 0,0 l/m 24,5 km/h (4 Bft) W-SW 241 0 min 0,000 mm 0,0 UV-I 12 W/m 6,4 C -0,3 C 35,4 km/h (5 Bft) 92,59 %
18.03.2017 16:48 8,3 C 88 % 1007,6 hPa 0,0 l/m 21,5 km/h (4 Bft) S-SW 207 0 min 0,000 mm 0,0 UV-I 12 W/m 6,4 C 0,6 C 29,0 km/h (5 Bft) 95,65 %
18.03.2017 16:49 8,3 C 88 % 1007,7 hPa 0,0 l/m 24,6 km/h (4 Bft) W-SW 243 0 min 0,000 mm 0,0 UV-I 13 W/m 6,4 C -0,4 C 33,8 km/h (5 Bft) 100,00 %
18.03.2017 16:50 8,3 C 89 % 1007,7 hPa 0,0 l/m 17,0 km/h (3 Bft) S 180 0 min 0,000 mm 0,0 UV-I 13 W/m 6,6 C 2,2 C 27,4 km/h (4 Bft) 96,15 %
18.03.2017 16:51 8,3 C 89 % 1007,7 hPa 0,0 l/m 17,1 km/h (3 Bft) SW 224 0 min 0,000 mm 0,0 UV-I 11 W/m 6,6 C 2,2 C 22,5 km/h (4 Bft) 93,33 %
18.03.2017 16:52 8,2 C 89 % 1007,7 hPa 0,0 l/m 20,6 km/h (4 Bft) SW 231 0 min 0,000 mm 0,0 UV-I 11 W/m 6,5 C 0,8 C 29,0 km/h (5 Bft) 88,46 %
18.03.2017 16:53 8,2 C 89 % 1007,8 hPa 0,0 l/m 20,1 km/h (4 Bft) W-SW 254 0 min 0,000 mm 0,0 UV-I 11 W/m 6,5 C 0,9 C 25,7 km/h (4 Bft) 96,30 %
18.03.2017 16:54 8,2 C 89 % 1008,0 hPa 0,0 l/m 21,8 km/h (4 Bft) W-SW 252 0 min 0,000 mm 0,0 UV-I 12 W/m 6,5 C 0,4 C 33,8 km/h (5 Bft) 100,00 %
18.03.2017 16:55 8,2 C 89 % 1007,8 hPa 0,0 l/m 23,5 km/h (4 Bft) SW 222 0 min 0,000 mm 0,0 UV-I 12 W/m 6,5 C -0,2 C 30,6 km/h (5 Bft) 100,00 %
18.03.2017 16:56 8,2 C 89 % 1007,8 hPa 0,2 l/m 18,4 km/h (3 Bft) SW 227 0 min 0,000 mm 0,0 UV-I 13 W/m 6,5 C 1,5 C 30,6 km/h (5 Bft) 89,66 %
18.03.2017 16:57 8,2 C 89 % 1007,8 hPa 0,0 l/m 17,7 km/h (3 Bft) SW 229 0 min 0,000 mm 0,0 UV-I 14 W/m 6,5 C 1,8 C 30,6 km/h (5 Bft) 100,00 %
18.03.2017 16:58 8,2 C 89 % 1007,9 hPa 0,0 l/m 21,0 km/h (4 Bft) SW 217 0 min 0,000 mm 0,0 UV-I 12 W/m 6,5 C 0,6 C 29,0 km/h (5 Bft) 100,00 %
18.03.2017 16:59 8,2 C 90 % 1007,9 hPa 0,0 l/m 17,4 km/h (3 Bft) W-SW 244 0 min 0,000 mm 0,0 UV-I 14 W/m 6,7 C 1,9 C 27,4 km/h (4 Bft) 91,67 %
18.03.2017 17:00 8,2 C 90 % 1007,9 hPa 0,0 l/m 17,9 km/h (3 Bft) W-SW 243 0 min 0,000 mm 0,0 UV-I 14 W/m 6,7 C 1,7 C 24,1 km/h (4 Bft) 100,00 %
18.03.2017 17:01 8,2 C 90 % 1007,9 hPa 0,0 l/m 17,1 km/h (3 Bft) W-SW 244 0 min 0,025 mm 0,0 UV-I 15 W/m 6,7 C 2,1 C 29,0 km/h (5 Bft) 92,31 %
18.03.2017 17:02 8,2 C 90 % 1007,9 hPa 0,0 l/m 18,8 km/h (3 Bft) SW 236 0 min 0,000 mm 0,0 UV-I 16 W/m 6,7 C 1,4 C 24,1 km/h (4 Bft) 93,10 %
18.03.2017 17:03 8,1 C 90 % 1007,9 hPa 0,0 l/m 16,0 km/h (3 Bft) W 259 0 min 0,000 mm 0,0 UV-I 16 W/m 6,6 C 2,4 C 22,5 km/h (4 Bft) 100,00 %
18.03.2017 17:04 8,1 C 90 % 1007,9 hPa 0,0 l/m 17,2 km/h (3 Bft) W-SW 252 0 min 0,000 mm 0,0 UV-I 16 W/m 6,6 C 1,9 C 29,0 km/h (5 Bft) 96,00 %
18.03.2017 17:05 8,1 C 90 % 1008,0 hPa 0,0 l/m 18,1 km/h (3 Bft) SW 229 0 min 0,000 mm 0,0 UV-I 14 W/m 6,6 C 1,5 C 29,0 km/h (5 Bft) 100,00 %
18.03.2017 17:06 8,1 C 90 % 1008,0 hPa 0,0 l/m 19,2 km/h (3 Bft) SW 228 0 min 0,000 mm 0,0 UV-I 18 W/m 6,6 C 1,1 C 25,7 km/h (4 Bft) 100,00 %
18.03.2017 17:07 8,1 C 90 % 1008,0 hPa 0,0 l/m 20,5 km/h (4 Bft) SW 215 0 min 0,000 mm 0,0 UV-I 18 W/m 6,6 C 0,7 C 29,0 km/h (5 Bft) 95,65 %
18.03.2017 17:08 8,1 C 90 % 1008,0 hPa 0,0 l/m 16,7 km/h (3 Bft) W-SW 238 0 min 0,000 mm 0,0 UV-I 17 W/m 6,6 C 2,1 C 22,5 km/h (4 Bft) 100,00 %
18.03.2017 17:09 8,1 C 90 % 1008,0 hPa 0,0 l/m 18,8 km/h (3 Bft) SW 220 0 min 0,000 mm 0,0 UV-I 18 W/m 6,6 C 1,3 C 29,0 km/h (5 Bft) 94,12 %
18.03.2017 17:10 8,1 C 90 % 1007,9 hPa 0,2 l/m 20,5 km/h (4 Bft) SW 218 0 min 0,000 mm 0,0 UV-I 18 W/m 6,6 C 0,7 C 29,0 km/h (5 Bft) 96,30 %
18.03.2017 17:12 8,1 C 90 % 1007,9 hPa 0,0 l/m 18,5 km/h (3 Bft) W-SW 254 0 min 0,000 mm 0,0 UV-I 16 W/m 6,6 C 1,4 C 29,0 km/h (5 Bft) 100,00 %
18.03.2017 17:13 8,1 C 90 % 1007,9 hPa 0,0 l/m 21,2 km/h (4 Bft) SW 217 0 min 0,000 mm 0,0 UV-I 16 W/m 6,6 C 0,4 C 30,6 km/h (5 Bft) 95,65 %
18.03.2017 17:14 8,1 C 91 % 1008,1 hPa 0,0 l/m 19,7 km/h (3 Bft) S-SW 206 0 min 0,000 mm 0,0 UV-I 16 W/m 6,7 C 0,9 C 27,4 km/h (4 Bft) 100,00 %
18.03.2017 17:15 8,1 C 91 % 1007,9 hPa 0,0 l/m 21,7 km/h (4 Bft) W-SW 244 0 min 0,000 mm 0,0 UV-I 16 W/m 6,7 C 0,3 C 29,0 km/h (5 Bft) 100,00 %
18.03.2017 17:16 8,1 C 91 % 1007,9 hPa 0,0 l/m 20,4 km/h (4 Bft) W-SW 245 0 min 0,000 mm 0,0 UV-I 14 W/m 6,7 C 0,7 C 30,6 km/h (5 Bft) 96,30 %
18.03.2017 17:17 8,0 C 91 % 1007,8 hPa 0,0 l/m 23,3 km/h (4 Bft) SW 217 0 min 0,000 mm 0,0 UV-I 12 W/m 6,6 C -0,4 C 33,8 km/h (5 Bft) 100,00 %
18.03.2017 17:18 8,1 C 91 % 1007,9 hPa 0,0 l/m 23,8 km/h (4 Bft) W-SW 255 0 min 0,000 mm 0,0 UV-I 12 W/m 6,7 C -0,4 C 30,6 km/h (5 Bft) 93,33 %
18.03.2017 17:19 8,1 C 91 % 1007,8 hPa 0,0 l/m 22,1 km/h (4 Bft) S-SW 209 0 min 0,000 mm 0,0 UV-I 12 W/m 6,7 C 0,1 C 30,6 km/h (5 Bft) 91,67 %
18.03.2017 17:20 8,1 C 91 % 1007,9 hPa 0,0 l/m 19,9 km/h (4 Bft) W-SW 242 0 min 0,000 mm 0,0 UV-I 12 W/m 6,7 C 0,9 C 27,4 km/h (4 Bft) 92,31 %
18.03.2017 17:21 8,1 C 91 % 1007,8 hPa 0,0 l/m 21,3 km/h (4 Bft) W-SW 245 0 min 0,000 mm 0,0 UV-I 12 W/m 6,7 C 0,4 C 25,7 km/h (4 Bft) 100,00 %
18.03.2017 17:22 8,1 C 91 % 1007,8 hPa 0,0 l/m 17,2 km/h (3 Bft) S-SW 209 0 min 0,000 mm 0,0 UV-I 12 W/m 6,7 C 1,9 C 22,5 km/h (4 Bft) 100,00 %
18.03.2017 17:23 8,1 C 91 % 1007,9 hPa 0,0 l/m 14,4 km/h (3 Bft) W 275 0 min 0,000 mm 0,0 UV-I 12 W/m 6,7 C 3,1 C 17,7 km/h (3 Bft) 96,30 %
18.03.2017 17:24 8,1 C 91 % 1007,8 hPa 0,0 l/m 21,1 km/h (4 Bft) SW 227 0 min 0,000 mm 0,0 UV-I 12 W/m 6,7 C 0,5 C 32,2 km/h (5 Bft) 96,15 %
18.03.2017 17:25 8,1 C 91 % 1007,9 hPa 0,0 l/m 20,5 km/h (4 Bft) W-SW 249 0 min 0,000 mm 0,0 UV-I 12 W/m 6,7 C 0,7 C 33,8 km/h (5 Bft) 96,30 %
18.03.2017 17:26 8,1 C 91 % 1008,0 hPa 0,0 l/m 14,9 km/h (3 Bft) W-SW 241 0 min 0,000 mm 0,0 UV-I 12 W/m 6,7 C 2,9 C 27,4 km/h (4 Bft) 100,00 %
18.03.2017 17:28 8,0 C 91 % 1007,9 hPa 0,0 l/m 22,8 km/h (4 Bft) SW 224 0 min 0,000 mm 0,0 UV-I 14 W/m 6,6 C -0,2 C 32,2 km/h (5 Bft) 98,00 %
18.03.2017 17:29 8,1 C 91 % 1007,9 hPa 0,0 l/m 23,4 km/h (4 Bft) W-SW 237 0 min 0,000 mm 0,0 UV-I 12 W/m 6,7 C -0,3 C 33,8 km/h (5 Bft) 95,83 %
18.03.2017 17:30 8,0 C 91 % 1008,0 hPa 0,0 l/m 20,9 km/h (4 Bft) W-SW 258 0 min 0,000 mm 0,0 UV-I 13 W/m 6,6 C 0,4 C 30,6 km/h (5 Bft) 100,00 %
18.03.2017 17:31 8,0 C 91 % 1007,9 hPa 0,0 l/m 23,3 km/h (4 Bft) W-SW 244 0 min 0,000 mm 0,0 UV-I 14 W/m 6,6 C -0,4 C 30,6 km/h (5 Bft) 100,00 %
18.03.2017 17:32 8,0 C 91 % 1007,9 hPa 0,0 l/m 22,0 km/h (4 Bft) SW 229 0 min 0,000 mm 0,0 UV-I 12 W/m 6,6 C 0,0 C 33,8 km/h (5 Bft) 100,00 %
18.03.2017 17:33 8,0 C 91 % 1007,9 hPa 0,0 l/m 20,4 km/h (4 Bft) SW 232 0 min 0,000 mm 0,0 UV-I 12 W/m 6,6 C 0,6 C 29,0 km/h (5 Bft) 96,67 %
18.03.2017 17:34 8,0 C 91 % 1007,9 hPa 0,0 l/m 17,5 km/h (3 Bft) W 259 0 min 0,000 mm 0,0 UV-I 14 W/m 6,6 C 1,6 C 25,7 km/h (4 Bft) 96,15 %
18.03.2017 17:35 8,0 C 91 % 1007,9 hPa 0,0 l/m 27,4 km/h (4 Bft) SW 233 0 min 0,000 mm 0,0 UV-I 14 W/m 6,6 C -1,5 C 37,0 km/h (5 Bft) 95,83 %
18.03.2017 17:36 8,0 C 91 % 1007,9 hPa 0,0 l/m 24,2 km/h (4 Bft) SW 234 0 min 0,000 mm 0,0 UV-I 16 W/m 6,6 C -0,6 C 32,2 km/h (5 Bft) 100,00 %
18.03.2017 17:38 8,0 C 91 % 1008,0 hPa 0,0 l/m 21,0 km/h (4 Bft) S-SW 209 0 min 0,000 mm 0,0 UV-I 17 W/m 6,6 C 0,4 C 32,2 km/h (5 Bft) 92,00 %
18.03.2017 17:39 8,0 C 91 % 1008,0 hPa 0,0 l/m 21,3 km/h (4 Bft) W-SW 250 0 min 0,000 mm 0,0 UV-I 18 W/m 6,6 C 0,3 C 30,6 km/h (5 Bft) 100,00 %
18.03.2017 17:40 8,0 C 91 % 1007,9 hPa 0,0 l/m 21,3 km/h (4 Bft) S-SW 201 0 min 0,000 mm 0,0 UV-I 15 W/m 6,6 C 0,3 C 25,7 km/h (4 Bft) 91,67 %
18.03.2017 17:41 8,0 C 91 % 1007,9 hPa 0,0 l/m 20,7 km/h (4 Bft) SW 230 0 min 0,000 mm 0,0 UV-I 12 W/m 6,6 C 0,5 C 27,4 km/h (4 Bft) 100,00 %
18.03.2017 17:42 8,0 C 91 % 1008,0 hPa 0,0 l/m 23,7 km/h (4 Bft) SW 227 0 min 0,000 mm 0,0 UV-I 12 W/m 6,6 C -0,5 C 32,2 km/h (5 Bft) 100,00 %
18.03.2017 17:43 8,0 C 91 % 1007,9 hPa 0,0 l/m 18,9 km/h (3 Bft) W-SW 237 0 min 0,000 mm 0,0 UV-I 12 W/m 6,6 C 1,1 C 24,1 km/h (4 Bft) 96,55 %
18.03.2017 17:44 8,0 C 91 % 1007,9 hPa 0,0 l/m 20,1 km/h (4 Bft) W-SW 238 0 min 0,000 mm 0,0 UV-I 12 W/m 6,6 C 0,7 C 27,4 km/h (4 Bft) 96,15 %
18.03.2017 17:45 8,0 C 91 % 1007,9 hPa 0,0 l/m 20,2 km/h (4 Bft) W-SW 257 0 min 0,000 mm 0,0 UV-I 11 W/m 6,6 C 0,6 C 29,0 km/h (5 Bft) 100,00 %
18.03.2017 17:46 8,0 C 91 % 1007,9 hPa 0,0 l/m 19,3 km/h (3 Bft) SW 233 0 min 0,000 mm 0,0 UV-I 11 W/m 6,6 C 1,0 C 32,2 km/h (5 Bft) 85,19 %
18.03.2017 17:48 8,0 C 91 % 1007,9 hPa 0,0 l/m 21,8 km/h (4 Bft) SW 232 0 min 0,000 mm 0,0 UV-I 9 W/m 6,6 C 0,1 C 30,6 km/h (5 Bft) 100,00 %
18.03.2017 17:49 8,0 C 91 % 1007,9 hPa 0,0 l/m 25,8 km/h (4 Bft) W-SW 247 0 min 0,000 mm 0,0 UV-I 9 W/m 6,6 C -1,1 C 32,2 km/h (5 Bft) 95,65 %
18.03.2017 17:50 8,0 C 91 % 1007,9 hPa 0,0 l/m 22,6 km/h (4 Bft) S-SW 205 0 min 0,000 mm 0,0 UV-I 9 W/m 6,6 C -0,2 C 32,2 km/h (5 Bft) 100,00 %
18.03.2017 17:51 8,1 C 91 % 1007,9 hPa 0,0 l/m 19,8 km/h (3 Bft) W 273 0 min 0,000 mm 0,0 UV-I 9 W/m 6,7 C 0,9 C 25,7 km/h (4 Bft) 92,86 %
18.03.2017 17:52 8,1 C 91 % 1007,9 hPa 0,0 l/m 19,0 km/h (3 Bft) W-SW 242 0 min 0,000 mm 0,0 UV-I 11 W/m 6,7 C 1,2 C 25,7 km/h (4 Bft) 92,59 %
18.03.2017 17:53 8,1 C 91 % 1007,9 hPa 0,0 l/m 21,5 km/h (4 Bft) W-SW 257 0 min 0,000 mm 0,0 UV-I 11 W/m 6,7 C 0,3 C 30,6 km/h (5 Bft) 96,15 %
18.03.2017 17:54 8,1 C 91 % 1007,8 hPa 0,0 l/m 23,1 km/h (4 Bft) SW 232 0 min 0,000 mm 0,0 UV-I 11 W/m 6,7 C -0,2 C 33,8 km/h (5 Bft) 100,00 %
18.03.2017 17:55 8,1 C 91 % 1007,9 hPa 0,0 l/m 23,6 km/h (4 Bft) W-SW 239 0 min 0,000 mm 0,0 UV-I 11 W/m 6,7 C -0,3 C 33,8 km/h (5 Bft) 100,00 %
18.03.2017 17:56 8,1 C 91 % 1007,9 hPa 0,0 l/m 23,1 km/h (4 Bft) SW 214 0 min 0,000 mm 0,0 UV-I 10 W/m 6,7 C -0,2 C 27,4 km/h (4 Bft) 91,67 %
18.03.2017 17:57 8,1 C 91 % 1007,9 hPa 0,0 l/m 22,5 km/h (4 Bft) SW 228 0 min 0,000 mm 0,0 UV-I 9 W/m 6,7 C 0,0 C 33,8 km/h (5 Bft) 91,67 %
18.03.2017 17:58 8,1 C 91 % 1007,9 hPa 0,0 l/m 21,8 km/h (4 Bft) S-SW 211 0 min 0,000 mm 0,0 UV-I 7 W/m 6,7 C 0,2 C 32,2 km/h (5 Bft) 96,15 %
18.03.2017 17:59 8,1 C 91 % 1007,9 hPa 0,0 l/m 21,2 km/h (4 Bft) W 268 0 min 0,000 mm 0,0 UV-I 5 W/m 6,7 C 0,4 C 29,0 km/h (5 Bft) 96,15 %
18.03.2017 18:00 8,1 C 91 % 1007,9 hPa 0,0 l/m 19,1 km/h (3 Bft) S-SW 205 0 min 0,000 mm 0,0 UV-I 5 W/m 6,7 C 1,2 C 30,6 km/h (5 Bft) 100,00 %
18.03.2017 18:01 8,1 C 90 % 1007,9 hPa 0,0 l/m 24,8 km/h (4 Bft) SW 217 0 min 0,026 mm 0,0 UV-I 5 W/m 6,6 C -0,7 C 37,0 km/h (5 Bft) 96,15 %
18.03.2017 18:02 8,2 C 90 % 1008,0 hPa 0,0 l/m 27,0 km/h (4 Bft) SW 234 0 min 0,000 mm 0,0 UV-I 5 W/m 6,7 C -1,1 C 38,6 km/h (5 Bft) 100,00 %
18.03.2017 18:03 8,2 C 90 % 1008,0 hPa 0,0 l/m 21,7 km/h (4 Bft) SW 235 0 min 0,000 mm 0,0 UV-I 1 W/m 6,7 C 0,4 C 27,4 km/h (4 Bft) 96,67 %
18.03.2017 18:04 8,2 C 90 % 1008,0 hPa 0,0 l/m 21,6 km/h (4 Bft) W-SW 242 0 min 0,000 mm 0,0 UV-I 0 W/m 6,7 C 0,4 C 29,0 km/h (5 Bft) 92,31 %
18.03.2017 18:05 8,2 C 90 % 1008,0 hPa 0,0 l/m 26,6 km/h (4 Bft) SW 228 0 min 0,000 mm 0,0 UV-I 0 W/m 6,7 C -1,0 C 38,6 km/h (5 Bft) 95,83 %
18.03.2017 18:06 8,2 C 90 % 1008,1 hPa 0,0 l/m 23,5 km/h (4 Bft) SW 232 0 min 0,000 mm 0,0 UV-I 0 W/m 6,7 C -0,2 C 29,0 km/h (5 Bft) 100,00 %
18.03.2017 18:07 8,2 C 90 % 1008,0 hPa 0,0 l/m 20,6 km/h (4 Bft) SW 229 0 min 0,000 mm 0,0 UV-I 0 W/m 6,7 C 0,8 C 29,0 km/h (5 Bft) 100,00 %
18.03.2017 18:08 8,2 C 90 % 1008,0 hPa 0,0 l/m 20,8 km/h (4 Bft) W-SW 253 0 min 0,000 mm 0,0 UV-I 0 W/m 6,7 C 0,7 C 25,7 km/h (4 Bft) 100,00 %
18.03.2017 18:09 8,2 C 90 % 1008,0 hPa 0,0 l/m 16,2 km/h (3 Bft) W-SW 246 0 min 0,000 mm 0,0 UV-I 0 W/m 6,7 C 2,4 C 19,3 km/h (3 Bft) 100,00 %
18.03.2017 18:10 8,2 C 90 % 1008,0 hPa 0,0 l/m 23,6 km/h (4 Bft) SW 224 0 min 0,000 mm 0,0 UV-I 0 W/m 6,7 C -0,2 C 33,8 km/h (5 Bft) 93,10 %
18.03.2017 18:11 8,2 C 90 % 1008,0 hPa 0,0 l/m 26,3 km/h (4 Bft) W-SW 252 0 min 0,000 mm 0,0 UV-I 0 W/m 6,7 C -1,0 C 32,2 km/h (5 Bft) 91,67 %
18.03.2017 18:12 8,2 C 90 % 1008,0 hPa 0,0 l/m 21,9 km/h (4 Bft) S-SW 213 0 min 0,000 mm 0,0 UV-I 0 W/m 6,7 C 0,3 C 32,2 km/h (5 Bft) 96,30 %
18.03.2017 18:14 8,2 C 90 % 1008,0 hPa 0,0 l/m 22,8 km/h (4 Bft) W-SW 257 0 min 0,000 mm 0,0 UV-I 0 W/m 6,7 C 0,0 C 32,2 km/h (5 Bft) 96,61 %
18.03.2017 18:15 8,2 C 90 % 1008,0 hPa 0,0 l/m 25,5 km/h (4 Bft) W-SW 254 0 min 0,000 mm 0,0 UV-I 0 W/m 6,7 C -0,7 C 38,6 km/h (5 Bft) 100,00 %
18.03.2017 18:16 8,2 C 90 % 1008,0 hPa 0,0 l/m 22,9 km/h (4 Bft) SW 228 0 min 0,000 mm 0,0 UV-I 0 W/m 6,7 C 0,0 C 32,2 km/h (5 Bft) 100,00 %
18.03.2017 18:17 8,2 C 90 % 1008,0 hPa 0,0 l/m 19,2 km/h (3 Bft) S-SW 211 0 min 0,000 mm 0,0 UV-I 0 W/m 6,7 C 1,2 C 30,6 km/h (5 Bft) 100,00 %
18.03.2017 18:18 8,2 C 90 % 1007,9 hPa 0,0 l/m 26,3 km/h (4 Bft) SW 219 0 min 0,000 mm 0,0 UV-I 0 W/m 6,7 C -1,0 C 35,4 km/h (5 Bft) 92,86 %
18.03.2017 18:19 8,2 C 90 % 1007,9 hPa 0,0 l/m 17,6 km/h (3 Bft) SW 225 0 min 0,000 mm 0,0 UV-I 0 W/m 6,7 C 1,9 C 29,0 km/h (5 Bft) 96,30 %
18.03.2017 18:20 8,2 C 90 % 1008,0 hPa 0,0 l/m 23,1 km/h (4 Bft) W-SW 240 0 min 0,000 mm 0,0 UV-I 0 W/m 6,7 C -0,1 C 33,8 km/h (5 Bft) 93,33 %
18.03.2017 18:21 8,2 C 90 % 1008,0 hPa 0,0 l/m 21,6 km/h (4 Bft) SW 215 0 min 0,000 mm 0,0 UV-I 0 W/m 6,7 C 0,4 C 29,0 km/h (5 Bft) 100,00 %
18.03.2017 18:22 8,2 C 90 % 1008,0 hPa 0,0 l/m 23,1 km/h (4 Bft) S-SW 210 0 min 0,000 mm 0,0 UV-I 0 W/m 6,7 C -0,1 C 32,2 km/h (5 Bft) 100,00 %
18.03.2017 18:23 8,2 C 90 % 1008,0 hPa 0,0 l/m 20,6 km/h (4 Bft) W-SW 246 0 min 0,000 mm 0,0 UV-I 0 W/m 6,7 C 0,8 C 29,0 km/h (5 Bft) 88,46 %
18.03.2017 18:24 8,2 C 90 % 1008,1 hPa 0,0 l/m 17,1 km/h (3 Bft) S-SW 205 0 min 0,000 mm 0,0 UV-I 0 W/m 6,7 C 2,1 C 27,4 km/h (4 Bft) 96,15 %
18.03.2017 18:25 8,3 C 90 % 1008,0 hPa 0,0 l/m 23,1 km/h (4 Bft) W-SW 238 0 min 0,000 mm 0,0 UV-I 0 W/m 6,8 C 0,1 C 32,2 km/h (5 Bft) 93,33 %
18.03.2017 18:26 8,2 C 90 % 1008,0 hPa 0,0 l/m 21,9 km/h (4 Bft) W-SW 238 0 min 0,000 mm 0,0 UV-I 0 W/m 6,7 C 0,3 C 29,0 km/h (5 Bft) 91,67 %
18.03.2017 18:27 8,2 C 90 % 1008,0 hPa 0,0 l/m 20,9 km/h (4 Bft) S-SW 210 0 min 0,000 mm 0,0 UV-I 0 W/m 6,7 C 0,7 C 27,4 km/h (4 Bft) 92,31 %
18.03.2017 18:28 8,3 C 90 % 1008,1 hPa 0,0 l/m 27,6 km/h (4 Bft) SW 223 0 min 0,000 mm 0,0 UV-I 0 W/m 6,8 C -1,2 C 37,0 km/h (5 Bft) 96,30 %
18.03.2017 18:29 8,3 C 90 % 1008,1 hPa 0,0 l/m 17,7 km/h (3 Bft) SW 223 0 min 0,000 mm 0,0 UV-I 0 W/m 6,8 C 1,9 C 24,1 km/h (4 Bft) 95,65 %
18.03.2017 18:30 8,3 C 90 % 1008,1 hPa 0,0 l/m 18,5 km/h (3 Bft) SW 236 0 min 0,000 mm 0,0 UV-I 0 W/m 6,8 C 1,6 C 29,0 km/h (5 Bft) 96,30 %
18.03.2017 18:31 8,3 C 90 % 1008,1 hPa 0,0 l/m 20,1 km/h (4 Bft) W-SW 253 0 min 0,000 mm 0,0 UV-I 0 W/m 6,8 C 1,1 C 27,4 km/h (4 Bft) 100,00 %
18.03.2017 18:32 8,3 C 90 % 1008,1 hPa 0,0 l/m 22,2 km/h (4 Bft) W-SW 242 0 min 0,000 mm 0,0 UV-I 0 W/m 6,8 C 0,4 C 35,4 km/h (5 Bft) 87,88 %
18.03.2017 18:33 8,3 C 90 % 1008,1 hPa 0,0 l/m 25,7 km/h (4 Bft) W 261 0 min 0,000 mm 0,0 UV-I 0 W/m 6,8 C -0,7 C 38,6 km/h (5 Bft) 90,91 %
18.03.2017 18:34 8,3 C 90 % 1008,1 hPa 0,0 l/m 22,1 km/h (4 Bft) W-SW 238 0 min 0,000 mm 0,0 UV-I 0 W/m 6,8 C 0,4 C 29,0 km/h (5 Bft) 96,30 %
18.03.2017 18:35 8,3 C 90 % 1008,1 hPa 0,0 l/m 20,8 km/h (4 Bft) SW 225 0 min 0,000 mm 0,0 UV-I 0 W/m 6,8 C 0,8 C 32,2 km/h (5 Bft) 93,10 %
18.03.2017 18:36 8,3 C 90 % 1008,1 hPa 0,0 l/m 31,0 km/h (5 Bft) SW 229 0 min 0,000 mm 0,0 UV-I 0 W/m 6,8 C -2,0 C 40,2 km/h (6 Bft) 100,00 %
18.03.2017 18:37 8,3 C 90 % 1008,0 hPa 0,0 l/m 21,2 km/h (4 Bft) SW 215 0 min 0,000 mm 0,0 UV-I 0 W/m 6,8 C 0,7 C 29,0 km/h (5 Bft) 100,00 %
18.03.2017 18:38 8,3 C 90 % 1008,2 hPa 0,0 l/m 21,9 km/h (4 Bft) SW 225 0 min 0,000 mm 0,0 UV-I 0 W/m 6,8 C 0,5 C 30,6 km/h (5 Bft) 93,10 %
18.03.2017 18:39 8,3 C 90 % 1008,0 hPa 0,0 l/m 29,0 km/h (5 Bft) SW 227 0 min 0,000 mm 0,0 UV-I 0 W/m 6,8 C -1,5 C 38,6 km/h (5 Bft) 84,62 %
18.03.2017 18:40 8,3 C 90 % 1007,9 hPa 0,0 l/m 29,2 km/h (5 Bft) SW 218 0 min 0,000 mm 0,0 UV-I 0 W/m 6,8 C -1,5 C 40,2 km/h (6 Bft) 95,83 %
18.03.2017 18:41 8,3 C 89 % 1007,9 hPa 0,0 l/m 23,7 km/h (4 Bft) S-SW 199 0 min 0,000 mm 0,0 UV-I 0 W/m 6,6 C -0,1 C 30,6 km/h (5 Bft) 95,65 %
18.03.2017 18:42 8,3 C 89 % 1007,9 hPa 0,0 l/m 21,6 km/h (4 Bft) W-SW 244 0 min 0,000 mm 0,0 UV-I 0 W/m 6,6 C 0,6 C 29,0 km/h (5 Bft) 96,30 %
18.03.2017 18:43 8,3 C 89 % 1007,9 hPa 0,0 l/m 25,3 km/h (4 Bft) W-SW 248 0 min 0,000 mm 0,0 UV-I 0 W/m 6,6 C -0,6 C 33,8 km/h (5 Bft) 100,00 %
18.03.2017 18:44 8,4 C 89 % 1007,8 hPa 0,0 l/m 22,9 km/h (4 Bft) SW 234 0 min 0,000 mm 0,0 UV-I 0 W/m 6,7 C 0,3 C 37,0 km/h (5 Bft) 96,55 %
18.03.2017 18:45 8,4 C 89 % 1007,8 hPa 0,0 l/m 28,2 km/h (4 Bft) W-SW 242 0 min 0,000 mm 0,0 UV-I 0 W/m 6,7 C -1,2 C 35,4 km/h (5 Bft) 96,30 %
18.03.2017 18:46 8,4 C 89 % 1007,8 hPa 0,0 l/m 27,4 km/h (4 Bft) SW 234 0 min 0,000 mm 0,0 UV-I 0 W/m 6,7 C -1,0 C 37,0 km/h (5 Bft) 88,46 %
18.03.2017 18:47 8,4 C 89 % 1007,9 hPa 0,0 l/m 24,3 km/h (4 Bft) SW 223 0 min 0,000 mm 0,0 UV-I 0 W/m 6,7 C -0,1 C 33,8 km/h (5 Bft) 93,33 %
18.03.2017 18:48 8,4 C 89 % 1007,8 hPa 0,0 l/m 18,9 km/h (3 Bft) W 261 0 min 0,000 mm 0,0 UV-I 0 W/m 6,7 C 1,6 C 25,7 km/h (4 Bft) 96,15 %
18.03.2017 18:49 8,4 C 89 % 1007,9 hPa 0,0 l/m 20,2 km/h (4 Bft) SW 228 0 min 0,000 mm 0,0 UV-I 0 W/m 6,7 C 1,2 C 27,4 km/h (4 Bft) 100,00 %
18.03.2017 18:50 8,4 C 89 % 1007,9 hPa 0,0 l/m 25,3 km/h (4 Bft) W-SW 238 0 min 0,000 mm 0,0 UV-I 0 W/m 6,7 C -0,4 C 37,0 km/h (5 Bft) 94,12 %
18.03.2017 18:51 8,4 C 89 % 1007,8 hPa 0,0 l/m 30,1 km/h (5 Bft) S-SW 207 0 min 0,000 mm 0,0 UV-I 0 W/m 6,7 C -1,6 C 41,8 km/h (6 Bft) 100,00 %
18.03.2017 18:52 8,4 C 89 % 1007,9 hPa 0,0 l/m 24,9 km/h (4 Bft) W-SW 251 0 min 0,000 mm 0,0 UV-I 0 W/m 6,7 C -0,3 C 30,6 km/h (5 Bft) 96,88 %
18.03.2017 18:53 8,4 C 89 % 1007,8 hPa 0,0 l/m 23,1 km/h (4 Bft) SW 225 0 min 0,000 mm 0,0 UV-I 0 W/m 6,7 C 0,2 C 35,4 km/h (5 Bft) 92,59 %
18.03.2017 18:54 8,4 C 89 % 1007,9 hPa 0,0 l/m 21,8 km/h (4 Bft) SW 235 0 min 0,000 mm 0,0 UV-I 0 W/m 6,7 C 0,6 C 29,0 km/h (5 Bft) 100,00 %
18.03.2017 18:55 8,4 C 89 % 1007,9 hPa 0,0 l/m 25,6 km/h (4 Bft) W-SW 244 0 min 0,000 mm 0,0 UV-I 0 W/m 6,7 C -0,5 C 37,0 km/h (5 Bft) 92,59 %
18.03.2017 18:56 8,4 C 89 % 1007,8 hPa 0,0 l/m 25,0 km/h (4 Bft) W-SW 256 0 min 0,000 mm 0,0 UV-I 0 W/m 6,7 C -0,3 C 35,4 km/h (5 Bft) 96,04 %
18.03.2017 18:57 8,4 C 89 % 1007,9 hPa 0,0 l/m 30,5 km/h (5 Bft) SW 225 0 min 0,000 mm 0,0 UV-I 0 W/m 6,7 C -1,7 C 49,9 km/h (6 Bft) 92,68 %
18.03.2017 18:58 8,4 C 89 % 1007,8 hPa 0,0 l/m 30,5 km/h (5 Bft) SW 232 0 min 0,000 mm 0,0 UV-I 0 W/m 6,7 C -1,7 C 41,8 km/h (6 Bft) 100,00 %
18.03.2017 18:59 8,4 C 89 % 1007,8 hPa 0,0 l/m 24,1 km/h (4 Bft) SW 229 0 min 0,000 mm 0,0 UV-I 0 W/m 6,7 C -0,1 C 33,8 km/h (5 Bft) 92,86 %
18.03.2017 19:00 8,4 C 89 % 1007,8 hPa 0,0 l/m 20,2 km/h (4 Bft) SW 233 0 min 0,025 mm 0,0 UV-I 0 W/m 6,7 C 1,2 C 29,0 km/h (5 Bft) 96,30 %
18.03.2017 19:01 8,4 C 89 % 1007,8 hPa 0,0 l/m 23,8 km/h (4 Bft) W 265 0 min 0,000 mm 0,0 UV-I 0 W/m 6,7 C 0,0 C 33,8 km/h (5 Bft) 100,00 %
18.03.2017 19:02 8,4 C 89 % 1007,8 hPa 0,0 l/m 21,9 km/h (4 Bft) SW 232 0 min 0,000 mm 0,0 UV-I 0 W/m 6,7 C 0,6 C 29,0 km/h (5 Bft) 100,00 %
18.03.2017 19:03 8,4 C 89 % 1007,7 hPa 0,0 l/m 23,8 km/h (4 Bft) SW 236 0 min 0,000 mm 0,0 UV-I 0 W/m 6,7 C 0,0 C 30,6 km/h (5 Bft) 94,12 %
18.03.2017 19:04 8,4 C 89 % 1007,7 hPa 0,0 l/m 19,1 km/h (3 Bft) SW 229 0 min 0,000 mm 0,0 UV-I 0 W/m 6,7 C 1,5 C 24,1 km/h (4 Bft) 95,56 %
18.03.2017 19:05 8,4 C 89 % 1007,7 hPa 0,0 l/m 23,3 km/h (4 Bft) W-SW 250 0 min 0,000 mm 0,0 UV-I 0 W/m 6,7 C 0,2 C 29,0 km/h (5 Bft) 90,91 %
18.03.2017 19:06 8,4 C 89 % 1007,7 hPa 0,0 l/m 20,4 km/h (4 Bft) SW 229 0 min 0,000 mm 0,0 UV-I 0 W/m 6,7 C 1,1 C 25,7 km/h (4 Bft) 96,67 %
18.03.2017 19:07 8,4 C 90 % 1007,6 hPa 0,0 l/m 24,5 km/h (4 Bft) SW 225 0 min 0,000 mm 0,0 UV-I 0 W/m 6,9 C -0,2 C 37,0 km/h (5 Bft) 88,46 %
18.03.2017 19:08 8,4 C 90 % 1007,7 hPa 0,0 l/m 23,3 km/h (4 Bft) W-SW 244 0 min 0,000 mm 0,0 UV-I 0 W/m 6,9 C 0,2 C 33,8 km/h (5 Bft) 95,83 %
18.03.2017 19:09 8,3 C 90 % 1007,6 hPa 0,0 l/m 28,0 km/h (4 Bft) S-SW 212 0 min 0,000 mm 0,0 UV-I 0 W/m 6,8 C -1,3 C 37,0 km/h (5 Bft) 100,00 %
18.03.2017 19:10 8,4 C 90 % 1007,6 hPa 0,0 l/m 24,4 km/h (4 Bft) SW 236 0 min 0,000 mm 0,0 UV-I 0 W/m 6,9 C -0,2 C 35,4 km/h (5 Bft) 100,00 %
18.03.2017 19:11 8,3 C 90 % 1007,7 hPa 0,0 l/m 27,4 km/h (4 Bft) W-SW 250 0 min 0,000 mm 0,0 UV-I 0 W/m 6,8 C -1,1 C 40,2 km/h (6 Bft) 100,00 %
18.03.2017 19:12 8,3 C 90 % 1007,6 hPa 0,2 l/m 23,5 km/h (4 Bft) W-SW 248 0 min 0,000 mm 0,0 UV-I 0 W/m 6,8 C -0,0 C 30,6 km/h (5 Bft) 100,00 %
18.03.2017 19:13 8,3 C 90 % 1007,6 hPa 0,0 l/m 26,1 km/h (4 Bft) W-SW 240 0 min 0,000 mm 0,0 UV-I 0 W/m 6,8 C -0,8 C 35,4 km/h (5 Bft) 100,00 %
18.03.2017 19:14 8,3 C 90 % 1007,7 hPa 0,0 l/m 26,3 km/h (4 Bft) W-SW 250 0 min 0,000 mm 0,0 UV-I 0 W/m 6,8 C -0,8 C 38,6 km/h (5 Bft) 100,00 %
18.03.2017 19:15 8,3 C 90 % 1007,7 hPa 0,0 l/m 21,2 km/h (4 Bft) W 268 0 min 0,000 mm 0,0 UV-I 0 W/m 6,8 C 0,7 C 32,2 km/h (5 Bft) 100,00 %
18.03.2017 19:16 8,3 C 90 % 1007,7 hPa 0,0 l/m 24,8 km/h (4 Bft) W 263 0 min 0,000 mm 0,0 UV-I 0 W/m 6,8 C -0,4 C 40,2 km/h (6 Bft) 96,55 %
18.03.2017 19:17 8,3 C 90 % 1007,7 hPa 0,2 l/m 31,2 km/h (5 Bft) SW 215 0 min 0,000 mm 0,0 UV-I 0 W/m 6,8 C -2,0 C 41,8 km/h (6 Bft) 96,15 %
18.03.2017 19:18 8,3 C 90 % 1007,7 hPa 0,0 l/m 23,2 km/h (4 Bft) W-SW 250 0 min 0,000 mm 0,0 UV-I 0 W/m 6,8 C 0,1 C 32,2 km/h (5 Bft) 96,06 %
18.03.2017 19:19 8,3 C 90 % 1007,7 hPa 0,0 l/m 27,9 km/h (4 Bft) W-SW 249 0 min 0,000 mm 0,0 UV-I 0 W/m 6,8 C -1,2 C 38,6 km/h (5 Bft) 100,00 %
18.03.2017 19:20 8,3 C 90 % 1007,8 hPa 0,0 l/m 28,2 km/h (4 Bft) S-SW 209 0 min 0,000 mm 0,0 UV-I 0 W/m 6,8 C -1,3 C 38,6 km/h (5 Bft) 100,00 %
18.03.2017 19:22 8,3 C 90 % 1007,6 hPa 0,0 l/m 27,4 km/h (4 Bft) W-SW 237 0 min 0,000 mm 0,0 UV-I 0 W/m 6,8 C -1,1 C 38,6 km/h (5 Bft) 100,00 %
18.03.2017 19:23 8,3 C 91 % 1007,6 hPa 0,0 l/m 30,3 km/h (5 Bft) W-SW 239 0 min 0,000 mm 0,0 UV-I 0 W/m 6,9 C -1,8 C 37,0 km/h (5 Bft) 96,30 %
18.03.2017 19:24 8,3 C 91 % 1007,7 hPa 0,2 l/m 28,7 km/h (4 Bft) W 260 0 min 0,000 mm 0,0 UV-I 0 W/m 6,9 C -1,4 C 38,6 km/h (5 Bft) 95,65 %
18.03.2017 19:25 8,3 C 91 % 1007,7 hPa 0,0 l/m 25,4 km/h (4 Bft) W-SW 248 0 min 0,000 mm 0,0 UV-I 0 W/m 6,9 C -0,6 C 38,6 km/h (5 Bft) 96,30 %
18.03.2017 19:26 8,3 C 91 % 1007,8 hPa 0,0 l/m 24,4 km/h (4 Bft) W-SW 245 0 min 0,000 mm 0,0 UV-I 0 W/m 6,9 C -0,3 C 33,8 km/h (5 Bft) 92,86 %
18.03.2017 19:27 8,3 C 91 % 1007,7 hPa 0,0 l/m 26,5 km/h (4 Bft) S-SW 211 0 min 0,000 mm 0,0 UV-I 0 W/m 6,9 C -0,9 C 33,8 km/h (5 Bft) 93,33 %
18.03.2017 19:28 8,2 C 91 % 1007,6 hPa 0,0 l/m 26,8 km/h (4 Bft) W-SW 244 0 min 0,000 mm 0,0 UV-I 0 W/m 6,8 C -1,1 C 41,8 km/h (6 Bft) 89,66 %
18.03.2017 19:29 8,3 C 91 % 1007,8 hPa 0,0 l/m 22,3 km/h (4 Bft) SW 216 0 min 0,000 mm 0,0 UV-I 0 W/m 6,9 C 0,3 C 30,6 km/h (5 Bft) 100,00 %
18.03.2017 19:30 8,2 C 91 % 1007,8 hPa 0,0 l/m 30,1 km/h (5 Bft) SW 233 0 min 0,000 mm 0,0 UV-I 0 W/m 6,8 C -1,9 C 41,8 km/h (6 Bft) 88,89 %
18.03.2017 19:31 8,3 C 91 % 1007,7 hPa 0,0 l/m 21,9 km/h (4 Bft) W-SW 241 0 min 0,000 mm 0,0 UV-I 0 W/m 6,9 C 0,5 C 29,0 km/h (5 Bft) 93,18 %
18.03.2017 19:32 8,2 C 91 % 1007,7 hPa 0,0 l/m 17,8 km/h (3 Bft) SW 222 0 min 0,000 mm 0,0 UV-I 0 W/m 6,8 C 1,8 C 27,4 km/h (4 Bft) 81,82 %
18.03.2017 19:33 8,2 C 91 % 1007,7 hPa 0,0 l/m 26,1 km/h (4 Bft) W 261 0 min 0,000 mm 0,0 UV-I 0 W/m 6,8 C -0,9 C 37,0 km/h (5 Bft) 100,00 %
18.03.2017 19:34 8,2 C 91 % 1007,6 hPa 0,0 l/m 24,5 km/h (4 Bft) W-SW 243 0 min 0,000 mm 0,0 UV-I 0 W/m 6,8 C -0,5 C 32,2 km/h (5 Bft) 92,31 %
18.03.2017 19:35 8,2 C 91 % 1007,6 hPa 0,2 l/m 26,3 km/h (4 Bft) SW 218 0 min 0,000 mm 0,0 UV-I 0 W/m 6,8 C -1,0 C 35,4 km/h (5 Bft) 100,00 %
18.03.2017 19:36 8,2 C 91 % 1007,6 hPa 0,0 l/m 26,4 km/h (4 Bft) SW 219 0 min 0,000 mm 0,0 UV-I 0 W/m 6,8 C -1,0 C 35,4 km/h (5 Bft) 96,15 %
18.03.2017 19:37 8,2 C 91 % 1007,7 hPa 0,0 l/m 30,7 km/h (5 Bft) W-SW 253 0 min 0,000 mm 0,0 UV-I 0 W/m 6,8 C -2,0 C 37,0 km/h (5 Bft) 100,00 %
18.03.2017 19:38 8,2 C 91 % 1007,6 hPa 0,0 l/m 24,2 km/h (4 Bft) W-SW 250 0 min 0,000 mm 0,0 UV-I 0 W/m 6,8 C -0,4 C 37,0 km/h (5 Bft) 92,31 %
18.03.2017 19:39 8,2 C 91 % 1007,7 hPa 0,0 l/m 27,0 km/h (4 Bft) S-SW 213 0 min 0,000 mm 0,0 UV-I 0 W/m 6,8 C -1,1 C 37,0 km/h (5 Bft) 100,00 %
18.03.2017 19:40 8,2 C 91 % 1007,6 hPa 0,0 l/m 22,7 km/h (4 Bft) S-SW 208 0 min 0,000 mm 0,0 UV-I 0 W/m 6,8 C 0,1 C 29,0 km/h (5 Bft) 90,00 %
18.03.2017 19:41 8,2 C 91 % 1007,7 hPa 0,0 l/m 23,4 km/h (4 Bft) W-SW 238 0 min 0,000 mm 0,0 UV-I 0 W/m 6,8 C -0,1 C 32,2 km/h (5 Bft) 89,66 %
18.03.2017 19:42 8,2 C 91 % 1007,6 hPa 0,0 l/m 18,1 km/h (3 Bft) W-SW 251 0 min 0,000 mm 0,0 UV-I 0 W/m 6,8 C 1,7 C 27,4 km/h (4 Bft) 100,00 %
18.03.2017 19:43 8,2 C 91 % 1007,6 hPa 0,0 l/m 22,7 km/h (4 Bft) SW 234 0 min 0,000 mm 0,0 UV-I 0 W/m 6,8 C 0,1 C 35,4 km/h (5 Bft) 100,00 %
18.03.2017 19:44 8,2 C 91 % 1007,6 hPa 0,0 l/m 24,2 km/h (4 Bft) W-SW 238 0 min 0,000 mm 0,0 UV-I 0 W/m 6,8 C -0,4 C 33,8 km/h (5 Bft) 96,30 %
18.03.2017 19:45 8,2 C 91 % 1007,6 hPa 0,0 l/m 22,8 km/h (4 Bft) SW 232 0 min 0,000 mm 0,0 UV-I 0 W/m 6,8 C 0,0 C 32,2 km/h (5 Bft) 88,46 %
18.03.2017 19:46 8,2 C 91 % 1007,5 hPa 0,0 l/m 30,6 km/h (5 Bft) S-SW 213 0 min 0,000 mm 0,0 UV-I 0 W/m 6,8 C -2,0 C 37,0 km/h (5 Bft) 88,89 %
18.03.2017 19:47 8,2 C 91 % 1007,5 hPa 0,0 l/m 30,8 km/h (5 Bft) SW 232 0 min 0,000 mm 0,0 UV-I 0 W/m 6,8 C -2,1 C 38,6 km/h (5 Bft) 91,30 %
18.03.2017 19:48 8,2 C 91 % 1007,4 hPa 0,0 l/m 24,0 km/h (4 Bft) W 260 0 min 0,000 mm 0,0 UV-I 0 W/m 6,8 C -0,3 C 38,6 km/h (5 Bft) 93,33 %
18.03.2017 19:49 8,3 C 91 % 1007,4 hPa 0,0 l/m 22,2 km/h (4 Bft) SW 217 0 min 0,000 mm 0,0 UV-I 0 W/m 6,9 C 0,4 C 33,8 km/h (5 Bft) 91,30 %
18.03.2017 19:50 8,2 C 91 % 1007,5 hPa 0,0 l/m 21,9 km/h (4 Bft) W 263 0 min 0,000 mm 0,0 UV-I 0 W/m 6,8 C 0,3 C 30,6 km/h (5 Bft) 100,00 %
18.03.2017 19:51 8,2 C 91 % 1007,5 hPa 0,0 l/m 18,5 km/h (3 Bft) W-SW 246 0 min 0,000 mm 0,0 UV-I 0 W/m 6,8 C 1,5 C 27,4 km/h (4 Bft) 93,10 %
18.03.2017 19:52 8,2 C 91 % 1007,5 hPa 0,0 l/m 20,8 km/h (4 Bft) S-SW 203 0 min 0,000 mm 0,0 UV-I 0 W/m 6,8 C 0,7 C 32,2 km/h (5 Bft) 92,59 %
18.03.2017 19:53 8,2 C 91 % 1007,5 hPa 0,0 l/m 21,3 km/h (4 Bft) W-SW 248 0 min 0,000 mm 0,0 UV-I 0 W/m 6,8 C 0,5 C 25,7 km/h (4 Bft) 100,00 %
18.03.2017 19:54 8,2 C 91 % 1007,4 hPa 0,0 l/m 22,0 km/h (4 Bft) SW 222 0 min 0,000 mm 0,0 UV-I 0 W/m 6,8 C 0,3 C 33,8 km/h (5 Bft) 95,83 %
18.03.2017 19:55 8,2 C 91 % 1007,5 hPa 0,2 l/m 24,7 km/h (4 Bft) SW 227 0 min 0,000 mm 0,0 UV-I 0 W/m 6,8 C -0,5 C 30,6 km/h (5 Bft) 88,46 %
18.03.2017 19:56 8,2 C 91 % 1007,5 hPa 0,0 l/m 19,5 km/h (3 Bft) W-SW 242 0 min 0,000 mm 0,0 UV-I 0 W/m 6,8 C 1,1 C 25,7 km/h (4 Bft) 87,50 %
18.03.2017 19:57 8,2 C 91 % 1007,5 hPa 0,0 l/m 23,7 km/h (4 Bft) SW 232 0 min 0,000 mm 0,0 UV-I 0 W/m 6,8 C -0,2 C 33,8 km/h (5 Bft) 100,00 %
18.03.2017 19:58 8,2 C 91 % 1007,4 hPa 0,0 l/m 18,9 km/h (3 Bft) W-NW 283 0 min 0,000 mm 0,0 UV-I 0 W/m 6,8 C 1,4 C 30,6 km/h (5 Bft) 91,67 %
18.03.2017 19:59 8,2 C 91 % 1007,4 hPa 0,0 l/m 25,5 km/h (4 Bft) S-SW 198 0 min 0,000 mm 0,0 UV-I 0 W/m 6,8 C -0,7 C 33,8 km/h (5 Bft) 100,00 %
18.03.2017 20:00 8,2 C 91 % 1007,4 hPa 0,0 l/m 25,7 km/h (4 Bft) W-SW 237 0 min 0,000 mm 0,0 UV-I 0 W/m 6,8 C -0,8 C 38,6 km/h (5 Bft) 91,67 %
18.03.2017 20:01 8,2 C 91 % 1007,4 hPa 0,0 l/m 20,0 km/h (4 Bft) W 267 0 min 0,026 mm 0,0 UV-I 0 W/m 6,8 C 1,0 C 25,7 km/h (4 Bft) 93,75 %
18.03.2017 20:02 8,2 C 91 % 1007,4 hPa 0,2 l/m 23,9 km/h (4 Bft) W-SW 245 0 min 0,000 mm 0,0 UV-I 0 W/m 6,8 C -0,3 C 33,8 km/h (5 Bft) 85,19 %
18.03.2017 20:03 8,2 C 91 % 1007,3 hPa 0,0 l/m 16,8 km/h (3 Bft) SW 223 0 min 0,000 mm 0,0 UV-I 0 W/m 6,8 C 2,2 C 22,5 km/h (4 Bft) 100,00 %
18.03.2017 20:04 8,2 C 91 % 1007,4 hPa 0,0 l/m 23,6 km/h (4 Bft) W-SW 249 0 min 0,000 mm 0,0 UV-I 0 W/m 6,8 C -0,2 C 32,2 km/h (5 Bft) 93,75 %
18.03.2017 20:05 8,2 C 91 % 1007,4 hPa 0,0 l/m 20,5 km/h (4 Bft) W-SW 249 0 min 0,000 mm 0,0 UV-I 0 W/m 6,8 C 0,8 C 30,6 km/h (5 Bft) 100,00 %
18.03.2017 20:06 8,2 C 91 % 1007,4 hPa 0,0 l/m 20,4 km/h (4 Bft) W-SW 242 0 min 0,000 mm 0,0 UV-I 0 W/m 6,8 C 0,8 C 27,4 km/h (4 Bft) 90,62 %
18.03.2017 20:07 8,2 C 91 % 1007,4 hPa 0,0 l/m 18,0 km/h (3 Bft) SW 232 0 min 0,000 mm 0,0 UV-I 0 W/m 6,8 C 1,7 C 27,4 km/h (4 Bft) 87,50 %
18.03.2017 20:08 8,2 C 91 % 1007,4 hPa 0,0 l/m 26,1 km/h (4 Bft) W-SW 242 0 min 0,000 mm 0,0 UV-I 0 W/m 6,8 C -0,9 C 32,2 km/h (5 Bft) 100,00 %
18.03.2017 20:09 8,2 C 91 % 1007,4 hPa 0,0 l/m 18,2 km/h (3 Bft) SW 220 0 min 0,000 mm 0,0 UV-I 0 W/m 6,8 C 1,6 C 25,7 km/h (4 Bft) 92,59 %
18.03.2017 20:10 8,2 C 91 % 1007,4 hPa 0,0 l/m 23,9 km/h (4 Bft) SW 233 0 min 0,000 mm 0,0 UV-I 0 W/m 6,8 C -0,3 C 32,2 km/h (5 Bft) 95,65 %
18.03.2017 20:11 8,2 C 91 % 1007,4 hPa 0,0 l/m 22,9 km/h (4 Bft) S-SW 207 0 min 0,000 mm 0,0 UV-I 0 W/m 6,8 C 0,0 C 30,6 km/h (5 Bft) 91,67 %
18.03.2017 20:12 8,2 C 91 % 1007,3 hPa 0,0 l/m 17,1 km/h (3 Bft) SW 219 0 min 0,000 mm 0,0 UV-I 0 W/m 6,8 C 2,1 C 27,4 km/h (4 Bft) 100,00 %
18.03.2017 20:13 8,2 C 91 % 1007,3 hPa 0,0 l/m 23,7 km/h (4 Bft) W-SW 244 0 min 0,000 mm 0,0 UV-I 0 W/m 6,8 C -0,2 C 37,0 km/h (5 Bft) 96,30 %
18.03.2017 20:14 8,2 C 91 % 1007,3 hPa 0,0 l/m 24,9 km/h (4 Bft) W-SW 238 0 min 0,000 mm 0,0 UV-I 0 W/m 6,8 C -0,6 C 37,0 km/h (5 Bft) 91,67 %
18.03.2017 20:15 8,2 C 92 % 1007,2 hPa 0,0 l/m 27,7 km/h (4 Bft) W-SW 246 0 min 0,000 mm 0,0 UV-I 0 W/m 7,0 C -1,3 C 40,2 km/h (6 Bft) 96,88 %
18.03.2017 20:16 8,3 C 91 % 1007,2 hPa 0,0 l/m 26,6 km/h (4 Bft) W-SW 242 0 min 0,000 mm 0,0 UV-I 0 W/m 6,9 C -0,9 C 35,4 km/h (5 Bft) 92,31 %
18.03.2017 20:17 8,3 C 91 % 1007,2 hPa 0,0 l/m 15,0 km/h (3 Bft) SW 235 0 min 0,000 mm 0,0 UV-I 0 W/m 6,9 C 3,1 C 19,3 km/h (3 Bft) 100,00 %
18.03.2017 20:18 8,3 C 91 % 1007,2 hPa 0,0 l/m 18,8 km/h (3 Bft) W-SW 257 0 min 0,000 mm 0,0 UV-I 0 W/m 6,9 C 1,5 C 27,4 km/h (4 Bft) 96,67 %
18.03.2017 20:19 8,3 C 91 % 1007,2 hPa 0,0 l/m 23,8 km/h (4 Bft) W-SW 241 0 min 0,000 mm 0,0 UV-I 0 W/m 6,9 C -0,1 C 30,6 km/h (5 Bft) 96,30 %
18.03.2017 20:20 8,3 C 91 % 1007,2 hPa 0,0 l/m 22,0 km/h (4 Bft) W-SW 240 0 min 0,000 mm 0,0 UV-I 0 W/m 6,9 C 0,4 C 35,4 km/h (5 Bft) 96,15 %
18.03.2017 20:21 8,3 C 91 % 1007,2 hPa 0,0 l/m 22,8 km/h (4 Bft) SW 234 0 min 0,000 mm 0,0 UV-I 0 W/m 6,9 C 0,2 C 30,6 km/h (5 Bft) 91,67 %
18.03.2017 20:22 8,3 C 91 % 1007,1 hPa 0,0 l/m 18,3 km/h (3 Bft) W-SW 242 0 min 0,000 mm 0,0 UV-I 0 W/m 6,9 C 1,7 C 24,1 km/h (4 Bft) 96,30 %
18.03.2017 20:23 8,3 C 91 % 1007,2 hPa 0,0 l/m 21,2 km/h (4 Bft) W 259 0 min 0,000 mm 0,0 UV-I 0 W/m 6,9 C 0,7 C 30,6 km/h (5 Bft) 95,65 %
18.03.2017 20:24 8,3 C 91 % 1007,2 hPa 0,0 l/m 25,5 km/h (4 Bft) W-SW 246 0 min 0,000 mm 0,0 UV-I 0 W/m 6,9 C -0,6 C 32,2 km/h (5 Bft) 96,67 %
18.03.2017 20:25 8,3 C 91 % 1007,2 hPa 0,0 l/m 19,8 km/h (3 Bft) W-SW 247 0 min 0,000 mm 0,0 UV-I 0 W/m 6,9 C 1,2 C 30,6 km/h (5 Bft) 95,65 %
18.03.2017 20:26 8,3 C 91 % 1007,0 hPa 0,0 l/m 24,1 km/h (4 Bft) W-SW 245 0 min 0,000 mm 0,0 UV-I 0 W/m 6,9 C -0,2 C 32,2 km/h (5 Bft) 95,83 %
18.03.2017 20:27 8,3 C 91 % 1007,0 hPa 0,0 l/m 24,5 km/h (4 Bft) W-SW 240 0 min 0,000 mm 0,0 UV-I 0 W/m 6,9 C -0,3 C 35,4 km/h (5 Bft) 100,00 %
18.03.2017 20:28 8,3 C 91 % 1007,0 hPa 0,0 l/m 23,1 km/h (4 Bft) W-SW 243 0 min 0,000 mm 0,0 UV-I 0 W/m 6,9 C 0,1 C 30,6 km/h (5 Bft) 90,00 %
18.03.2017 20:29 8,3 C 91 % 1007,1 hPa 0,0 l/m 23,0 km/h (4 Bft) W 263 0 min 0,000 mm 0,0 UV-I 0 W/m 6,9 C 0,1 C 33,8 km/h (5 Bft) 96,55 %
18.03.2017 20:30 8,3 C 91 % 1007,0 hPa 0,0 l/m 22,0 km/h (4 Bft) W 267 0 min 0,000 mm 0,0 UV-I 0 W/m 6,9 C 0,4 C 33,8 km/h (5 Bft) 100,00 %
18.03.2017 20:31 8,4 C 91 % 1007,1 hPa 0,0 l/m 19,1 km/h (3 Bft) SW 224 0 min 0,000 mm 0,0 UV-I 0 W/m 7,0 C 1,5 C 25,7 km/h (4 Bft) 96,15 %
18.03.2017 20:32 8,4 C 91 % 1007,1 hPa 0,0 l/m 17,8 km/h (3 Bft) SW 231 0 min 0,000 mm 0,0 UV-I 0 W/m 7,0 C 2,0 C 25,7 km/h (4 Bft) 94,44 %
18.03.2017 20:33 8,4 C 91 % 1007,1 hPa 0,0 l/m 15,9 km/h (3 Bft) W-SW 252 0 min 0,000 mm 0,0 UV-I 0 W/m 7,0 C 2,8 C 22,5 km/h (4 Bft) 92,31 %
18.03.2017 20:34 8,4 C 91 % 1007,1 hPa 0,0 l/m 19,3 km/h (3 Bft) W-SW 243 0 min 0,000 mm 0,0 UV-I 0 W/m 7,0 C 1,5 C 30,6 km/h (5 Bft) 96,30 %
18.03.2017 20:35 8,4 C 91 % 1007,1 hPa 0,2 l/m 17,5 km/h (3 Bft) SW 229 0 min 0,000 mm 0,0 UV-I 0 W/m 7,0 C 2,1 C 27,4 km/h (4 Bft) 100,00 %
18.03.2017 20:36 8,4 C 91 % 1007,1 hPa 0,0 l/m 20,0 km/h (4 Bft) SW 231 0 min 0,000 mm 0,0 UV-I 0 W/m 7,0 C 1,2 C 25,7 km/h (4 Bft) 92,59 %
18.03.2017 20:37 8,4 C 91 % 1006,9 hPa 0,0 l/m 17,9 km/h (3 Bft) S-SW 213 0 min 0,000 mm 0,0 UV-I 0 W/m 7,0 C 2,0 C 24,1 km/h (4 Bft) 100,00 %
18.03.2017 20:38 8,4 C 91 % 1007,0 hPa 0,0 l/m 20,8 km/h (4 Bft) SW 222 0 min 0,000 mm 0,0 UV-I 0 W/m 7,0 C 0,9 C 29,0 km/h (5 Bft) 95,65 %
18.03.2017 20:39 8,4 C 91 % 1007,0 hPa 0,0 l/m 19,9 km/h (4 Bft) SW 219 0 min 0,000 mm 0,0 UV-I 0 W/m 7,0 C 1,3 C 25,7 km/h (4 Bft) 96,15 %
18.03.2017 20:40 8,4 C 91 % 1007,0 hPa 0,0 l/m 20,4 km/h (4 Bft) S-SW 212 0 min 0,000 mm 0,0 UV-I 0 W/m 7,0 C 1,1 C 27,4 km/h (4 Bft) 96,15 %
18.03.2017 20:41 8,4 C 91 % 1006,9 hPa 0,0 l/m 22,6 km/h (4 Bft) W-SW 247 0 min 0,000 mm 0,0 UV-I 0 W/m 7,0 C 0,4 C 37,0 km/h (5 Bft) 86,67 %
18.03.2017 20:42 8,4 C 91 % 1006,8 hPa 0,0 l/m 27,5 km/h (4 Bft) W-SW 240 0 min 0,000 mm 0,0 UV-I 0 W/m 7,0 C -1,0 C 40,2 km/h (6 Bft) 96,55 %
18.03.2017 20:43 8,4 C 91 % 1006,9 hPa 0,0 l/m 24,1 km/h (4 Bft) SW 221 0 min 0,000 mm 0,0 UV-I 0 W/m 7,0 C -0,1 C 30,6 km/h (5 Bft) 96,30 %
18.03.2017 20:44 8,4 C 91 % 1006,9 hPa 0,0 l/m 18,6 km/h (3 Bft) W-SW 245 0 min 0,000 mm 0,0 UV-I 0 W/m 7,0 C 1,7 C 25,7 km/h (4 Bft) 96,15 %
18.03.2017 20:45 8,4 C 91 % 1006,9 hPa 0,0 l/m 19,4 km/h (3 Bft) SW 234 0 min 0,000 mm 0,0 UV-I 0 W/m 7,0 C 1,4 C 25,7 km/h (4 Bft) 100,00 %
18.03.2017 20:46 8,4 C 91 % 1006,9 hPa 0,0 l/m 22,4 km/h (4 Bft) W-SW 238 0 min 0,000 mm 0,0 UV-I 0 W/m 7,0 C 0,4 C 29,0 km/h (5 Bft) 96,15 %
18.03.2017 20:47 8,4 C 91 % 1006,9 hPa 0,0 l/m 20,6 km/h (4 Bft) W-SW 250 0 min 0,000 mm 0,0 UV-I 0 W/m 7,0 C 1,0 C 30,6 km/h (5 Bft) 96,30 %
18.03.2017 20:48 8,4 C 91 % 1006,9 hPa 0,0 l/m 17,8 km/h (3 Bft) SW 230 0 min 0,000 mm 0,0 UV-I 0 W/m 7,0 C 2,0 C 25,7 km/h (4 Bft) 95,65 %
18.03.2017 20:49 8,4 C 91 % 1006,9 hPa 0,0 l/m 23,0 km/h (4 Bft) W-SW 245 0 min 0,000 mm 0,0 UV-I 0 W/m 7,0 C 0,2 C 32,2 km/h (5 Bft) 96,30 %
18.03.2017 20:50 8,4 C 91 % 1006,9 hPa 0,0 l/m 21,4 km/h (4 Bft) S-SW 192 0 min 0,000 mm 0,0 UV-I 0 W/m 7,0 C 0,7 C 29,0 km/h (5 Bft) 94,12 %
18.03.2017 20:51 8,5 C 91 % 1006,8 hPa 0,0 l/m 22,7 km/h (4 Bft) W 259 0 min 0,000 mm 0,0 UV-I 0 W/m 7,1 C 0,5 C 30,6 km/h (5 Bft) 100,00 %
18.03.2017 20:52 8,5 C 91 % 1006,8 hPa 0,0 l/m 28,4 km/h (4 Bft) W-SW 240 0 min 0,000 mm 0,0 UV-I 0 W/m 7,1 C -1,1 C 37,0 km/h (5 Bft) 92,31 %
18.03.2017 20:53 8,5 C 91 % 1006,8 hPa 0,0 l/m 24,0 km/h (4 Bft) W-SW 254 0 min 0,000 mm 0,0 UV-I 0 W/m 7,1 C 0,1 C 35,4 km/h (5 Bft) 87,50 %
18.03.2017 20:54 8,5 C 91 % 1006,9 hPa 0,0 l/m 26,8 km/h (4 Bft) SW 232 0 min 0,000 mm 0,0 UV-I 0 W/m 7,1 C -0,7 C 37,0 km/h (5 Bft) 95,65 %
18.03.2017 20:55 8,6 C 91 % 1006,8 hPa 0,0 l/m 24,2 km/h (4 Bft) SW 229 0 min 0,000 mm 0,0 UV-I 0 W/m 7,2 C 0,2 C 38,6 km/h (5 Bft) 95,83 %
18.03.2017 20:56 8,6 C 91 % 1006,8 hPa 0,0 l/m 26,2 km/h (4 Bft) W-SW 243 0 min 0,000 mm 0,0 UV-I 0 W/m 7,2 C -0,4 C 33,8 km/h (5 Bft) 100,00 %
18.03.2017 20:57 8,6 C 90 % 1006,8 hPa 0,0 l/m 23,7 km/h (4 Bft) S-SW 211 0 min 0,000 mm 0,0 UV-I 0 W/m 7,1 C 0,3 C 33,8 km/h (5 Bft) 92,31 %
18.03.2017 20:58 8,6 C 90 % 1006,8 hPa 0,0 l/m 14,6 km/h (3 Bft) W-SW 244 0 min 0,000 mm 0,0 UV-I 0 W/m 7,1 C 3,6 C 19,3 km/h (3 Bft) 92,31 %
18.03.2017 20:59 8,6 C 90 % 1006,9 hPa 0,0 l/m 13,3 km/h (3 Bft) W-SW 248 0 min 0,000 mm 0,0 UV-I 0 W/m 7,1 C 4,2 C 17,7 km/h (3 Bft) 86,67 %
18.03.2017 21:00 8,6 C 90 % 1006,9 hPa 0,2 l/m 26,5 km/h (4 Bft) W-SW 244 0 min 0,000 mm 0,0 UV-I 0 W/m 7,1 C -0,5 C 35,4 km/h (5 Bft) 96,67 %
18.03.2017 21:01 8,6 C 90 % 1006,8 hPa 0,0 l/m 22,1 km/h (4 Bft) S-SW 204 0 min 0,025 mm 0,0 UV-I 0 W/m 7,1 C 0,8 C 32,2 km/h (5 Bft) 84,62 %
18.03.2017 21:02 8,6 C 90 % 1006,8 hPa 0,0 l/m 26,1 km/h (4 Bft) S-SW 213 0 min 0,000 mm 0,0 UV-I 0 W/m 7,1 C -0,4 C 33,8 km/h (5 Bft) 100,00 %
18.03.2017 21:03 8,6 C 90 % 1006,8 hPa 0,0 l/m 20,7 km/h (4 Bft) SW 236 0 min 0,000 mm 0,0 UV-I 0 W/m 7,1 C 1,2 C 30,6 km/h (5 Bft) 92,31 %
18.03.2017 21:04 8,6 C 90 % 1006,9 hPa 0,0 l/m 22,0 km/h (4 Bft) W-SW 257 0 min 0,000 mm 0,0 UV-I 0 W/m 7,1 C 0,8 C 29,0 km/h (5 Bft) 96,30 %
18.03.2017 21:05 8,6 C 90 % 1006,9 hPa 0,0 l/m 21,1 km/h (4 Bft) W 262 0 min 0,000 mm 0,0 UV-I 0 W/m 7,1 C 1,1 C 29,0 km/h (5 Bft) 96,15 %
18.03.2017 21:06 8,6 C 90 % 1006,9 hPa 0,0 l/m 16,6 km/h (3 Bft) W 276 0 min 0,000 mm 0,0 UV-I 0 W/m 7,1 C 2,8 C 29,0 km/h (5 Bft) 87,50 %
18.03.2017 21:07 8,6 C 90 % 1006,8 hPa 0,0 l/m 22,2 km/h (4 Bft) W 262 0 min 0,000 mm 0,0 UV-I 0 W/m 7,1 C 0,8 C 30,6 km/h (5 Bft) 92,31 %
18.03.2017 21:08 8,6 C 90 % 1006,8 hPa 0,0 l/m 17,8 km/h (3 Bft) SW 220 0 min 0,000 mm 0,0 UV-I 0 W/m 7,1 C 2,3 C 22,5 km/h (4 Bft) 91,67 %
18.03.2017 21:09 8,6 C 90 % 1006,8 hPa 0,0 l/m 21,0 km/h (4 Bft) W-SW 258 0 min 0,000 mm 0,0 UV-I 0 W/m 7,1 C 1,1 C 32,2 km/h (5 Bft) 96,88 %
18.03.2017 21:10 8,6 C 90 % 1006,8 hPa 0,0 l/m 16,4 km/h (3 Bft) SW 221 0 min 0,000 mm 0,0 UV-I 0 W/m 7,1 C 2,8 C 20,9 km/h (4 Bft) 95,91 %
18.03.2017 21:11 8,6 C 91 % 1006,8 hPa 0,0 l/m 17,5 km/h (3 Bft) W-SW 243 0 min 0,000 mm 0,0 UV-I 0 W/m 7,2 C 2,4 C 25,7 km/h (4 Bft) 100,00 %
18.03.2017 21:12 8,6 C 91 % 1006,8 hPa 0,0 l/m 27,1 km/h (4 Bft) SW 235 0 min 0,000 mm 0,0 UV-I 0 W/m 7,2 C -0,6 C 45,1 km/h (6 Bft) 93,75 %
18.03.2017 21:13 8,6 C 90 % 1006,8 hPa 0,0 l/m 24,1 km/h (4 Bft) W 266 0 min 0,000 mm 0,0 UV-I 0 W/m 7,1 C 0,2 C 32,2 km/h (5 Bft) 100,00 %
18.03.2017 21:14 8,6 C 90 % 1006,8 hPa 0,0 l/m 18,4 km/h (3 Bft) W-SW 243 0 min 0,000 mm 0,0 UV-I 0 W/m 7,1 C 2,1 C 27,4 km/h (4 Bft) 100,00 %
18.03.2017 21:15 8,6 C 90 % 1006,8 hPa 0,0 l/m 26,7 km/h (4 Bft) SW 220 0 min 0,000 mm 0,0 UV-I 0 W/m 7,1 C -0,5 C 40,2 km/h (6 Bft) 100,00 %
18.03.2017 21:16 8,6 C 90 % 1006,8 hPa 0,0 l/m 22,0 km/h (4 Bft) SW 221 0 min 0,000 mm 0,0 UV-I 0 W/m 7,1 C 0,8 C 30,6 km/h (5 Bft) 100,00 %
18.03.2017 21:17 8,6 C 90 % 1006,8 hPa 0,0 l/m 20,8 km/h (4 Bft) W-SW 256 0 min 0,000 mm 0,0 UV-I 0 W/m 7,1 C 1,2 C 29,0 km/h (5 Bft) 100,00 %
18.03.2017 21:18 8,7 C 90 % 1006,9 hPa 0,0 l/m 23,8 km/h (4 Bft) W-SW 240 0 min 0,000 mm 0,0 UV-I 0 W/m 7,2 C 0,4 C 33,8 km/h (5 Bft) 93,33 %
18.03.2017 21:19 8,7 C 90 % 1006,8 hPa 0,0 l/m 23,4 km/h (4 Bft) W 275 0 min 0,000 mm 0,0 UV-I 0 W/m 7,2 C 0,5 C 29,0 km/h (5 Bft) 100,00 %
18.03.2017 21:20 8,7 C 90 % 1006,8 hPa 0,0 l/m 21,1 km/h (4 Bft) W-SW 241 0 min 0,000 mm 0,0 UV-I 0 W/m 7,2 C 1,2 C 27,4 km/h (4 Bft) 89,66 %
18.03.2017 21:21 8,7 C 90 % 1006,8 hPa 0,0 l/m 19,6 km/h (3 Bft) SW 235 0 min 0,000 mm 0,0 UV-I 0 W/m 7,2 C 1,7 C 29,0 km/h (5 Bft) 91,30 %
18.03.2017 21:22 8,7 C 90 % 1006,7 hPa 0,0 l/m 22,7 km/h (4 Bft) S-SW 206 0 min 0,000 mm 0,0 UV-I 0 W/m 7,2 C 0,7 C 33,8 km/h (5 Bft) 95,83 %
18.03.2017 21:23 8,7 C 90 % 1006,8 hPa 0,0 l/m 28,5 km/h (4 Bft) S-SW 202 0 min 0,000 mm 0,0 UV-I 0 W/m 7,2 C -0,8 C 43,5 km/h (6 Bft) 95,83 %
18.03.2017 21:24 8,7 C 90 % 1006,8 hPa 0,0 l/m 28,6 km/h (4 Bft) W-SW 248 0 min 0,000 mm 0,0 UV-I 0 W/m 7,2 C -0,8 C 40,2 km/h (6 Bft) 100,00 %
18.03.2017 21:25 8,7 C 90 % 1006,8 hPa 0,0 l/m 18,9 km/h (3 Bft) W-SW 238 0 min 0,000 mm 0,0 UV-I 0 W/m 7,2 C 2,0 C 25,7 km/h (4 Bft) 100,00 %
18.03.2017 21:26 8,7 C 90 % 1006,8 hPa 0,0 l/m 19,7 km/h (3 Bft) SW 234 0 min 0,000 mm 0,0 UV-I 0 W/m 7,2 C 1,7 C 25,7 km/h (4 Bft) 92,86 %
18.03.2017 21:27 8,7 C 90 % 1006,8 hPa 0,0 l/m 18,8 km/h (3 Bft) SW 224 0 min 0,000 mm 0,0 UV-I 0 W/m 7,2 C 2,0 C 25,7 km/h (4 Bft) 100,00 %
18.03.2017 21:28 8,7 C 90 % 1006,9 hPa 0,0 l/m 19,5 km/h (3 Bft) W 265 0 min 0,000 mm 0,0 UV-I 0 W/m 7,2 C 1,8 C 22,5 km/h (4 Bft) 96,55 %
18.03.2017 21:29 8,7 C 90 % 1006,8 hPa 0,0 l/m 21,1 km/h (4 Bft) W 259 0 min 0,000 mm 0,0 UV-I 0 W/m 7,2 C 1,2 C 29,0 km/h (5 Bft) 100,00 %
18.03.2017 21:30 8,7 C 90 % 1006,8 hPa 0,0 l/m 26,3 km/h (4 Bft) W-SW 242 0 min 0,000 mm 0,0 UV-I 0 W/m 7,2 C -0,3 C 32,2 km/h (5 Bft) 96,15 %
18.03.2017 21:31 8,7 C 90 % 1006,9 hPa 0,0 l/m 20,8 km/h (4 Bft) SW 216 0 min 0,000 mm 0,0 UV-I 0 W/m 7,2 C 1,3 C 29,0 km/h (5 Bft) 100,00 %
18.03.2017 21:32 8,7 C 90 % 1006,9 hPa 0,0 l/m 23,9 km/h (4 Bft) W-SW 257 0 min 0,000 mm 0,0 UV-I 0 W/m 7,2 C 0,4 C 32,2 km/h (5 Bft) 100,00 %
18.03.2017 21:33 8,7 C 90 % 1006,9 hPa 0,0 l/m 23,3 km/h (4 Bft) W-SW 252 0 min 0,000 mm 0,0 UV-I 0 W/m 7,2 C 0,6 C 30,6 km/h (5 Bft) 100,00 %
18.03.2017 21:34 8,7 C 90 % 1006,8 hPa 0,2 l/m 24,8 km/h (4 Bft) SW 234 0 min 0,000 mm 0,0 UV-I 0 W/m 7,2 C 0,1 C 30,6 km/h (5 Bft) 94,12 %
18.03.2017 21:35 8,7 C 90 % 1006,9 hPa 0,0 l/m 22,2 km/h (4 Bft) W 268 0 min 0,000 mm 0,0 UV-I 0 W/m 7,2 C 0,9 C 29,0 km/h (5 Bft) 93,10 %
18.03.2017 21:36 8,7 C 90 % 1006,9 hPa 0,0 l/m 28,5 km/h (4 Bft) W 263 0 min 0,000 mm 0,0 UV-I 0 W/m 7,2 C -0,8 C 35,4 km/h (5 Bft) 100,00 %
18.03.2017 21:37 8,7 C 90 % 1006,9 hPa 0,0 l/m 19,9 km/h (4 Bft) W-SW 238 0 min 0,000 mm 0,0 UV-I 0 W/m 7,2 C 1,6 C 25,7 km/h (4 Bft) 96,30 %
18.03.2017 21:38 8,7 C 90 % 1006,9 hPa 0,0 l/m 30,0 km/h (5 Bft) W-SW 243 0 min 0,000 mm 0,0 UV-I 0 W/m 7,2 C -1,2 C 45,1 km/h (6 Bft) 100,00 %
18.03.2017 21:39 8,7 C 90 % 1006,9 hPa 0,0 l/m 23,1 km/h (4 Bft) S-SW 213 0 min 0,000 mm 0,0 UV-I 0 W/m 7,2 C 0,6 C 33,8 km/h (5 Bft) 96,30 %
18.03.2017 21:40 8,7 C 90 % 1006,9 hPa 0,0 l/m 18,0 km/h (3 Bft) W-SW 257 0 min 0,000 mm 0,0 UV-I 0 W/m 7,2 C 2,3 C 22,5 km/h (4 Bft) 100,00 %
18.03.2017 21:42 8,7 C 90 % 1006,9 hPa 0,0 l/m 17,6 km/h (3 Bft) W-SW 253 0 min 0,000 mm 0,0 UV-I 0 W/m 7,2 C 2,5 C 24,1 km/h (4 Bft) 98,31 %
18.03.2017 21:43 8,7 C 90 % 1006,9 hPa 0,0 l/m 18,9 km/h (3 Bft) SW 234 0 min 0,000 mm 0,0 UV-I 0 W/m 7,2 C 2,0 C 22,5 km/h (4 Bft) 92,86 %
18.03.2017 21:44 8,7 C 90 % 1007,0 hPa 0,0 l/m 22,4 km/h (4 Bft) W-SW 252 0 min 0,000 mm 0,0 UV-I 0 W/m 7,2 C 0,8 C 37,0 km/h (5 Bft) 100,00 %
18.03.2017 21:45 8,7 C 90 % 1006,9 hPa 0,0 l/m 26,3 km/h (4 Bft) W 266 0 min 0,000 mm 0,0 UV-I 0 W/m 7,2 C -0,3 C 35,4 km/h (5 Bft) 96,15 %
18.03.2017 21:46 8,7 C 90 % 1006,9 hPa 0,0 l/m 24,1 km/h (4 Bft) W-SW 254 0 min 0,000 mm 0,0 UV-I 0 W/m 7,2 C 0,3 C 32,2 km/h (5 Bft) 86,67 %
18.03.2017 21:47 8,7 C 90 % 1006,8 hPa 0,0 l/m 23,6 km/h (4 Bft) SW 224 0 min 0,000 mm 0,0 UV-I 0 W/m 7,2 C 0,5 C 29,0 km/h (5 Bft) 100,00 %
18.03.2017 21:48 8,7 C 90 % 1006,8 hPa 0,0 l/m 20,2 km/h (4 Bft) SW 225 0 min 0,000 mm 0,0 UV-I 0 W/m 7,2 C 1,5 C 27,4 km/h (4 Bft) 100,00 %
18.03.2017 21:49 8,7 C 90 % 1006,8 hPa 0,0 l/m 16,4 km/h (3 Bft) SW 227 0 min 0,000 mm 0,0 UV-I 0 W/m 7,2 C 3,0 C 25,7 km/h (4 Bft) 100,00 %
18.03.2017 21:50 8,7 C 90 % 1006,8 hPa 0,2 l/m 26,5 km/h (4 Bft) SW 236 0 min 0,000 mm 0,0 UV-I 0 W/m 7,2 C -0,3 C 35,4 km/h (5 Bft) 100,00 %
18.03.2017 21:51 8,7 C 90 % 1006,9 hPa 0,0 l/m 21,3 km/h (4 Bft) SW 220 0 min 0,000 mm 0,0 UV-I 0 W/m 7,2 C 1,2 C 29,0 km/h (5 Bft) 91,30 %
18.03.2017 21:52 8,7 C 90 % 1006,8 hPa 0,0 l/m 18,6 km/h (3 Bft) SW 215 0 min 0,000 mm 0,0 UV-I 0 W/m 7,2 C 2,1 C 24,1 km/h (4 Bft) 100,00 %
18.03.2017 21:53 8,7 C 90 % 1006,9 hPa 0,0 l/m 19,9 km/h (4 Bft) W-SW 252 0 min 0,000 mm 0,0 UV-I 0 W/m 7,2 C 1,6 C 27,4 km/h (4 Bft) 100,00 %
18.03.2017 21:54 8,7 C 90 % 1006,9 hPa 0,0 l/m 18,6 km/h (3 Bft) W-SW 252 0 min 0,000 mm 0,0 UV-I 0 W/m 7,2 C 2,1 C 24,1 km/h (4 Bft) 100,00 %
18.03.2017 21:55 8,6 C 90 % 1007,0 hPa 0,0 l/m 19,2 km/h (3 Bft) W-SW 250 0 min 0,000 mm 0,0 UV-I 0 W/m 7,1 C 1,8 C 25,7 km/h (4 Bft) 100,00 %
18.03.2017 21:56 8,6 C 90 % 1007,0 hPa 0,0 l/m 18,9 km/h (3 Bft) W 267 0 min 0,000 mm 0,0 UV-I 0 W/m 7,1 C 1,9 C 24,1 km/h (4 Bft) 100,00 %
18.03.2017 21:57 8,6 C 90 % 1007,0 hPa 0,0 l/m 17,8 km/h (3 Bft) W-SW 242 0 min 0,000 mm 0,0 UV-I 0 W/m 7,1 C 2,3 C 22,5 km/h (4 Bft) 96,30 %
18.03.2017 21:58 8,6 C 90 % 1007,0 hPa 0,0 l/m 18,7 km/h (3 Bft) W-SW 251 0 min 0,000 mm 0,0 UV-I 0 W/m 7,1 C 1,9 C 22,5 km/h (4 Bft) 100,00 %
18.03.2017 21:59 8,6 C 90 % 1007,0 hPa 0,0 l/m 22,7 km/h (4 Bft) SW 234 0 min 0,000 mm 0,0 UV-I 0 W/m 7,1 C 0,6 C 33,8 km/h (5 Bft) 100,00 %
18.03.2017 22:00 8,6 C 90 % 1007,0 hPa 0,0 l/m 17,2 km/h (3 Bft) SW 219 0 min 0,000 mm 0,0 UV-I 0 W/m 7,1 C 2,5 C 20,9 km/h (4 Bft) 100,00 %
18.03.2017 22:01 8,6 C 90 % 1007,0 hPa 0,0 l/m 20,3 km/h (4 Bft) SW 233 0 min 0,025 mm 0,0 UV-I 0 W/m 7,1 C 1,4 C 29,0 km/h (5 Bft) 95,83 %
18.03.2017 22:02 8,6 C 90 % 1007,0 hPa 0,0 l/m 17,2 km/h (3 Bft) W 261 0 min 0,000 mm 0,0 UV-I 0 W/m 7,1 C 2,5 C 24,1 km/h (4 Bft) 100,00 %
18.03.2017 22:03 8,6 C 90 % 1007,1 hPa 0,0 l/m 22,0 km/h (4 Bft) W 265 0 min 0,000 mm 0,0 UV-I 0 W/m 7,1 C 0,8 C 29,0 km/h (5 Bft) 96,01 %
18.03.2017 22:04 8,6 C 90 % 1007,0 hPa 0,0 l/m 17,9 km/h (3 Bft) W-SW 252 0 min 0,000 mm 0,0 UV-I 0 W/m 7,1 C 2,2 C 22,5 km/h (4 Bft) 100,00 %
18.03.2017 22:05 8,7 C 90 % 1007,2 hPa 0,0 l/m 14,5 km/h (3 Bft) W-SW 239 0 min 0,000 mm 0,0 UV-I 0 W/m 7,2 C 3,8 C 24,1 km/h (4 Bft) 97,44 %
18.03.2017 22:06 8,7 C 91 % 1007,2 hPa 0,0 l/m 20,2 km/h (4 Bft) SW 227 0 min 0,000 mm 0,0 UV-I 0 W/m 7,3 C 1,5 C 29,0 km/h (5 Bft) 95,65 %
18.03.2017 22:07 8,7 C 90 % 1007,1 hPa 0,0 l/m 19,0 km/h (3 Bft) W-SW 256 0 min 0,000 mm 0,0 UV-I 0 W/m 7,2 C 2,0 C 25,7 km/h (4 Bft) 95,83 %
18.03.2017 22:08 8,7 C 90 % 1007,2 hPa 0,0 l/m 14,7 km/h (3 Bft) SW 235 0 min 0,000 mm 0,0 UV-I 0 W/m 7,2 C 3,7 C 22,5 km/h (4 Bft) 100,00 %
18.03.2017 22:09 8,7 C 90 % 1007,2 hPa 0,0 l/m 18,7 km/h (3 Bft) W 268 0 min 0,000 mm 0,0 UV-I 0 W/m 7,2 C 2,1 C 24,1 km/h (4 Bft) 97,22 %
18.03.2017 22:10 8,7 C 91 % 1007,3 hPa 0,2 l/m 17,6 km/h (3 Bft) W 261 0 min 0,000 mm 0,0 UV-I 0 W/m 7,3 C 2,5 C 25,7 km/h (4 Bft) 96,15 %
18.03.2017 22:11 8,7 C 91 % 1007,2 hPa 0,0 l/m 19,8 km/h (3 Bft) W-SW 245 0 min 0,000 mm 0,0 UV-I 0 W/m 7,3 C 1,7 C 32,2 km/h (5 Bft) 100,00 %
18.03.2017 22:12 8,7 C 91 % 1007,1 hPa 0,0 l/m 20,0 km/h (4 Bft) W-SW 248 0 min 0,000 mm 0,0 UV-I 0 W/m 7,3 C 1,6 C 33,8 km/h (5 Bft) 100,00 %
18.03.2017 22:13 8,7 C 91 % 1007,1 hPa 0,0 l/m 20,9 km/h (4 Bft) W-NW 290 0 min 0,000 mm 0,0 UV-I 0 W/m 7,3 C 1,3 C 27,4 km/h (4 Bft) 96,67 %
18.03.2017 22:14 8,7 C 91 % 1007,2 hPa 0,0 l/m 22,7 km/h (4 Bft) W-SW 251 0 min 0,000 mm 0,0 UV-I 0 W/m 7,3 C 0,7 C 30,6 km/h (5 Bft) 94,12 %
18.03.2017 22:15 8,7 C 91 % 1007,1 hPa 0,2 l/m 18,3 km/h (3 Bft) W-SW 249 0 min 0,000 mm 0,0 UV-I 0 W/m 7,3 C 2,2 C 27,4 km/h (4 Bft) 92,59 %
18.03.2017 22:16 8,7 C 91 % 1007,1 hPa 0,0 l/m 18,5 km/h (3 Bft) W-SW 242 0 min 0,000 mm 0,0 UV-I 0 W/m 7,3 C 2,1 C 24,1 km/h (4 Bft) 92,31 %
18.03.2017 22:17 8,7 C 91 % 1007,1 hPa 0,0 l/m 18,3 km/h (3 Bft) W 273 0 min 0,000 mm 0,0 UV-I 0 W/m 7,3 C 2,2 C 25,7 km/h (4 Bft) 96,02 %
18.03.2017 22:18 8,7 C 91 % 1007,1 hPa 0,0 l/m 20,3 km/h (4 Bft) W 259 0 min 0,000 mm 0,0 UV-I 0 W/m 7,3 C 1,5 C 30,6 km/h (5 Bft) 97,62 %
18.03.2017 22:19 8,7 C 91 % 1007,2 hPa 0,0 l/m 18,7 km/h (3 Bft) SW 234 0 min 0,000 mm 0,0 UV-I 0 W/m 7,3 C 2,1 C 27,4 km/h (4 Bft) 91,30 %
18.03.2017 22:20 8,7 C 91 % 1007,1 hPa 0,0 l/m 16,0 km/h (3 Bft) W-SW 245 0 min 0,000 mm 0,0 UV-I 0 W/m 7,3 C 3,1 C 25,7 km/h (4 Bft) 100,00 %
18.03.2017 22:21 8,7 C 91 % 1007,1 hPa 0,0 l/m 18,0 km/h (3 Bft) W-SW 257 0 min 0,000 mm 0,0 UV-I 0 W/m 7,3 C 2,3 C 25,7 km/h (4 Bft) 92,31 %
18.03.2017 22:22 8,7 C 91 % 1007,1 hPa 0,0 l/m 21,8 km/h (4 Bft) SW 235 0 min 0,000 mm 0,0 UV-I 0 W/m 7,3 C 1,0 C 25,7 km/h (4 Bft) 94,44 %
18.03.2017 22:23 8,7 C 91 % 1007,1 hPa 0,2 l/m 17,5 km/h (3 Bft) W-SW 244 0 min 0,000 mm 0,0 UV-I 0 W/m 7,3 C 2,5 C 22,5 km/h (4 Bft) 82,76 %
18.03.2017 22:24 8,7 C 91 % 1007,2 hPa 0,0 l/m 15,8 km/h (3 Bft) W 275 0 min 0,000 mm 0,0 UV-I 0 W/m 7,3 C 3,2 C 20,9 km/h (4 Bft) 100,00 %
18.03.2017 22:25 8,7 C 91 % 1007,2 hPa 0,0 l/m 25,7 km/h (4 Bft) W 264 0 min 0,000 mm 0,0 UV-I 0 W/m 7,3 C -0,1 C 38,6 km/h (5 Bft) 95,65 %
18.03.2017 22:26 8,7 C 91 % 1007,2 hPa 0,0 l/m 23,0 km/h (4 Bft) SW 216 0 min 0,000 mm 0,0 UV-I 0 W/m 7,3 C 0,6 C 29,0 km/h (5 Bft) 94,44 %
18.03.2017 22:27 8,7 C 91 % 1007,2 hPa 0,0 l/m 19,1 km/h (3 Bft) W 272 0 min 0,000 mm 0,0 UV-I 0 W/m 7,3 C 1,9 C 30,6 km/h (5 Bft) 100,00 %
18.03.2017 22:28 8,7 C 91 % 1007,2 hPa 0,0 l/m 21,8 km/h (4 Bft) S-SW 201 0 min 0,000 mm 0,0 UV-I 0 W/m 7,3 C 1,0 C 41,8 km/h (6 Bft) 100,00 %
18.03.2017 22:29 8,7 C 91 % 1007,3 hPa 0,2 l/m 21,2 km/h (4 Bft) S-SW 200 0 min 0,000 mm 0,0 UV-I 0 W/m 7,3 C 1,2 C 27,4 km/h (4 Bft) 92,31 %
18.03.2017 22:30 8,7 C 91 % 1007,3 hPa 0,0 l/m 25,0 km/h (4 Bft) W 261 0 min 0,000 mm 0,0 UV-I 0 W/m 7,3 C 0,1 C 37,0 km/h (5 Bft) 100,00 %
18.03.2017 22:31 8,7 C 91 % 1007,2 hPa 0,0 l/m 23,8 km/h (4 Bft) W-SW 254 0 min 0,000 mm 0,0 UV-I 0 W/m 7,3 C 0,4 C 29,0 km/h (5 Bft) 91,67 %
18.03.2017 22:32 8,7 C 91 % 1007,2 hPa 0,0 l/m 22,7 km/h (4 Bft) SW 230 0 min 0,000 mm 0,0 UV-I 0 W/m 7,3 C 0,7 C 29,0 km/h (5 Bft) 96,55 %
18.03.2017 22:33 8,7 C 91 % 1007,2 hPa 0,0 l/m 20,2 km/h (4 Bft) S-SW 201 0 min 0,000 mm 0,0 UV-I 0 W/m 7,3 C 1,5 C 24,1 km/h (4 Bft) 100,00 %
18.03.2017 22:34 8,7 C 91 % 1007,3 hPa 0,0 l/m 21,4 km/h (4 Bft) W-SW 251 0 min 0,000 mm 0,0 UV-I 0 W/m 7,3 C 1,1 C 29,0 km/h (5 Bft) 100,00 %
18.03.2017 22:35 8,7 C 91 % 1007,3 hPa 0,0 l/m 21,2 km/h (4 Bft) W-SW 243 0 min 0,000 mm 0,0 UV-I 0 W/m 7,3 C 1,2 C 27,4 km/h (4 Bft) 80,00 %
18.03.2017 22:36 8,7 C 91 % 1007,4 hPa 0,0 l/m 19,6 km/h (3 Bft) SW 231 0 min 0,000 mm 0,0 UV-I 0 W/m 7,3 C 1,7 C 24,1 km/h (4 Bft) 100,00 %
18.03.2017 22:37 8,7 C 91 % 1007,3 hPa 0,0 l/m 25,8 km/h (4 Bft) S-SW 206 0 min 0,000 mm 0,0 UV-I 0 W/m 7,3 C -0,1 C 37,0 km/h (5 Bft) 100,00 %
18.03.2017 22:38 8,7 C 91 % 1007,3 hPa 0,0 l/m 24,0 km/h (4 Bft) W 265 0 min 0,000 mm 0,0 UV-I 0 W/m 7,3 C 0,4 C 32,2 km/h (5 Bft) 96,15 %
18.03.2017 22:39 8,7 C 91 % 1007,3 hPa 0,0 l/m 20,2 km/h (4 Bft) W-SW 258 0 min 0,000 mm 0,0 UV-I 0 W/m 7,3 C 1,5 C 25,7 km/h (4 Bft) 100,00 %
18.03.2017 22:40 8,7 C 91 % 1007,3 hPa 0,2 l/m 32,8 km/h (5 Bft) SW 236 0 min 0,000 mm 0,0 UV-I 0 W/m 7,3 C -1,8 C 49,9 km/h (6 Bft) 100,00 %
18.03.2017 22:41 8,7 C 91 % 1007,3 hPa 0,0 l/m 21,1 km/h (4 Bft) W-SW 243 0 min 0,000 mm 0,0 UV-I 0 W/m 7,3 C 1,2 C 30,6 km/h (5 Bft) 88,89 %
18.03.2017 22:42 8,7 C 91 % 1007,3 hPa 0,0 l/m 21,9 km/h (4 Bft) S-SW 213 0 min 0,000 mm 0,0 UV-I 0 W/m 7,3 C 1,0 C 30,6 km/h (5 Bft) 100,00 %
18.03.2017 22:43 8,7 C 91 % 1007,3 hPa 0,0 l/m 15,2 km/h (3 Bft) W 265 0 min 0,000 mm 0,0 UV-I 0 W/m 7,3 C 3,5 C 20,9 km/h (4 Bft) 96,30 %
18.03.2017 22:44 8,7 C 91 % 1007,3 hPa 0,0 l/m 22,0 km/h (4 Bft) SW 215 0 min 0,000 mm 0,0 UV-I 0 W/m 7,3 C 1,0 C 29,0 km/h (5 Bft) 90,91 %
18.03.2017 22:45 8,7 C 91 % 1007,3 hPa 0,0 l/m 17,1 km/h (3 Bft) W-SW 250 0 min 0,000 mm 0,0 UV-I 0 W/m 7,3 C 2,7 C 24,1 km/h (4 Bft) 93,75 %
18.03.2017 22:46 8,7 C 91 % 1007,3 hPa 0,0 l/m 21,6 km/h (4 Bft) W 259 0 min 0,000 mm 0,0 UV-I 0 W/m 7,3 C 1,1 C 27,4 km/h (4 Bft) 88,46 %
18.03.2017 22:47 8,7 C 92 % 1007,3 hPa 0,2 l/m 19,1 km/h (3 Bft) W 261 0 min 0,000 mm 0,0 UV-I 0 W/m 7,5 C 1,9 C 24,1 km/h (4 Bft) 96,00 %
18.03.2017 22:48 8,7 C 92 % 1007,3 hPa 0,0 l/m 23,4 km/h (4 Bft) W-SW 247 0 min 0,000 mm 0,0 UV-I 0 W/m 7,5 C 0,5 C 33,8 km/h (5 Bft) 92,11 %
18.03.2017 22:49 8,7 C 92 % 1007,3 hPa 0,0 l/m 24,4 km/h (4 Bft) W 264 0 min 0,000 mm 0,0 UV-I 0 W/m 7,5 C 0,2 C 32,2 km/h (5 Bft) 96,30 %
18.03.2017 22:50 8,7 C 92 % 1007,3 hPa 0,0 l/m 23,0 km/h (4 Bft) SW 227 0 min 0,000 mm 0,0 UV-I 0 W/m 7,5 C 0,6 C 32,2 km/h (5 Bft) 89,66 %
18.03.2017 22:51 8,7 C 91 % 1007,2 hPa 0,0 l/m 25,6 km/h (4 Bft) W 271 0 min 0,000 mm 0,0 UV-I 0 W/m 7,3 C -0,1 C 32,2 km/h (5 Bft) 100,00 %
18.03.2017 22:52 8,7 C 91 % 1007,3 hPa 0,0 l/m 19,6 km/h (3 Bft) W 267 0 min 0,000 mm 0,0 UV-I 0 W/m 7,3 C 1,7 C 22,5 km/h (4 Bft) 92,31 %
18.03.2017 22:53 8,7 C 91 % 1007,3 hPa 0,0 l/m 22,6 km/h (4 Bft) SW 231 0 min 0,000 mm 0,0 UV-I 0 W/m 7,3 C 0,8 C 30,6 km/h (5 Bft) 96,30 %
18.03.2017 22:54 8,7 C 92 % 1007,4 hPa 0,0 l/m 19,8 km/h (3 Bft) S-SO 162 0 min 0,000 mm 0,0 UV-I 0 W/m 7,5 C 1,7 C 22,5 km/h (4 Bft) 92,31 %
18.03.2017 22:55 8,7 C 92 % 1007,3 hPa 0,0 l/m 17,2 km/h (3 Bft) W-SW 250 0 min 0,000 mm 0,0 UV-I 0 W/m 7,5 C 2,6 C 20,9 km/h (4 Bft) 95,83 %
18.03.2017 22:56 8,7 C 92 % 1007,3 hPa 0,0 l/m 19,7 km/h (3 Bft) W-SW 239 0 min 0,000 mm 0,0 UV-I 0 W/m 7,5 C 1,7 C 30,6 km/h (5 Bft) 100,00 %
18.03.2017 22:57 8,7 C 92 % 1007,2 hPa 0,2 l/m 19,6 km/h (3 Bft) SW 225 0 min 0,000 mm 0,0 UV-I 0 W/m 7,5 C 1,7 C 25,7 km/h (4 Bft) 89,66 %
18.03.2017 22:58 8,7 C 92 % 1007,2 hPa 0,0 l/m 24,3 km/h (4 Bft) W-SW 257 0 min 0,000 mm 0,0 UV-I 0 W/m 7,5 C 0,3 C 33,8 km/h (5 Bft) 100,00 %
18.03.2017 22:59 8,7 C 92 % 1007,2 hPa 0,0 l/m 19,8 km/h (3 Bft) W 261 0 min 0,000 mm 0,0 UV-I 0 W/m 7,5 C 1,7 C 29,0 km/h (5 Bft) 93,33 %
18.03.2017 23:00 8,7 C 92 % 1007,3 hPa 0,0 l/m 17,7 km/h (3 Bft) SW 229 0 min 0,000 mm 0,0 UV-I 0 W/m 7,5 C 2,4 C 29,0 km/h (5 Bft) 100,00 %
18.03.2017 23:01 8,7 C 92 % 1007,2 hPa 0,0 l/m 16,9 km/h (3 Bft) W-SW 257 0 min 0,026 mm 0,0 UV-I 0 W/m 7,5 C 2,8 C 24,1 km/h (4 Bft) 88,46 %
18.03.2017 23:02 8,7 C 92 % 1007,3 hPa 0,0 l/m 19,5 km/h (3 Bft) W-SW 239 0 min 0,000 mm 0,0 UV-I 0 W/m 7,5 C 1,8 C 25,7 km/h (4 Bft) 100,00 %
18.03.2017 23:03 8,7 C 92 % 1007,3 hPa 0,0 l/m 18,9 km/h (3 Bft) W-SW 237 0 min 0,000 mm 0,0 UV-I 0 W/m 7,5 C 2,0 C 22,5 km/h (4 Bft) 96,15 %
18.03.2017 23:04 8,7 C 92 % 1007,2 hPa 0,0 l/m 16,7 km/h (3 Bft) W-SW 239 0 min 0,000 mm 0,0 UV-I 0 W/m 7,5 C 2,8 C 22,5 km/h (4 Bft) 100,00 %
18.03.2017 23:05 8,7 C 92 % 1007,3 hPa 0,0 l/m 22,9 km/h (4 Bft) W-SW 244 0 min 0,000 mm 0,0 UV-I 0 W/m 7,5 C 0,7 C 27,4 km/h (4 Bft) 92,86 %
18.03.2017 23:06 8,7 C 92 % 1007,3 hPa 0,0 l/m 18,2 km/h (3 Bft) W-SW 242 0 min 0,000 mm 0,0 UV-I 0 W/m 7,5 C 2,3 C 27,4 km/h (4 Bft) 91,67 %
18.03.2017 23:07 8,7 C 92 % 1007,3 hPa 0,0 l/m 24,1 km/h (4 Bft) SW 236 0 min 0,000 mm 0,0 UV-I 0 W/m 7,5 C 0,3 C 32,2 km/h (5 Bft) 95,65 %
18.03.2017 23:08 8,7 C 92 % 1007,3 hPa 0,0 l/m 19,3 km/h (3 Bft) W 263 0 min 0,000 mm 0,0 UV-I 0 W/m 7,5 C 1,9 C 25,7 km/h (4 Bft) 86,67 %
18.03.2017 23:09 8,7 C 92 % 1007,4 hPa 0,0 l/m 18,3 km/h (3 Bft) SW 214 0 min 0,000 mm 0,0 UV-I 0 W/m 7,5 C 2,2 C 22,5 km/h (4 Bft) 96,55 %
18.03.2017 23:10 8,7 C 92 % 1007,4 hPa 0,0 l/m 17,9 km/h (3 Bft) W-SW 258 0 min 0,000 mm 0,0 UV-I 0 W/m 7,5 C 2,4 C 24,1 km/h (4 Bft) 92,59 %
18.03.2017 23:11 8,7 C 92 % 1007,3 hPa 0,2 l/m 22,4 km/h (4 Bft) W-SW 249 0 min 0,000 mm 0,0 UV-I 0 W/m 7,5 C 0,8 C 32,2 km/h (5 Bft) 96,15 %
18.03.2017 23:12 8,7 C 92 % 1007,5 hPa 0,0 l/m 17,7 km/h (3 Bft) SW 226 0 min 0,000 mm 0,0 UV-I 0 W/m 7,5 C 2,4 C 22,5 km/h (4 Bft) 100,00 %
18.03.2017 23:13 8,7 C 92 % 1007,5 hPa 0,0 l/m 17,9 km/h (3 Bft) W-SW 244 0 min 0,000 mm 0,0 UV-I 0 W/m 7,5 C 2,4 C 22,5 km/h (4 Bft) 93,10 %
18.03.2017 23:14 8,7 C 92 % 1007,4 hPa 0,0 l/m 17,1 km/h (3 Bft) W-SW 240 0 min 0,000 mm 0,0 UV-I 0 W/m 7,5 C 2,7 C 24,1 km/h (4 Bft) 96,30 %
18.03.2017 23:15 8,7 C 92 % 1007,5 hPa 0,0 l/m 24,9 km/h (4 Bft) W-SW 237 0 min 0,000 mm 0,0 UV-I 0 W/m 7,5 C 0,1 C 38,6 km/h (5 Bft) 96,15 %
18.03.2017 23:16 8,7 C 92 % 1007,5 hPa 0,0 l/m 23,9 km/h (4 Bft) W-SW 258 0 min 0,000 mm 0,0 UV-I 0 W/m 7,5 C 0,4 C 30,6 km/h (5 Bft) 100,00 %
18.03.2017 23:17 8,7 C 92 % 1007,5 hPa 0,0 l/m 21,4 km/h (4 Bft) W-SW 252 0 min 0,000 mm 0,0 UV-I 0 W/m 7,5 C 1,1 C 29,0 km/h (5 Bft) 92,59 %
18.03.2017 23:18 8,7 C 92 % 1007,5 hPa 0,0 l/m 17,0 km/h (3 Bft) W-SW 245 0 min 0,000 mm 0,0 UV-I 0 W/m 7,5 C 2,7 C 27,4 km/h (4 Bft) 95,65 %
18.03.2017 23:19 8,7 C 92 % 1007,6 hPa 0,0 l/m 21,3 km/h (4 Bft) SW 221 0 min 0,000 mm 0,0 UV-I 0 W/m 7,5 C 1,2 C 29,0 km/h (5 Bft) 95,83 %
18.03.2017 23:20 8,7 C 92 % 1007,6 hPa 0,0 l/m 23,0 km/h (4 Bft) SW 231 0 min 0,000 mm 0,0 UV-I 0 W/m 7,5 C 0,6 C 29,0 km/h (5 Bft) 95,65 %
18.03.2017 23:21 8,7 C 92 % 1007,6 hPa 0,0 l/m 23,6 km/h (4 Bft) W 275 0 min 0,000 mm 0,0 UV-I 0 W/m 7,5 C 0,5 C 38,6 km/h (5 Bft) 95,83 %
18.03.2017 23:22 8,7 C 91 % 1007,5 hPa 0,0 l/m 18,5 km/h (3 Bft) W-SW 252 0 min 0,000 mm 0,0 UV-I 0 W/m 7,3 C 2,1 C 27,4 km/h (4 Bft) 96,15 %
18.03.2017 23:23 8,8 C 91 % 1007,5 hPa 0,0 l/m 23,7 km/h (4 Bft) W-SW 258 0 min 0,000 mm 0,0 UV-I 0 W/m 7,4 C 0,6 C 30,6 km/h (5 Bft) 95,83 %
18.03.2017 23:24 8,8 C 91 % 1007,6 hPa 0,0 l/m 17,5 km/h (3 Bft) W-SW 254 0 min 0,000 mm 0,0 UV-I 0 W/m 7,4 C 2,6 C 22,5 km/h (4 Bft) 92,86 %
18.03.2017 23:25 8,8 C 91 % 1007,6 hPa 0,0 l/m 18,1 km/h (3 Bft) W-SW 245 0 min 0,000 mm 0,0 UV-I 0 W/m 7,4 C 2,4 C 25,7 km/h (4 Bft) 100,00 %
18.03.2017 23:26 8,8 C 91 % 1007,5 hPa 0,0 l/m 18,8 km/h (3 Bft) W-SW 241 0 min 0,000 mm 0,0 UV-I 0 W/m 7,4 C 2,2 C 33,8 km/h (5 Bft) 95,65 %
18.03.2017 23:27 8,8 C 91 % 1007,5 hPa 0,0 l/m 20,4 km/h (4 Bft) W-NW 283 0 min 0,000 mm 0,0 UV-I 0 W/m 7,4 C 1,6 C 27,4 km/h (4 Bft) 100,00 %
18.03.2017 23:28 8,8 C 91 % 1007,5 hPa 0,0 l/m 13,5 km/h (3 Bft) W-SW 250 0 min 0,000 mm 0,0 UV-I 0 W/m 7,4 C 4,4 C 17,7 km/h (3 Bft) 100,00 %
18.03.2017 23:29 8,8 C 91 % 1007,4 hPa 0,0 l/m 20,2 km/h (4 Bft) SW 232 0 min 0,000 mm 0,0 UV-I 0 W/m 7,4 C 1,7 C 25,7 km/h (4 Bft) 100,00 %
18.03.2017 23:30 8,8 C 91 % 1007,5 hPa 0,0 l/m 24,5 km/h (4 Bft) W-SW 250 0 min 0,000 mm 0,0 UV-I 0 W/m 7,4 C 0,3 C 33,8 km/h (5 Bft) 95,65 %
18.03.2017 23:31 8,8 C 91 % 1007,5 hPa 0,0 l/m 24,9 km/h (4 Bft) W-SW 247 0 min 0,000 mm 0,0 UV-I 0 W/m 7,4 C 0,2 C 33,8 km/h (5 Bft) 92,59 %
18.03.2017 23:32 8,8 C 91 % 1007,6 hPa 0,0 l/m 21,7 km/h (4 Bft) W 267 0 min 0,000 mm 0,0 UV-I 0 W/m 7,4 C 1,2 C 27,4 km/h (4 Bft) 100,00 %
18.03.2017 23:33 8,8 C 91 % 1007,5 hPa 0,0 l/m 24,0 km/h (4 Bft) W-SW 238 0 min 0,000 mm 0,0 UV-I 0 W/m 7,4 C 0,5 C 33,8 km/h (5 Bft) 100,00 %
18.03.2017 23:34 8,8 C 91 % 1007,5 hPa 0,0 l/m 19,9 km/h (4 Bft) SW 234 0 min 0,000 mm 0,0 UV-I 0 W/m 7,4 C 1,8 C 29,0 km/h (5 Bft) 91,67 %
18.03.2017 23:35 8,8 C 91 % 1007,6 hPa 0,0 l/m 18,9 km/h (3 Bft) W-SW 239 0 min 0,000 mm 0,0 UV-I 0 W/m 7,4 C 2,1 C 32,2 km/h (5 Bft) 96,55 %
18.03.2017 23:36 8,8 C 91 % 1007,5 hPa 0,2 l/m 18,3 km/h (3 Bft) SW 223 0 min 0,000 mm 0,0 UV-I 0 W/m 7,4 C 2,3 C 33,8 km/h (5 Bft) 95,83 %
18.03.2017 23:37 8,8 C 91 % 1007,5 hPa 0,0 l/m 17,4 km/h (3 Bft) W 259 0 min 0,000 mm 0,0 UV-I 0 W/m 7,4 C 2,7 C 20,9 km/h (4 Bft) 100,00 %
18.03.2017 23:38 8,8 C 91 % 1007,5 hPa 0,0 l/m 17,9 km/h (3 Bft) NW 309 0 min 0,000 mm 0,0 UV-I 0 W/m 7,4 C 2,5 C 24,1 km/h (4 Bft) 93,33 %
18.03.2017 23:39 8,8 C 91 % 1007,5 hPa 0,0 l/m 19,4 km/h (3 Bft) SW 231 0 min 0,000 mm 0,0 UV-I 0 W/m 7,4 C 1,9 C 24,1 km/h (4 Bft) 88,46 %
18.03.2017 23:40 8,8 C 91 % 1007,5 hPa 0,0 l/m 17,9 km/h (3 Bft) W 262 0 min 0,000 mm 0,0 UV-I 0 W/m 7,4 C 2,5 C 25,7 km/h (4 Bft) 92,59 %
18.03.2017 23:41 8,8 C 91 % 1007,5 hPa 0,0 l/m 27,7 km/h (4 Bft) W-NW 284 0 min 0,000 mm 0,0 UV-I 0 W/m 7,4 C -0,5 C 37,0 km/h (5 Bft) 93,10 %
18.03.2017 23:42 8,8 C 91 % 1007,4 hPa 0,0 l/m 20,1 km/h (4 Bft) W 265 0 min 0,000 mm 0,0 UV-I 0 W/m 7,4 C 1,7 C 25,7 km/h (4 Bft) 100,00 %
18.03.2017 23:43 8,8 C 91 % 1007,5 hPa 0,0 l/m 17,5 km/h (3 Bft) W 271 0 min 0,000 mm 0,0 UV-I 0 W/m 7,4 C 2,6 C 27,4 km/h (4 Bft) 90,91 %
18.03.2017 23:44 8,8 C 91 % 1007,6 hPa 0,0 l/m 17,4 km/h (3 Bft) W 277 0 min 0,000 mm 0,0 UV-I 0 W/m 7,4 C 2,7 C 22,5 km/h (4 Bft) 93,94 %
18.03.2017 23:45 8,8 C 91 % 1007,6 hPa 0,0 l/m 19,2 km/h (3 Bft) W-NW 302 0 min 0,000 mm 0,0 UV-I 0 W/m 7,4 C 2,0 C 32,2 km/h (5 Bft) 92,31 %
18.03.2017 23:46 8,8 C 91 % 1007,6 hPa 0,0 l/m 18,4 km/h (3 Bft) W-SW 241 0 min 0,000 mm 0,0 UV-I 0 W/m 7,4 C 2,3 C 27,4 km/h (4 Bft) 95,96 %
18.03.2017 23:47 8,8 C 91 % 1007,6 hPa 0,0 l/m 17,0 km/h (3 Bft) W-SW 254 0 min 0,000 mm 0,0 UV-I 0 W/m 7,4 C 2,8 C 19,3 km/h (3 Bft) 92,68 %
18.03.2017 23:48 8,8 C 91 % 1007,6 hPa 0,0 l/m 22,7 km/h (4 Bft) W-SW 257 0 min 0,000 mm 0,0 UV-I 0 W/m 7,4 C 0,9 C 27,4 km/h (4 Bft) 92,59 %
18.03.2017 23:49 8,8 C 91 % 1007,6 hPa 0,0 l/m 18,6 km/h (3 Bft) W 260 0 min 0,000 mm 0,0 UV-I 0 W/m 7,4 C 2,2 C 22,5 km/h (4 Bft) 95,65 %
18.03.2017 23:50 8,8 C 91 % 1007,6 hPa 0,0 l/m 27,8 km/h (4 Bft) SW 220 0 min 0,000 mm 0,0 UV-I 0 W/m 7,4 C -0,5 C 45,1 km/h (6 Bft) 91,67 %
18.03.2017 23:51 8,8 C 91 % 1007,6 hPa 0,0 l/m 20,9 km/h (4 Bft) W-SW 255 0 min 0,000 mm 0,0 UV-I 0 W/m 7,4 C 1,4 C 30,6 km/h (5 Bft) 96,55 %
18.03.2017 23:52 8,9 C 91 % 1007,5 hPa 0,0 l/m 26,8 km/h (4 Bft) W-SW 240 0 min 0,000 mm 0,0 UV-I 0 W/m 7,5 C -0,1 C 35,4 km/h (5 Bft) 88,89 %
18.03.2017 23:53 8,9 C 91 % 1007,6 hPa 0,0 l/m 27,1 km/h (4 Bft) W-SW 250 0 min 0,000 mm 0,0 UV-I 0 W/m 7,5 C -0,2 C 32,2 km/h (5 Bft) 95,95 %
18.03.2017 23:54 8,9 C 91 % 1007,6 hPa 0,0 l/m 20,6 km/h (4 Bft) SW 221 0 min 0,000 mm 0,0 UV-I 0 W/m 7,5 C 1,7 C 32,2 km/h (5 Bft) 97,73 %
18.03.2017 23:55 8,9 C 91 % 1007,6 hPa 0,0 l/m 18,7 km/h (3 Bft) SW 232 0 min 0,000 mm 0,0 UV-I 0 W/m 7,5 C 2,3 C 25,7 km/h (4 Bft) 100,00 %
18.03.2017 23:56 8,9 C 91 % 1007,5 hPa 0,0 l/m 16,3 km/h (3 Bft) W-SW 251 0 min 0,000 mm 0,0 UV-I 0 W/m 7,5 C 3,2 C 19,3 km/h (3 Bft) 92,59 %
18.03.2017 23:57 8,9 C 91 % 1007,6 hPa 0,0 l/m 14,5 km/h (3 Bft) S-SW 213 0 min 0,000 mm 0,0 UV-I 0 W/m 7,5 C 4,0 C 22,5 km/h (4 Bft) 100,00 %
18.03.2017 23:58 8,9 C 91 % 1007,6 hPa 0,0 l/m 19,4 km/h (3 Bft) W-SW 252 0 min 0,000 mm 0,0 UV-I 0 W/m 7,5 C 2,1 C 24,1 km/h (4 Bft) 96,15 %
18.03.2017 23:59 8,9 C 91 % 1007,6 hPa 0,0 l/m 23,9 km/h (4 Bft) W-SW 250 0 min 0,000 mm 0,0 UV-I 0 W/m 7,5 C 0,6 C 30,6 km/h (5 Bft) 96,30 %
_ Min-Zeit 09:28 06:22 09:28 - 03:10 - - - - - - 06:22 16:23 03:02 15:54
Minimum _ 7,8 C 80 % 1006,2 hPa - 5,9 km/h (2 Bft) - - - - - - 5,5 C -2,3 C 8,0 km/h (2 Bft) 75,00 %
_ Max-Zeit 03:28 00:26 00:26 06:56 16:23 - - 00:00 08:02 12:42 10:38 03:20 03:10 08:22 00:04
Maximum _ 9,2 C 93 % 1011,5 hPa 0,2 l/m 33,9 km/h
SW (5 Bft)
- - 0 min 0,051 mm 0,5 UV-I 97 W/m 8,0 C 9,0 C 49,9 km/h
W-SW (6 Bft)
100,00 %
Durchschnitt _ 8,4 C 89 % 1007,7 hPa #19,2 l/m 18,3 km/h (3 Bft) W-SW - #0 min. #0,686 mm 0,2 UV-I 46 W/m 6,8 C 2,2 C 27,1 km/h (4 Bft) 96,10 %